<?xml version="1.0" encoding="utf-8"?>
<gpx xmlns:xsi="http://www.w3.org/2001/XMLSchema-instance" xmlns:xsd="http://www.w3.org/2001/XMLSchema" version="1.1" creator="Shapelink.com" xmlns="http://www.topografix.com/GPX/1/1" xmlns:gpxtpx="http://www.garmin.com/xmlschemas/TrackPointExtension/v1">
  <metadata>
    <name>Cykling 37.04 km, 2012-03-29</name>
    <desc></desc>
    <author><name>Dennis Rehn</name></author> 
    <time>2012-03-29T17:26:40Z</time>
  </metadata>
  <trk>
    <name>Cykling 37.04 km, 2012-03-29</name>
    <trkseg>
      <trkpt lat="59.9777526335" lon="23.398708276">
        <ele>0</ele>
        <time>2012-03-29T17:26:40Z</time>
      </trkpt>
      <trkpt lat="59.977802422" lon="23.3989338329">
        <ele>0</ele>
        <time>2012-03-29T17:26:44Z</time>
      </trkpt>
      <trkpt lat="59.9778512885" lon="23.399072721">
        <ele>0</ele>
        <time>2012-03-29T17:26:50Z</time>
      </trkpt>
      <trkpt lat="59.9779299945" lon="23.3991951806">
        <ele>0</ele>
        <time>2012-03-29T17:26:57Z</time>
      </trkpt>
      <trkpt lat="59.9780697208" lon="23.3993117728">
        <ele>0</ele>
        <time>2012-03-29T17:27:04Z</time>
      </trkpt>
      <trkpt lat="59.9782511051" lon="23.3994600486">
        <ele>1.2</ele>
        <time>2012-03-29T17:27:11Z</time>
      </trkpt>
      <trkpt lat="59.9784349202" lon="23.3995928179">
        <ele>2</ele>
        <time>2012-03-29T17:27:18Z</time>
      </trkpt>
      <trkpt lat="59.9785576312" lon="23.3996978431">
        <ele>2.4</ele>
        <time>2012-03-29T17:27:24Z</time>
      </trkpt>
      <trkpt lat="59.9786768218" lon="23.3998059696">
        <ele>2.6</ele>
        <time>2012-03-29T17:27:32Z</time>
      </trkpt>
      <trkpt lat="59.9788371675" lon="23.3999349671">
        <ele>2.6</ele>
        <time>2012-03-29T17:27:41Z</time>
      </trkpt>
      <trkpt lat="59.9789695178" lon="23.4000316104">
        <ele>2.8</ele>
        <time>2012-03-29T17:27:45Z</time>
      </trkpt>
      <trkpt lat="59.9791597031" lon="23.4001684868">
        <ele>3.4</ele>
        <time>2012-03-29T17:27:49Z</time>
      </trkpt>
      <trkpt lat="59.9793300233" lon="23.4003198639">
        <ele>4</ele>
        <time>2012-03-29T17:27:53Z</time>
      </trkpt>
      <trkpt lat="59.9795288419" lon="23.4005025893">
        <ele>4.2</ele>
        <time>2012-03-29T17:27:57Z</time>
      </trkpt>
      <trkpt lat="59.9797210389" lon="23.40065975">
        <ele>4.6</ele>
        <time>2012-03-29T17:28:01Z</time>
      </trkpt>
      <trkpt lat="59.9798987352" lon="23.4008354346">
        <ele>5.4</ele>
        <time>2012-03-29T17:28:05Z</time>
      </trkpt>
      <trkpt lat="59.9800775211" lon="23.4010035755">
        <ele>6</ele>
        <time>2012-03-29T17:28:09Z</time>
      </trkpt>
      <trkpt lat="59.9802484281" lon="23.4011810203">
        <ele>6.2</ele>
        <time>2012-03-29T17:28:13Z</time>
      </trkpt>
      <trkpt lat="59.9804172395" lon="23.4013618179">
        <ele>6.4</ele>
        <time>2012-03-29T17:28:17Z</time>
      </trkpt>
      <trkpt lat="59.9805832011" lon="23.4015433699">
        <ele>6.6</ele>
        <time>2012-03-29T17:28:21Z</time>
      </trkpt>
      <trkpt lat="59.9806254459" lon="23.4015852794">
        <ele>6.6</ele>
        <time>2012-03-29T17:28:22Z</time>
      </trkpt>
      <trkpt lat="59.9808300481" lon="23.4018172904">
        <ele>6.8</ele>
        <time>2012-03-29T17:28:27Z</time>
      </trkpt>
      <trkpt lat="59.9809917349" lon="23.4020068051">
        <ele>6.8</ele>
        <time>2012-03-29T17:28:31Z</time>
      </trkpt>
      <trkpt lat="59.9811574451" lon="23.402207384">
        <ele>6.8</ele>
        <time>2012-03-29T17:28:35Z</time>
      </trkpt>
      <trkpt lat="59.9813100795" lon="23.4024026823">
        <ele>6.8</ele>
        <time>2012-03-29T17:28:39Z</time>
      </trkpt>
      <trkpt lat="59.9814366462" lon="23.4026026744">
        <ele>6.8</ele>
        <time>2012-03-29T17:28:44Z</time>
      </trkpt>
      <trkpt lat="59.9816107383" lon="23.4028472582">
        <ele>7.8</ele>
        <time>2012-03-29T17:28:50Z</time>
      </trkpt>
      <trkpt lat="59.9817719222" lon="23.4030783472">
        <ele>8.2</ele>
        <time>2012-03-29T17:28:55Z</time>
      </trkpt>
      <trkpt lat="59.9819307592" lon="23.4033343304">
        <ele>8.6</ele>
        <time>2012-03-29T17:29:00Z</time>
      </trkpt>
      <trkpt lat="59.9820844832" lon="23.4035863742">
        <ele>8.6</ele>
        <time>2012-03-29T17:29:05Z</time>
      </trkpt>
      <trkpt lat="59.9822418115" lon="23.403864318">
        <ele>8.8</ele>
        <time>2012-03-29T17:29:10Z</time>
      </trkpt>
      <trkpt lat="59.9823952003" lon="23.4041551699">
        <ele>8.8</ele>
        <time>2012-03-29T17:29:15Z</time>
      </trkpt>
      <trkpt lat="59.9824870659" lon="23.4043217183">
        <ele>9</ele>
        <time>2012-03-29T17:29:18Z</time>
      </trkpt>
      <trkpt lat="59.9826549554" lon="23.4046892646">
        <ele>10</ele>
        <time>2012-03-29T17:29:24Z</time>
      </trkpt>
      <trkpt lat="59.9828001299" lon="23.404996545">
        <ele>10.4</ele>
        <time>2012-03-29T17:29:29Z</time>
      </trkpt>
      <trkpt lat="59.9829511717" lon="23.4053086032">
        <ele>10.6</ele>
        <time>2012-03-29T17:29:34Z</time>
      </trkpt>
      <trkpt lat="59.9832626431" lon="23.4060250042">
        <ele>10.8</ele>
        <time>2012-03-29T17:29:45Z</time>
      </trkpt>
      <trkpt lat="59.9835208056" lon="23.4066958076">
        <ele>11.4</ele>
        <time>2012-03-29T17:29:56Z</time>
      </trkpt>
      <trkpt lat="59.9836281778" lon="23.406992946">
        <ele>12</ele>
        <time>2012-03-29T17:30:01Z</time>
      </trkpt>
      <trkpt lat="59.9837326162" lon="23.4073055908">
        <ele>12.4</ele>
        <time>2012-03-29T17:30:06Z</time>
      </trkpt>
      <trkpt lat="59.9838305168" lon="23.407676909">
        <ele>12.6</ele>
        <time>2012-03-29T17:30:12Z</time>
      </trkpt>
      <trkpt lat="59.9839270763" lon="23.4080095028">
        <ele>12.8</ele>
        <time>2012-03-29T17:30:17Z</time>
      </trkpt>
      <trkpt lat="59.9840095542" lon="23.4083281826">
        <ele>12.8</ele>
        <time>2012-03-29T17:30:22Z</time>
      </trkpt>
      <trkpt lat="59.9840955525" lon="23.4086570046">
        <ele>12.8</ele>
        <time>2012-03-29T17:30:27Z</time>
      </trkpt>
      <trkpt lat="59.9841803773" lon="23.4090449189">
        <ele>13</ele>
        <time>2012-03-29T17:30:33Z</time>
      </trkpt>
      <trkpt lat="59.9842558983" lon="23.4094280556">
        <ele>13</ele>
        <time>2012-03-29T17:30:39Z</time>
      </trkpt>
      <trkpt lat="59.9843263062" lon="23.4097841187">
        <ele>13</ele>
        <time>2012-03-29T17:30:44Z</time>
      </trkpt>
      <trkpt lat="59.9843978876" lon="23.4101844382">
        <ele>13</ele>
        <time>2012-03-29T17:30:50Z</time>
      </trkpt>
      <trkpt lat="59.9844344327" lon="23.4105715144">
        <ele>13</ele>
        <time>2012-03-29T17:30:55Z</time>
      </trkpt>
      <trkpt lat="59.9844714807" lon="23.4109572494">
        <ele>13</ele>
        <time>2012-03-29T17:31:00Z</time>
      </trkpt>
      <trkpt lat="59.9845065171" lon="23.4113517016">
        <ele>13</ele>
        <time>2012-03-29T17:31:06Z</time>
      </trkpt>
      <trkpt lat="59.9845155695" lon="23.4116348422">
        <ele>12</ele>
        <time>2012-03-29T17:31:11Z</time>
      </trkpt>
      <trkpt lat="59.9845396256" lon="23.4120075853">
        <ele>11.6</ele>
        <time>2012-03-29T17:31:16Z</time>
      </trkpt>
      <trkpt lat="59.9845596583" lon="23.4124032948">
        <ele>11.4</ele>
        <time>2012-03-29T17:31:21Z</time>
      </trkpt>
      <trkpt lat="59.9845791043" lon="23.4127798097">
        <ele>11.2</ele>
        <time>2012-03-29T17:31:26Z</time>
      </trkpt>
      <trkpt lat="59.9845975445" lon="23.4132024251">
        <ele>11</ele>
        <time>2012-03-29T17:31:32Z</time>
      </trkpt>
      <trkpt lat="59.984613051" lon="23.4135626792">
        <ele>10.6</ele>
        <time>2012-03-29T17:31:37Z</time>
      </trkpt>
      <trkpt lat="59.9846283061" lon="23.4139407867">
        <ele>9.8</ele>
        <time>2012-03-29T17:31:42Z</time>
      </trkpt>
      <trkpt lat="59.9846395378" lon="23.4143758073">
        <ele>9.4</ele>
        <time>2012-03-29T17:31:48Z</time>
      </trkpt>
      <trkpt lat="59.9846583971" lon="23.4147887835">
        <ele>9.2</ele>
        <time>2012-03-29T17:31:54Z</time>
      </trkpt>
      <trkpt lat="59.9847014801" lon="23.4152021788">
        <ele>9</ele>
        <time>2012-03-29T17:32:00Z</time>
      </trkpt>
      <trkpt lat="59.9847711337" lon="23.4161331565">
        <ele>8.8</ele>
        <time>2012-03-29T17:32:13Z</time>
      </trkpt>
      <trkpt lat="59.9847713851" lon="23.4165609686">
        <ele>7.8</ele>
        <time>2012-03-29T17:32:19Z</time>
      </trkpt>
      <trkpt lat="59.9847650987" lon="23.416969251">
        <ele>7.4</ele>
        <time>2012-03-29T17:32:25Z</time>
      </trkpt>
      <trkpt lat="59.9847548728" lon="23.4173985719">
        <ele>7</ele>
        <time>2012-03-29T17:32:31Z</time>
      </trkpt>
      <trkpt lat="59.9847504304" lon="23.4177631846">
        <ele>7</ele>
        <time>2012-03-29T17:32:36Z</time>
      </trkpt>
      <trkpt lat="59.9847452336" lon="23.4181294736">
        <ele>6.8</ele>
        <time>2012-03-29T17:32:41Z</time>
      </trkpt>
      <trkpt lat="59.984736265" lon="23.4185321401">
        <ele>6.8</ele>
        <time>2012-03-29T17:32:47Z</time>
      </trkpt>
      <trkpt lat="59.984736684" lon="23.4189492234">
        <ele>6.8</ele>
        <time>2012-03-29T17:32:53Z</time>
      </trkpt>
      <trkpt lat="59.9847537831" lon="23.4193590983">
        <ele>6.8</ele>
        <time>2012-03-29T17:32:59Z</time>
      </trkpt>
      <trkpt lat="59.9847322416" lon="23.4197196038">
        <ele>6.8</ele>
        <time>2012-03-29T17:33:04Z</time>
      </trkpt>
      <trkpt lat="59.9846863088" lon="23.4201096975">
        <ele>6.8</ele>
        <time>2012-03-29T17:33:10Z</time>
      </trkpt>
      <trkpt lat="59.9846356822" lon="23.4205057422">
        <ele>6.8</ele>
        <time>2012-03-29T17:33:16Z</time>
      </trkpt>
      <trkpt lat="59.9845527013" lon="23.4208739591">
        <ele>6.8</ele>
        <time>2012-03-29T17:33:22Z</time>
      </trkpt>
      <trkpt lat="59.9844775995" lon="23.4212649747">
        <ele>6.8</ele>
        <time>2012-03-29T17:33:28Z</time>
      </trkpt>
      <trkpt lat="59.9844089518" lon="23.421613075">
        <ele>6.8</ele>
        <time>2012-03-29T17:33:34Z</time>
      </trkpt>
      <trkpt lat="59.9843346043" lon="23.4220156577">
        <ele>7.4</ele>
        <time>2012-03-29T17:33:40Z</time>
      </trkpt>
      <trkpt lat="59.9842675491" lon="23.4224143009">
        <ele>8.2</ele>
        <time>2012-03-29T17:33:46Z</time>
      </trkpt>
      <trkpt lat="59.9842028408" lon="23.4228095075">
        <ele>8.4</ele>
        <time>2012-03-29T17:33:52Z</time>
      </trkpt>
      <trkpt lat="59.9841270685" lon="23.4231990143">
        <ele>8.8</ele>
        <time>2012-03-29T17:33:58Z</time>
      </trkpt>
      <trkpt lat="59.9840540621" lon="23.4236052012">
        <ele>9.6</ele>
        <time>2012-03-29T17:34:04Z</time>
      </trkpt>
      <trkpt lat="59.9839880127" lon="23.4240185127">
        <ele>10.2</ele>
        <time>2012-03-29T17:34:09Z</time>
      </trkpt>
      <trkpt lat="59.9839559101" lon="23.4244635078">
        <ele>10.4</ele>
        <time>2012-03-29T17:34:13Z</time>
      </trkpt>
      <trkpt lat="59.9839469414" lon="23.4248566189">
        <ele>10.6</ele>
        <time>2012-03-29T17:34:16Z</time>
      </trkpt>
      <trkpt lat="59.9839471091" lon="23.4249730435">
        <ele>10.6</ele>
        <time>2012-03-29T17:34:17Z</time>
      </trkpt>
      <trkpt lat="59.9839501265" lon="23.4250591256">
        <ele>10.6</ele>
        <time>2012-03-29T17:34:18Z</time>
      </trkpt>
      <trkpt lat="59.9840257313" lon="23.4253315373">
        <ele>10.8</ele>
        <time>2012-03-29T17:34:22Z</time>
      </trkpt>
      <trkpt lat="59.9842177606" lon="23.4252962495">
        <ele>10.8</ele>
        <time>2012-03-29T17:34:27Z</time>
      </trkpt>
      <trkpt lat="59.9843161641" lon="23.4250887975">
        <ele>10.8</ele>
        <time>2012-03-29T17:34:31Z</time>
      </trkpt>
      <trkpt lat="59.9843506976" lon="23.425062646">
        <ele>10.8</ele>
        <time>2012-03-29T17:34:32Z</time>
      </trkpt>
      <trkpt lat="59.9845677049" lon="23.424998273">
        <ele>10.8</ele>
        <time>2012-03-29T17:34:38Z</time>
      </trkpt>
      <trkpt lat="59.9847604048" lon="23.4250230834">
        <ele>10.8</ele>
        <time>2012-03-29T17:34:44Z</time>
      </trkpt>
      <trkpt lat="59.9849328205" lon="23.4250431162">
        <ele>10.8</ele>
        <time>2012-03-29T17:34:49Z</time>
      </trkpt>
      <trkpt lat="59.9849669348" lon="23.425049235">
        <ele>10.8</ele>
        <time>2012-03-29T17:34:50Z</time>
      </trkpt>
      <trkpt lat="59.9851684357" lon="23.4250518333">
        <ele>10.8</ele>
        <time>2012-03-29T17:34:56Z</time>
      </trkpt>
      <trkpt lat="59.9853702719" lon="23.4250562757">
        <ele>11.2</ele>
        <time>2012-03-29T17:35:02Z</time>
      </trkpt>
      <trkpt lat="59.9855745388" lon="23.4250518333">
        <ele>12</ele>
        <time>2012-03-29T17:35:08Z</time>
      </trkpt>
      <trkpt lat="59.9857622095" lon="23.4251533381">
        <ele>12.4</ele>
        <time>2012-03-29T17:35:13Z</time>
      </trkpt>
      <trkpt lat="59.9859751098" lon="23.4251826748">
        <ele>13</ele>
        <time>2012-03-29T17:35:17Z</time>
      </trkpt>
      <trkpt lat="59.9861929554" lon="23.4251754664">
        <ele>13.8</ele>
        <time>2012-03-29T17:35:21Z</time>
      </trkpt>
      <trkpt lat="59.9864036763" lon="23.4251764722">
        <ele>14.2</ele>
        <time>2012-03-29T17:35:25Z</time>
      </trkpt>
      <trkpt lat="59.9866202646" lon="23.4252149451">
        <ele>14.6</ele>
        <time>2012-03-29T17:35:29Z</time>
      </trkpt>
      <trkpt lat="59.9868401219" lon="23.4253010272">
        <ele>14.8</ele>
        <time>2012-03-29T17:35:33Z</time>
      </trkpt>
      <trkpt lat="59.987054447" lon="23.4254187929">
        <ele>14.8</ele>
        <time>2012-03-29T17:35:37Z</time>
      </trkpt>
      <trkpt lat="59.9872550259" lon="23.4255042045">
        <ele>15.2</ele>
        <time>2012-03-29T17:35:41Z</time>
      </trkpt>
      <trkpt lat="59.9874495698" lon="23.4255605309">
        <ele>15.6</ele>
        <time>2012-03-29T17:35:44Z</time>
      </trkpt>
      <trkpt lat="59.9875022081" lon="23.4255851736">
        <ele>15.8</ele>
        <time>2012-03-29T17:35:45Z</time>
      </trkpt>
      <trkpt lat="59.9877733626" lon="23.425672513">
        <ele>16.4</ele>
        <time>2012-03-29T17:35:50Z</time>
      </trkpt>
      <trkpt lat="59.9879539087" lon="23.4257160989">
        <ele>16.6</ele>
        <time>2012-03-29T17:35:53Z</time>
      </trkpt>
      <trkpt lat="59.9882472752" lon="23.425794805">
        <ele>16.8</ele>
        <time>2012-03-29T17:35:58Z</time>
      </trkpt>
      <trkpt lat="59.9884589182" lon="23.4258385585">
        <ele>17</ele>
        <time>2012-03-29T17:36:02Z</time>
      </trkpt>
      <trkpt lat="59.9886755903" lon="23.4258782887">
        <ele>17</ele>
        <time>2012-03-29T17:36:06Z</time>
      </trkpt>
      <trkpt lat="59.9888909213" lon="23.4258948848">
        <ele>17</ele>
        <time>2012-03-29T17:36:10Z</time>
      </trkpt>
      <trkpt lat="59.9889459066" lon="23.4258944657">
        <ele>17</ele>
        <time>2012-03-29T17:36:11Z</time>
      </trkpt>
      <trkpt lat="59.9892003811" lon="23.4259349503">
        <ele>17</ele>
        <time>2012-03-29T17:36:16Z</time>
      </trkpt>
      <trkpt lat="59.9893935839" lon="23.425954564">
        <ele>17</ele>
        <time>2012-03-29T17:36:20Z</time>
      </trkpt>
      <trkpt lat="59.9896281094" lon="23.4259745967">
        <ele>17</ele>
        <time>2012-03-29T17:36:24Z</time>
      </trkpt>
      <trkpt lat="59.9896933206" lon="23.425980464">
        <ele>17.2</ele>
        <time>2012-03-29T17:36:25Z</time>
      </trkpt>
      <trkpt lat="59.989959865" lon="23.42593604">
        <ele>17.2</ele>
        <time>2012-03-29T17:36:29Z</time>
      </trkpt>
      <trkpt lat="59.9900182031" lon="23.4259124868">
        <ele>17.2</ele>
        <time>2012-03-29T17:36:30Z</time>
      </trkpt>
      <trkpt lat="59.9901910378" lon="23.4258731757">
        <ele>17.2</ele>
        <time>2012-03-29T17:36:33Z</time>
      </trkpt>
      <trkpt lat="59.9904884276" lon="23.425917516">
        <ele>17.2</ele>
        <time>2012-03-29T17:36:38Z</time>
      </trkpt>
      <trkpt lat="59.9907339335" lon="23.4259595093">
        <ele>17.2</ele>
        <time>2012-03-29T17:36:42Z</time>
      </trkpt>
      <trkpt lat="59.9909568082" lon="23.4259922825">
        <ele>17.2</ele>
        <time>2012-03-29T17:36:46Z</time>
      </trkpt>
      <trkpt lat="59.9910049203" lon="23.4260052745">
        <ele>17.2</ele>
        <time>2012-03-29T17:36:47Z</time>
      </trkpt>
      <trkpt lat="59.9911831195" lon="23.4260562364">
        <ele>17.2</ele>
        <time>2012-03-29T17:36:51Z</time>
      </trkpt>
      <trkpt lat="59.9913718799" lon="23.4261512033">
        <ele>17.2</ele>
        <time>2012-03-29T17:36:56Z</time>
      </trkpt>
      <trkpt lat="59.9914127836" lon="23.4261795342">
        <ele>17.2</ele>
        <time>2012-03-29T17:36:57Z</time>
      </trkpt>
      <trkpt lat="59.9916101773" lon="23.42635371">
        <ele>17.6</ele>
        <time>2012-03-29T17:37:02Z</time>
      </trkpt>
      <trkpt lat="59.9916503266" lon="23.42638707">
        <ele>17.6</ele>
        <time>2012-03-29T17:37:03Z</time>
      </trkpt>
      <trkpt lat="59.9917957526" lon="23.4265581446">
        <ele>18.2</ele>
        <time>2012-03-29T17:37:07Z</time>
      </trkpt>
      <trkpt lat="59.9919497281" lon="23.4268122">
        <ele>18.6</ele>
        <time>2012-03-29T17:37:12Z</time>
      </trkpt>
      <trkpt lat="59.9921365606" lon="23.4270981904">
        <ele>18.8</ele>
        <time>2012-03-29T17:37:18Z</time>
      </trkpt>
      <trkpt lat="59.9923218006" lon="23.4272308759">
        <ele>19</ele>
        <time>2012-03-29T17:37:23Z</time>
      </trkpt>
      <trkpt lat="59.9925269057" lon="23.4272765572">
        <ele>19</ele>
        <time>2012-03-29T17:37:28Z</time>
      </trkpt>
      <trkpt lat="59.9927334357" lon="23.4272831789">
        <ele>19</ele>
        <time>2012-03-29T17:37:33Z</time>
      </trkpt>
      <trkpt lat="59.9929346013" lon="23.4273015353">
        <ele>19.2</ele>
        <time>2012-03-29T17:37:38Z</time>
      </trkpt>
      <trkpt lat="59.9931251219" lon="23.4273086599">
        <ele>19.2</ele>
        <time>2012-03-29T17:37:43Z</time>
      </trkpt>
      <trkpt lat="59.9933308138" lon="23.4272712766">
        <ele>19.2</ele>
        <time>2012-03-29T17:37:49Z</time>
      </trkpt>
      <trkpt lat="59.993504822" lon="23.4271056503">
        <ele>19.2</ele>
        <time>2012-03-29T17:37:54Z</time>
      </trkpt>
      <trkpt lat="59.9936688558" lon="23.4268748128">
        <ele>19.2</ele>
        <time>2012-03-29T17:37:59Z</time>
      </trkpt>
      <trkpt lat="59.9938408524" lon="23.4266776705">
        <ele>19.2</ele>
        <time>2012-03-29T17:38:04Z</time>
      </trkpt>
      <trkpt lat="59.9939528346" lon="23.4264030794">
        <ele>19.2</ele>
        <time>2012-03-29T17:38:08Z</time>
      </trkpt>
      <trkpt lat="59.9941263399" lon="23.4260200266">
        <ele>18.8</ele>
        <time>2012-03-29T17:38:13Z</time>
      </trkpt>
      <trkpt lat="59.9942651441" lon="23.4256958985">
        <ele>18.2</ele>
        <time>2012-03-29T17:38:17Z</time>
      </trkpt>
      <trkpt lat="59.9943829937" lon="23.4254038731">
        <ele>17.8</ele>
        <time>2012-03-29T17:38:21Z</time>
      </trkpt>
      <trkpt lat="59.9944368893" lon="23.4252848502">
        <ele>17.6</ele>
        <time>2012-03-29T17:38:23Z</time>
      </trkpt>
      <trkpt lat="59.9945955586" lon="23.4249670923">
        <ele>17.4</ele>
        <time>2012-03-29T17:38:29Z</time>
      </trkpt>
      <trkpt lat="59.9947552338" lon="23.4247020567">
        <ele>17.2</ele>
        <time>2012-03-29T17:38:35Z</time>
      </trkpt>
      <trkpt lat="59.994955226" lon="23.424464346">
        <ele>17.2</ele>
        <time>2012-03-29T17:38:42Z</time>
      </trkpt>
      <trkpt lat="59.9951252109" lon="23.4243122145">
        <ele>17.2</ele>
        <time>2012-03-29T17:38:47Z</time>
      </trkpt>
      <trkpt lat="59.9953371053" lon="23.4241652798">
        <ele>17.2</ele>
        <time>2012-03-29T17:38:53Z</time>
      </trkpt>
      <trkpt lat="59.995549335" lon="23.4240662057">
        <ele>17</ele>
        <time>2012-03-29T17:38:57Z</time>
      </trkpt>
      <trkpt lat="59.9957479861" lon="23.4239448358">
        <ele>17</ele>
        <time>2012-03-29T17:39:00Z</time>
      </trkpt>
      <trkpt lat="59.9959379199" lon="23.423770157">
        <ele>17</ele>
        <time>2012-03-29T17:39:03Z</time>
      </trkpt>
      <trkpt lat="59.9961270994" lon="23.4235537364">
        <ele>17</ele>
        <time>2012-03-29T17:39:06Z</time>
      </trkpt>
      <trkpt lat="59.9963095734" lon="23.4233342144">
        <ele>17</ele>
        <time>2012-03-29T17:39:09Z</time>
      </trkpt>
      <trkpt lat="59.996367157" lon="23.4232679974">
        <ele>17</ele>
        <time>2012-03-29T17:39:10Z</time>
      </trkpt>
      <trkpt lat="59.9965816498" lon="23.4230353158">
        <ele>17</ele>
        <time>2012-03-29T17:39:14Z</time>
      </trkpt>
      <trkpt lat="59.9967855815" lon="23.4228197334">
        <ele>17</ele>
        <time>2012-03-29T17:39:18Z</time>
      </trkpt>
      <trkpt lat="59.9969695642" lon="23.4226090962">
        <ele>17</ele>
        <time>2012-03-29T17:39:22Z</time>
      </trkpt>
      <trkpt lat="59.9971322569" lon="23.4224381893">
        <ele>17</ele>
        <time>2012-03-29T17:39:26Z</time>
      </trkpt>
      <trkpt lat="59.9971671256" lon="23.422397118">
        <ele>17</ele>
        <time>2012-03-29T17:39:27Z</time>
      </trkpt>
      <trkpt lat="59.9972639365" lon="23.4222761672">
        <ele>17</ele>
        <time>2012-03-29T17:39:30Z</time>
      </trkpt>
      <trkpt lat="59.9973255435" lon="23.4222005624">
        <ele>17</ele>
        <time>2012-03-29T17:39:32Z</time>
      </trkpt>
      <trkpt lat="59.9975088556" lon="23.4220034201">
        <ele>17</ele>
        <time>2012-03-29T17:39:37Z</time>
      </trkpt>
      <trkpt lat="59.9976905752" lon="23.4216945471">
        <ele>18</ele>
        <time>2012-03-29T17:39:42Z</time>
      </trkpt>
      <trkpt lat="59.9978684391" lon="23.4213802259">
        <ele>18.4</ele>
        <time>2012-03-29T17:39:46Z</time>
      </trkpt>
      <trkpt lat="59.9983868597" lon="23.4207932414">
        <ele>18.8</ele>
        <time>2012-03-29T17:39:54Z</time>
      </trkpt>
      <trkpt lat="59.9986121651" lon="23.4205678521">
        <ele>18.8</ele>
        <time>2012-03-29T17:39:57Z</time>
      </trkpt>
      <trkpt lat="59.9988293402" lon="23.4203028164">
        <ele>19</ele>
        <time>2012-03-29T17:40:00Z</time>
      </trkpt>
      <trkpt lat="59.9990090481" lon="23.4200352662">
        <ele>19</ele>
        <time>2012-03-29T17:40:03Z</time>
      </trkpt>
      <trkpt lat="59.9991621016" lon="23.4197710687">
        <ele>19</ele>
        <time>2012-03-29T17:40:06Z</time>
      </trkpt>
      <trkpt lat="59.9993245428" lon="23.41947502">
        <ele>19.2</ele>
        <time>2012-03-29T17:40:10Z</time>
      </trkpt>
      <trkpt lat="59.9994692982" lon="23.4191940587">
        <ele>19.2</ele>
        <time>2012-03-29T17:40:14Z</time>
      </trkpt>
      <trkpt lat="59.9996094436" lon="23.418904967">
        <ele>19.2</ele>
        <time>2012-03-29T17:40:18Z</time>
      </trkpt>
      <trkpt lat="59.9997557077" lon="23.4186355727">
        <ele>19.2</ele>
        <time>2012-03-29T17:40:22Z</time>
      </trkpt>
      <trkpt lat="59.9999185681" lon="23.4183749794">
        <ele>19.4</ele>
        <time>2012-03-29T17:40:27Z</time>
      </trkpt>
      <trkpt lat="59.999945474" lon="23.4183359198">
        <ele>19.6</ele>
        <time>2012-03-29T17:40:28Z</time>
      </trkpt>
      <trkpt lat="59.9999680213" lon="23.4182987041">
        <ele>19.8</ele>
        <time>2012-03-29T17:40:29Z</time>
      </trkpt>
      <trkpt lat="60.0000199052" lon="23.4182407014">
        <ele>20.4</ele>
        <time>2012-03-29T17:40:34Z</time>
      </trkpt>
      <trkpt lat="60.0000018003" lon="23.4182515979">
        <ele>22</ele>
        <time>2012-03-29T17:40:47Z</time>
      </trkpt>
      <trkpt lat="60.00010012" lon="23.4179855564">
        <ele>26.2</ele>
        <time>2012-03-29T17:42:00Z</time>
      </trkpt>
      <trkpt lat="60.0002632318" lon="23.4177356919">
        <ele>26.6</ele>
        <time>2012-03-29T17:42:05Z</time>
      </trkpt>
      <trkpt lat="60.0003676703" lon="23.4175543076">
        <ele>26.8</ele>
        <time>2012-03-29T17:42:08Z</time>
      </trkpt>
      <trkpt lat="60.0005355597" lon="23.4172998331">
        <ele>27</ele>
        <time>2012-03-29T17:42:12Z</time>
      </trkpt>
      <trkpt lat="60.000708143" lon="23.4170138427">
        <ele>27.2</ele>
        <time>2012-03-29T17:42:16Z</time>
      </trkpt>
      <trkpt lat="60.0008378949" lon="23.4167912194">
        <ele>27.2</ele>
        <time>2012-03-29T17:42:19Z</time>
      </trkpt>
      <trkpt lat="60.0008834924" lon="23.4167136869">
        <ele>27.2</ele>
        <time>2012-03-29T17:42:20Z</time>
      </trkpt>
      <trkpt lat="60.001045766" lon="23.4164139501">
        <ele>27.4</ele>
        <time>2012-03-29T17:42:24Z</time>
      </trkpt>
      <trkpt lat="60.0011767751" lon="23.4161010538">
        <ele>27.4</ele>
        <time>2012-03-29T17:42:28Z</time>
      </trkpt>
      <trkpt lat="60.0012535533" lon="23.4158622535">
        <ele>27.4</ele>
        <time>2012-03-29T17:42:31Z</time>
      </trkpt>
      <trkpt lat="60.0013305829" lon="23.4153918612">
        <ele>27.4</ele>
        <time>2012-03-29T17:42:36Z</time>
      </trkpt>
      <trkpt lat="60.0013714866" lon="23.4150169388">
        <ele>27.6</ele>
        <time>2012-03-29T17:42:40Z</time>
      </trkpt>
      <trkpt lat="60.0014028349" lon="23.4146625521">
        <ele>28</ele>
        <time>2012-03-29T17:42:43Z</time>
      </trkpt>
      <trkpt lat="60.0014303275" lon="23.4143065728">
        <ele>28.4</ele>
        <time>2012-03-29T17:42:46Z</time>
      </trkpt>
      <trkpt lat="60.0014405535" lon="23.4141980272">
        <ele>28.6</ele>
        <time>2012-03-29T17:42:47Z</time>
      </trkpt>
      <trkpt lat="60.0014728238" lon="23.4136760025">
        <ele>28.8</ele>
        <time>2012-03-29T17:42:51Z</time>
      </trkpt>
      <trkpt lat="60.0014939462" lon="23.4133061931">
        <ele>29</ele>
        <time>2012-03-29T17:42:54Z</time>
      </trkpt>
      <trkpt lat="60.0015305751" lon="23.4128607789">
        <ele>29.2</ele>
        <time>2012-03-29T17:42:58Z</time>
      </trkpt>
      <trkpt lat="60.0015725684" lon="23.4124005288">
        <ele>29.2</ele>
        <time>2012-03-29T17:43:02Z</time>
      </trkpt>
      <trkpt lat="60.0016185012" lon="23.4119707887">
        <ele>29.4</ele>
        <time>2012-03-29T17:43:06Z</time>
      </trkpt>
      <trkpt lat="60.0016691279" lon="23.4115417193">
        <ele>29.4</ele>
        <time>2012-03-29T17:43:10Z</time>
      </trkpt>
      <trkpt lat="60.0017215986" lon="23.4111131527">
        <ele>29.4</ele>
        <time>2012-03-29T17:43:14Z</time>
      </trkpt>
      <trkpt lat="60.0017827864" lon="23.4106868493">
        <ele>29.4</ele>
        <time>2012-03-29T17:43:18Z</time>
      </trkpt>
      <trkpt lat="60.0018467403" lon="23.4102878709">
        <ele>29.4</ele>
        <time>2012-03-29T17:43:22Z</time>
      </trkpt>
      <trkpt lat="60.0019039049" lon="23.4099393515">
        <ele>29.4</ele>
        <time>2012-03-29T17:43:26Z</time>
      </trkpt>
      <trkpt lat="60.0019671044" lon="23.4096008065">
        <ele>29.4</ele>
        <time>2012-03-29T17:43:30Z</time>
      </trkpt>
      <trkpt lat="60.0020542762" lon="23.409272739">
        <ele>30</ele>
        <time>2012-03-29T17:43:34Z</time>
      </trkpt>
      <trkpt lat="60.0021620674" lon="23.4089562384">
        <ele>30.6</ele>
        <time>2012-03-29T17:43:38Z</time>
      </trkpt>
      <trkpt lat="60.0022914839" lon="23.4086740198">
        <ele>31</ele>
        <time>2012-03-29T17:43:42Z</time>
      </trkpt>
      <trkpt lat="60.0024429449" lon="23.4084238201">
        <ele>32</ele>
        <time>2012-03-29T17:43:46Z</time>
      </trkpt>
      <trkpt lat="60.002605889" lon="23.4082018674">
        <ele>32.6</ele>
        <time>2012-03-29T17:43:50Z</time>
      </trkpt>
      <trkpt lat="60.0027250796" lon="23.4080395938">
        <ele>32.8</ele>
        <time>2012-03-29T17:43:53Z</time>
      </trkpt>
      <trkpt lat="60.0028910413" lon="23.4077414496">
        <ele>33.2</ele>
        <time>2012-03-29T17:43:58Z</time>
      </trkpt>
      <trkpt lat="60.0029409136" lon="23.4075774997">
        <ele>33.4</ele>
        <time>2012-03-29T17:44:01Z</time>
      </trkpt>
      <trkpt lat="60.0028948131" lon="23.4074865561">
        <ele>33.4</ele>
        <time>2012-03-29T17:44:04Z</time>
      </trkpt>
      <trkpt lat="60.0028855092" lon="23.4075034875">
        <ele>33.6</ele>
        <time>2012-03-29T17:44:05Z</time>
      </trkpt>
      <trkpt lat="60.0028788037" lon="23.4075209219">
        <ele>33.8</ele>
        <time>2012-03-29T17:44:08Z</time>
      </trkpt>
      <trkpt lat="60.0029290951" lon="23.4075907431">
        <ele>46</ele>
        <time>2012-03-29T17:48:14Z</time>
      </trkpt>
      <trkpt lat="60.0029367226" lon="23.4076852909">
        <ele>46</ele>
        <time>2012-03-29T17:48:16Z</time>
      </trkpt>
      <trkpt lat="60.0029295142" lon="23.4077439642">
        <ele>46</ele>
        <time>2012-03-29T17:48:17Z</time>
      </trkpt>
      <trkpt lat="60.0027465373" lon="23.4080172142">
        <ele>46</ele>
        <time>2012-03-29T17:48:22Z</time>
      </trkpt>
      <trkpt lat="60.002591556" lon="23.4082204752">
        <ele>46</ele>
        <time>2012-03-29T17:48:25Z</time>
      </trkpt>
      <trkpt lat="60.0025343914" lon="23.4082832557">
        <ele>46</ele>
        <time>2012-03-29T17:48:26Z</time>
      </trkpt>
      <trkpt lat="60.0023533424" lon="23.4084660649">
        <ele>45.4</ele>
        <time>2012-03-29T17:48:29Z</time>
      </trkpt>
      <trkpt lat="60.0022947529" lon="23.4085430107">
        <ele>45.2</ele>
        <time>2012-03-29T17:48:30Z</time>
      </trkpt>
      <trkpt lat="60.0021789989" lon="23.40870914">
        <ele>45</ele>
        <time>2012-03-29T17:48:32Z</time>
      </trkpt>
      <trkpt lat="60.0020068346" lon="23.4091499441">
        <ele>44.2</ele>
        <time>2012-03-29T17:48:36Z</time>
      </trkpt>
      <trkpt lat="60.0019171483" lon="23.4095751579">
        <ele>43.6</ele>
        <time>2012-03-29T17:48:39Z</time>
      </trkpt>
      <trkpt lat="60.0018376041" lon="23.4100473942">
        <ele>43.2</ele>
        <time>2012-03-29T17:48:42Z</time>
      </trkpt>
      <trkpt lat="60.0017566349" lon="23.4105437703">
        <ele>42.6</ele>
        <time>2012-03-29T17:48:45Z</time>
      </trkpt>
      <trkpt lat="60.0016998894" lon="23.4108916191">
        <ele>42</ele>
        <time>2012-03-29T17:48:47Z</time>
      </trkpt>
      <trkpt lat="60.0016499333" lon="23.411255645">
        <ele>41.6</ele>
        <time>2012-03-29T17:48:49Z</time>
      </trkpt>
      <trkpt lat="60.0016018212" lon="23.4116243648">
        <ele>41.4</ele>
        <time>2012-03-29T17:48:51Z</time>
      </trkpt>
      <trkpt lat="60.0015576486" lon="23.4119855409">
        <ele>41</ele>
        <time>2012-03-29T17:48:53Z</time>
      </trkpt>
      <trkpt lat="60.0015227799" lon="23.4123464655">
        <ele>40.8</ele>
        <time>2012-03-29T17:48:55Z</time>
      </trkpt>
      <trkpt lat="60.0014853128" lon="23.4128731841">
        <ele>40.2</ele>
        <time>2012-03-29T17:48:58Z</time>
      </trkpt>
      <trkpt lat="60.0014568143" lon="23.4132524651">
        <ele>39.6</ele>
        <time>2012-03-29T17:49:00Z</time>
      </trkpt>
      <trkpt lat="60.0014313334" lon="23.4136120486">
        <ele>39.2</ele>
        <time>2012-03-29T17:49:02Z</time>
      </trkpt>
      <trkpt lat="60.0013962132" lon="23.4141419523">
        <ele>38.8</ele>
        <time>2012-03-29T17:49:05Z</time>
      </trkpt>
      <trkpt lat="60.0013672957" lon="23.4145892943">
        <ele>38.4</ele>
        <time>2012-03-29T17:49:08Z</time>
      </trkpt>
      <trkpt lat="60.0013397192" lon="23.4150086408">
        <ele>38.2</ele>
        <time>2012-03-29T17:49:11Z</time>
      </trkpt>
      <trkpt lat="60.0013086224" lon="23.4153993211">
        <ele>38</ele>
        <time>2012-03-29T17:49:14Z</time>
      </trkpt>
      <trkpt lat="60.0012718258" lon="23.4156616746">
        <ele>38</ele>
        <time>2012-03-29T17:49:16Z</time>
      </trkpt>
      <trkpt lat="60.0011382183" lon="23.4161657621">
        <ele>37.8</ele>
        <time>2012-03-29T17:49:20Z</time>
      </trkpt>
      <trkpt lat="60.0010953868" lon="23.4162678536">
        <ele>37.8</ele>
        <time>2012-03-29T17:49:21Z</time>
      </trkpt>
      <trkpt lat="60.0009446803" lon="23.4165944124">
        <ele>37.8</ele>
        <time>2012-03-29T17:49:24Z</time>
      </trkpt>
      <trkpt lat="60.0007754497" lon="23.4168954903">
        <ele>37.4</ele>
        <time>2012-03-29T17:49:27Z</time>
      </trkpt>
      <trkpt lat="60.0005910479" lon="23.4171969034">
        <ele>36.8</ele>
        <time>2012-03-29T17:49:30Z</time>
      </trkpt>
      <trkpt lat="60.0004055564" lon="23.4174916948">
        <ele>36.6</ele>
        <time>2012-03-29T17:49:33Z</time>
      </trkpt>
      <trkpt lat="60.0002180533" lon="23.4177732428">
        <ele>35.6</ele>
        <time>2012-03-29T17:49:36Z</time>
      </trkpt>
      <trkpt lat="60.0000350765" lon="23.4180603229">
        <ele>35</ele>
        <time>2012-03-29T17:49:39Z</time>
      </trkpt>
      <trkpt lat="59.9998363416" lon="23.4183656755">
        <ele>34</ele>
        <time>2012-03-29T17:49:42Z</time>
      </trkpt>
      <trkpt lat="59.9996711344" lon="23.4186673401">
        <ele>33.2</ele>
        <time>2012-03-29T17:49:45Z</time>
      </trkpt>
      <trkpt lat="59.9995100343" lon="23.4189555937">
        <ele>32.4</ele>
        <time>2012-03-29T17:49:47Z</time>
      </trkpt>
      <trkpt lat="59.9993725711" lon="23.4192051228">
        <ele>31.8</ele>
        <time>2012-03-29T17:49:49Z</time>
      </trkpt>
      <trkpt lat="59.9992317552" lon="23.4194540652">
        <ele>31</ele>
        <time>2012-03-29T17:49:51Z</time>
      </trkpt>
      <trkpt lat="59.9991444158" lon="23.4195489484">
        <ele>30.4</ele>
        <time>2012-03-29T17:49:52Z</time>
      </trkpt>
      <trkpt lat="59.9989748499" lon="23.4197299974">
        <ele>29.8</ele>
        <time>2012-03-29T17:49:54Z</time>
      </trkpt>
      <trkpt lat="59.9987999197" lon="23.4199191769">
        <ele>28.6</ele>
        <time>2012-03-29T17:49:56Z</time>
      </trkpt>
      <trkpt lat="59.9986290127" lon="23.4200992201">
        <ele>27.8</ele>
        <time>2012-03-29T17:49:58Z</time>
      </trkpt>
      <trkpt lat="59.998453831" lon="23.4202759944">
        <ele>26.8</ele>
        <time>2012-03-29T17:50:00Z</time>
      </trkpt>
      <trkpt lat="59.9983739515" lon="23.4203472405">
        <ele>26.2</ele>
        <time>2012-03-29T17:50:01Z</time>
      </trkpt>
      <trkpt lat="59.9980385079" lon="23.4204492482">
        <ele>24.4</ele>
        <time>2012-03-29T17:50:05Z</time>
      </trkpt>
      <trkpt lat="59.9977819379" lon="23.4204318139">
        <ele>23.2</ele>
        <time>2012-03-29T17:50:08Z</time>
      </trkpt>
      <trkpt lat="59.9977018908" lon="23.4204500864">
        <ele>22.8</ele>
        <time>2012-03-29T17:50:09Z</time>
      </trkpt>
      <trkpt lat="59.9974650183" lon="23.4205830234">
        <ele>21.6</ele>
        <time>2012-03-29T17:50:12Z</time>
      </trkpt>
      <trkpt lat="59.9972274752" lon="23.4207101768">
        <ele>20.4</ele>
        <time>2012-03-29T17:50:15Z</time>
      </trkpt>
      <trkpt lat="59.997153044" lon="23.4207337299">
        <ele>20.2</ele>
        <time>2012-03-29T17:50:16Z</time>
      </trkpt>
      <trkpt lat="59.9969156686" lon="23.4206981068">
        <ele>19.4</ele>
        <time>2012-03-29T17:50:19Z</time>
      </trkpt>
      <trkpt lat="59.9967689853" lon="23.4206016312">
        <ele>19</ele>
        <time>2012-03-29T17:50:21Z</time>
      </trkpt>
      <trkpt lat="59.9965005969" lon="23.4203920837">
        <ele>18.4</ele>
        <time>2012-03-29T17:50:25Z</time>
      </trkpt>
      <trkpt lat="59.9963053824" lon="23.4202347554">
        <ele>17.6</ele>
        <time>2012-03-29T17:50:28Z</time>
      </trkpt>
      <trkpt lat="59.9962361479" lon="23.420189577">
        <ele>17.4</ele>
        <time>2012-03-29T17:50:29Z</time>
      </trkpt>
      <trkpt lat="59.9959218267" lon="23.4202194165">
        <ele>16.6</ele>
        <time>2012-03-29T17:50:33Z</time>
      </trkpt>
      <trkpt lat="59.9957468964" lon="23.4205351627">
        <ele>16.4</ele>
        <time>2012-03-29T17:50:36Z</time>
      </trkpt>
      <trkpt lat="59.9956706211" lon="23.4208038026">
        <ele>16.2</ele>
        <time>2012-03-29T17:50:38Z</time>
      </trkpt>
      <trkpt lat="59.9955105268" lon="23.4214715886">
        <ele>15.8</ele>
        <time>2012-03-29T17:50:43Z</time>
      </trkpt>
      <trkpt lat="59.9954060884" lon="23.4218745903">
        <ele>15.8</ele>
        <time>2012-03-29T17:50:46Z</time>
      </trkpt>
      <trkpt lat="59.9953030748" lon="23.4222942721">
        <ele>15.6</ele>
        <time>2012-03-29T17:50:49Z</time>
      </trkpt>
      <trkpt lat="59.9952759175" lon="23.4224399495">
        <ele>15.6</ele>
        <time>2012-03-29T17:50:50Z</time>
      </trkpt>
      <trkpt lat="59.9952382827" lon="23.4230240841">
        <ele>15.6</ele>
        <time>2012-03-29T17:50:54Z</time>
      </trkpt>
      <trkpt lat="59.9952319125" lon="23.4231612958">
        <ele>15.6</ele>
        <time>2012-03-29T17:50:55Z</time>
      </trkpt>
      <trkpt lat="59.9952179985" lon="23.42342608">
        <ele>15.6</ele>
        <time>2012-03-29T17:50:57Z</time>
      </trkpt>
      <trkpt lat="59.9952054257" lon="23.4237004196">
        <ele>15.6</ele>
        <time>2012-03-29T17:50:59Z</time>
      </trkpt>
      <trkpt lat="59.9950604188" lon="23.4241279803">
        <ele>15.4</ele>
        <time>2012-03-29T17:51:03Z</time>
      </trkpt>
      <trkpt lat="59.9950024999" lon="23.4241858154">
        <ele>15.4</ele>
        <time>2012-03-29T17:51:04Z</time>
      </trkpt>
      <trkpt lat="59.9947535575" lon="23.4243979613">
        <ele>15.4</ele>
        <time>2012-03-29T17:51:08Z</time>
      </trkpt>
      <trkpt lat="59.9946958062" lon="23.4244540362">
        <ele>15.4</ele>
        <time>2012-03-29T17:51:09Z</time>
      </trkpt>
      <trkpt lat="59.9944658068" lon="23.424788977">
        <ele>15.4</ele>
        <time>2012-03-29T17:51:13Z</time>
      </trkpt>
      <trkpt lat="59.9943123342" lon="23.4250952516">
        <ele>15.4</ele>
        <time>2012-03-29T17:51:16Z</time>
      </trkpt>
      <trkpt lat="59.9941915511" lon="23.4254270072">
        <ele>15.4</ele>
        <time>2012-03-29T17:51:19Z</time>
      </trkpt>
      <trkpt lat="59.9940868611" lon="23.4257425857">
        <ele>15.4</ele>
        <time>2012-03-29T17:51:22Z</time>
      </trkpt>
      <trkpt lat="59.9939420219" lon="23.4261126466">
        <ele>15.4</ele>
        <time>2012-03-29T17:51:26Z</time>
      </trkpt>
      <trkpt lat="59.9937898904" lon="23.4264640997">
        <ele>15.4</ele>
        <time>2012-03-29T17:51:30Z</time>
      </trkpt>
      <trkpt lat="59.9936354958" lon="23.426820079">
        <ele>16</ele>
        <time>2012-03-29T17:51:34Z</time>
      </trkpt>
      <trkpt lat="59.9935013854" lon="23.4270930774">
        <ele>16.4</ele>
        <time>2012-03-29T17:51:37Z</time>
      </trkpt>
      <trkpt lat="59.9934499206" lon="23.4271609708">
        <ele>16.6</ele>
        <time>2012-03-29T17:51:38Z</time>
      </trkpt>
      <trkpt lat="59.9932733139" lon="23.4272708575">
        <ele>16.8</ele>
        <time>2012-03-29T17:51:41Z</time>
      </trkpt>
      <trkpt lat="59.9932112879" lon="23.4272815026">
        <ele>17</ele>
        <time>2012-03-29T17:51:42Z</time>
      </trkpt>
      <trkpt lat="59.9928989783" lon="23.42728452">
        <ele>18</ele>
        <time>2012-03-29T17:51:47Z</time>
      </trkpt>
      <trkpt lat="59.9927126486" lon="23.4272706899">
        <ele>18.4</ele>
        <time>2012-03-29T17:51:50Z</time>
      </trkpt>
      <trkpt lat="59.9924915341" lon="23.4272545967">
        <ele>19</ele>
        <time>2012-03-29T17:51:54Z</time>
      </trkpt>
      <trkpt lat="59.9924378899" lon="23.4272481426">
        <ele>19.2</ele>
        <time>2012-03-29T17:51:55Z</time>
      </trkpt>
      <trkpt lat="59.9922761193" lon="23.4271950852">
        <ele>19.8</ele>
        <time>2012-03-29T17:51:58Z</time>
      </trkpt>
      <trkpt lat="59.9920250814" lon="23.4269415327">
        <ele>20.6</ele>
        <time>2012-03-29T17:52:03Z</time>
      </trkpt>
      <trkpt lat="59.9919794838" lon="23.4268650898">
        <ele>20.6</ele>
        <time>2012-03-29T17:52:04Z</time>
      </trkpt>
      <trkpt lat="59.991787706" lon="23.4265656045">
        <ele>21.8</ele>
        <time>2012-03-29T17:52:08Z</time>
      </trkpt>
      <trkpt lat="59.9916903921" lon="23.4264447375">
        <ele>22</ele>
        <time>2012-03-29T17:52:10Z</time>
      </trkpt>
      <trkpt lat="59.9914168907" lon="23.4262144867">
        <ele>22.8</ele>
        <time>2012-03-29T17:52:15Z</time>
      </trkpt>
      <trkpt lat="59.9912443912" lon="23.4261058573">
        <ele>23</ele>
        <time>2012-03-29T17:52:18Z</time>
      </trkpt>
      <trkpt lat="59.9910620849" lon="23.4260477707">
        <ele>23.2</ele>
        <time>2012-03-29T17:52:21Z</time>
      </trkpt>
      <trkpt lat="59.9908746656" lon="23.4260002453">
        <ele>23.2</ele>
        <time>2012-03-29T17:52:24Z</time>
      </trkpt>
      <trkpt lat="59.9906873301" lon="23.4259770275">
        <ele>23.4</ele>
        <time>2012-03-29T17:52:27Z</time>
      </trkpt>
      <trkpt lat="59.99048826" lon="23.4259468526">
        <ele>23.4</ele>
        <time>2012-03-29T17:52:30Z</time>
      </trkpt>
      <trkpt lat="59.9902703306" lon="23.425916594">
        <ele>23.6</ele>
        <time>2012-03-29T17:52:33Z</time>
      </trkpt>
      <trkpt lat="59.990051563" lon="23.425878624">
        <ele>23.6</ele>
        <time>2012-03-29T17:52:36Z</time>
      </trkpt>
      <trkpt lat="59.9898347233" lon="23.4258682304">
        <ele>23.6</ele>
        <time>2012-03-29T17:52:39Z</time>
      </trkpt>
      <trkpt lat="59.9896205657" lon="23.4258544841">
        <ele>23.6</ele>
        <time>2012-03-29T17:52:42Z</time>
      </trkpt>
      <trkpt lat="59.9894079169" lon="23.4258348704">
        <ele>23.6</ele>
        <time>2012-03-29T17:52:45Z</time>
      </trkpt>
      <trkpt lat="59.9891867186" lon="23.4258046118">
        <ele>23.6</ele>
        <time>2012-03-29T17:52:48Z</time>
      </trkpt>
      <trkpt lat="59.9889825355" lon="23.4257751913">
        <ele>23.6</ele>
        <time>2012-03-29T17:52:51Z</time>
      </trkpt>
      <trkpt lat="59.9887964573" lon="23.4257560806">
        <ele>23.6</ele>
        <time>2012-03-29T17:52:54Z</time>
      </trkpt>
      <trkpt lat="59.9885638596" lon="23.425711908">
        <ele>23.6</ele>
        <time>2012-03-29T17:52:58Z</time>
      </trkpt>
      <trkpt lat="59.9883833135" lon="23.4256636282">
        <ele>23.6</ele>
        <time>2012-03-29T17:53:01Z</time>
      </trkpt>
      <trkpt lat="59.9881906136" lon="23.4256194556">
        <ele>23.6</ele>
        <time>2012-03-29T17:53:04Z</time>
      </trkpt>
      <trkpt lat="59.9879825748" lon="23.4255829943">
        <ele>23.6</ele>
        <time>2012-03-29T17:53:07Z</time>
      </trkpt>
      <trkpt lat="59.9877714348" lon="23.4255394923">
        <ele>23.6</ele>
        <time>2012-03-29T17:53:10Z</time>
      </trkpt>
      <trkpt lat="59.9875417707" lon="23.4254656477">
        <ele>23.6</ele>
        <time>2012-03-29T17:53:13Z</time>
      </trkpt>
      <trkpt lat="59.9874695187" lon="23.4254414241">
        <ele>23.6</ele>
        <time>2012-03-29T17:53:14Z</time>
      </trkpt>
      <trkpt lat="59.9873151241" lon="23.4253815773">
        <ele>23.6</ele>
        <time>2012-03-29T17:53:16Z</time>
      </trkpt>
      <trkpt lat="59.9870945125" lon="23.4252718582">
        <ele>23.6</ele>
        <time>2012-03-29T17:53:19Z</time>
      </trkpt>
      <trkpt lat="59.9868880663" lon="23.4251731194">
        <ele>23.6</ele>
        <time>2012-03-29T17:53:22Z</time>
      </trkpt>
      <trkpt lat="59.986693271" lon="23.425088127">
        <ele>23.6</ele>
        <time>2012-03-29T17:53:25Z</time>
      </trkpt>
      <trkpt lat="59.9864948714" lon="23.4250421103">
        <ele>23</ele>
        <time>2012-03-29T17:53:28Z</time>
      </trkpt>
      <trkpt lat="59.9862868326" lon="23.4250423618">
        <ele>22.6</ele>
        <time>2012-03-29T17:53:31Z</time>
      </trkpt>
      <trkpt lat="59.9860788777" lon="23.4250436191">
        <ele>22.4</ele>
        <time>2012-03-29T17:53:34Z</time>
      </trkpt>
      <trkpt lat="59.9858796399" lon="23.4250548508">
        <ele>22.2</ele>
        <time>2012-03-29T17:53:37Z</time>
      </trkpt>
      <trkpt lat="59.985680486" lon="23.4250577845">
        <ele>22</ele>
        <time>2012-03-29T17:53:40Z</time>
      </trkpt>
      <trkpt lat="59.9854814159" lon="23.4250599638">
        <ele>22</ele>
        <time>2012-03-29T17:53:43Z</time>
      </trkpt>
      <trkpt lat="59.9852060704" lon="23.4250651606">
        <ele>21.8</ele>
        <time>2012-03-29T17:53:47Z</time>
      </trkpt>
      <trkpt lat="59.9851422842" lon="23.4250789907">
        <ele>21.8</ele>
        <time>2012-03-29T17:53:48Z</time>
      </trkpt>
      <trkpt lat="59.9849302221" lon="23.4251608819">
        <ele>21.8</ele>
        <time>2012-03-29T17:53:51Z</time>
      </trkpt>
      <trkpt lat="59.9848536116" lon="23.4251732871">
        <ele>21.8</ele>
        <time>2012-03-29T17:53:52Z</time>
      </trkpt>
      <trkpt lat="59.9846220197" lon="23.4251526676">
        <ele>21.8</ele>
        <time>2012-03-29T17:53:55Z</time>
      </trkpt>
      <trkpt lat="59.9845452414" lon="23.4251626421">
        <ele>21.6</ele>
        <time>2012-03-29T17:53:56Z</time>
      </trkpt>
      <trkpt lat="59.9843339338" lon="23.4251909729">
        <ele>21.6</ele>
        <time>2012-03-29T17:53:59Z</time>
      </trkpt>
      <trkpt lat="59.9842707342" lon="23.4252544239">
        <ele>21.6</ele>
        <time>2012-03-29T17:54:00Z</time>
      </trkpt>
      <trkpt lat="59.9841476879" lon="23.4253799009">
        <ele>21.2</ele>
        <time>2012-03-29T17:54:02Z</time>
      </trkpt>
      <trkpt lat="59.9839199517" lon="23.4253714352">
        <ele>20.8</ele>
        <time>2012-03-29T17:54:05Z</time>
      </trkpt>
      <trkpt lat="59.9836870187" lon="23.4253609578">
        <ele>20.4</ele>
        <time>2012-03-29T17:54:08Z</time>
      </trkpt>
      <trkpt lat="59.9833524971" lon="23.4255872691">
        <ele>20</ele>
        <time>2012-03-29T17:54:14Z</time>
      </trkpt>
      <trkpt lat="59.9833544249" lon="23.4258135804">
        <ele>20</ele>
        <time>2012-03-29T17:54:16Z</time>
      </trkpt>
      <trkpt lat="59.9834115057" lon="23.4262401353">
        <ele>19.8</ele>
        <time>2012-03-29T17:54:20Z</time>
      </trkpt>
      <trkpt lat="59.9833985975" lon="23.4263482618">
        <ele>19.8</ele>
        <time>2012-03-29T17:54:21Z</time>
      </trkpt>
      <trkpt lat="59.9833214002" lon="23.4268099369">
        <ele>19.8</ele>
        <time>2012-03-29T17:54:25Z</time>
      </trkpt>
      <trkpt lat="59.9832574463" lon="23.4271811712">
        <ele>19.6</ele>
        <time>2012-03-29T17:54:28Z</time>
      </trkpt>
      <trkpt lat="59.9831876251" lon="23.4275669063">
        <ele>19.6</ele>
        <time>2012-03-29T17:54:31Z</time>
      </trkpt>
      <trkpt lat="59.9831150379" lon="23.4279414095">
        <ele>19.6</ele>
        <time>2012-03-29T17:54:34Z</time>
      </trkpt>
      <trkpt lat="59.9830500781" lon="23.4283234565">
        <ele>19.6</ele>
        <time>2012-03-29T17:54:37Z</time>
      </trkpt>
      <trkpt lat="59.9829903152" lon="23.4287065932">
        <ele>19.6</ele>
        <time>2012-03-29T17:54:40Z</time>
      </trkpt>
      <trkpt lat="59.982926948" lon="23.429078079">
        <ele>19.6</ele>
        <time>2012-03-29T17:54:43Z</time>
      </trkpt>
      <trkpt lat="59.9828753993" lon="23.4294649875">
        <ele>19.6</ele>
        <time>2012-03-29T17:54:46Z</time>
      </trkpt>
      <trkpt lat="59.982818151" lon="23.4298497167">
        <ele>19.6</ele>
        <time>2012-03-29T17:54:49Z</time>
      </trkpt>
      <trkpt lat="59.9827951845" lon="23.4299694103">
        <ele>19.6</ele>
        <time>2012-03-29T17:54:50Z</time>
      </trkpt>
      <trkpt lat="59.9826838729" lon="23.4302341945">
        <ele>19.6</ele>
        <time>2012-03-29T17:54:53Z</time>
      </trkpt>
      <trkpt lat="59.9826378563" lon="23.4303059435">
        <ele>19.6</ele>
        <time>2012-03-29T17:54:54Z</time>
      </trkpt>
      <trkpt lat="59.9825961144" lon="23.4303772735">
        <ele>19.6</ele>
        <time>2012-03-29T17:54:55Z</time>
      </trkpt>
      <trkpt lat="59.9825474994" lon="23.4306031657">
        <ele>19.6</ele>
        <time>2012-03-29T17:54:58Z</time>
      </trkpt>
      <trkpt lat="59.9826492557" lon="23.4308024035">
        <ele>19.6</ele>
        <time>2012-03-29T17:55:01Z</time>
      </trkpt>
      <trkpt lat="59.9826813583" lon="23.4311057444">
        <ele>19.6</ele>
        <time>2012-03-29T17:55:04Z</time>
      </trkpt>
      <trkpt lat="59.9826683664" lon="23.4312217499">
        <ele>19.6</ele>
        <time>2012-03-29T17:55:05Z</time>
      </trkpt>
      <trkpt lat="59.9826194161" lon="23.4315950798">
        <ele>19.6</ele>
        <time>2012-03-29T17:55:08Z</time>
      </trkpt>
      <trkpt lat="59.982567113" lon="23.4320005961">
        <ele>19.6</ele>
        <time>2012-03-29T17:55:11Z</time>
      </trkpt>
      <trkpt lat="59.9825131336" lon="23.4324088784">
        <ele>19.6</ele>
        <time>2012-03-29T17:55:14Z</time>
      </trkpt>
      <trkpt lat="59.9824644348" lon="23.4328380317">
        <ele>19.6</ele>
        <time>2012-03-29T17:55:17Z</time>
      </trkpt>
      <trkpt lat="59.982415233" lon="23.4332724656">
        <ele>19.6</ele>
        <time>2012-03-29T17:55:20Z</time>
      </trkpt>
      <trkpt lat="59.9823682106" lon="23.4336939075">
        <ele>19.6</ele>
        <time>2012-03-29T17:55:23Z</time>
      </trkpt>
      <trkpt lat="59.9823225292" lon="23.434123899">
        <ele>19.6</ele>
        <time>2012-03-29T17:55:26Z</time>
      </trkpt>
      <trkpt lat="59.9822827152" lon="23.4345446704">
        <ele>19.6</ele>
        <time>2012-03-29T17:55:29Z</time>
      </trkpt>
      <trkpt lat="59.9822459186" lon="23.4349749971">
        <ele>19.6</ele>
        <time>2012-03-29T17:55:32Z</time>
      </trkpt>
      <trkpt lat="59.9822131454" lon="23.435397864">
        <ele>19.6</ele>
        <time>2012-03-29T17:55:35Z</time>
      </trkpt>
      <trkpt lat="59.982185569" lon="23.4358209823">
        <ele>19.6</ele>
        <time>2012-03-29T17:55:38Z</time>
      </trkpt>
      <trkpt lat="59.9821460064" lon="23.4365135787">
        <ele>19.6</ele>
        <time>2012-03-29T17:55:43Z</time>
      </trkpt>
      <trkpt lat="59.9821257222" lon="23.4368911833">
        <ele>19.6</ele>
        <time>2012-03-29T17:55:46Z</time>
      </trkpt>
      <trkpt lat="59.9821132332" lon="23.4372869766">
        <ele>19.6</ele>
        <time>2012-03-29T17:55:49Z</time>
      </trkpt>
      <trkpt lat="59.9820983134" lon="23.4377232545">
        <ele>19.6</ele>
        <time>2012-03-29T17:55:52Z</time>
      </trkpt>
      <trkpt lat="59.9820893447" lon="23.4381757933">
        <ele>19.6</ele>
        <time>2012-03-29T17:55:55Z</time>
      </trkpt>
      <trkpt lat="59.9820862434" lon="23.4386135799">
        <ele>19.6</ele>
        <time>2012-03-29T17:55:58Z</time>
      </trkpt>
      <trkpt lat="59.9820840642" lon="23.4390496063">
        <ele>19.6</ele>
        <time>2012-03-29T17:56:01Z</time>
      </trkpt>
      <trkpt lat="59.9820831421" lon="23.4394689528">
        <ele>19.6</ele>
        <time>2012-03-29T17:56:04Z</time>
      </trkpt>
      <trkpt lat="59.9820821363" lon="23.4396151331">
        <ele>19.6</ele>
        <time>2012-03-29T17:56:05Z</time>
      </trkpt>
      <trkpt lat="59.9820873331" lon="23.4400270197">
        <ele>19.6</ele>
        <time>2012-03-29T17:56:08Z</time>
      </trkpt>
      <trkpt lat="59.9820941224" lon="23.4404398283">
        <ele>19.6</ele>
        <time>2012-03-29T17:56:11Z</time>
      </trkpt>
      <trkpt lat="59.9821053542" lon="23.4408486974">
        <ele>19.6</ele>
        <time>2012-03-29T17:56:14Z</time>
      </trkpt>
      <trkpt lat="59.9821218665" lon="23.44126796">
        <ele>19.6</ele>
        <time>2012-03-29T17:56:17Z</time>
      </trkpt>
      <trkpt lat="59.9821412287" lon="23.4416989573">
        <ele>19.6</ele>
        <time>2012-03-29T17:56:20Z</time>
      </trkpt>
      <trkpt lat="59.9821667097" lon="23.4421303737">
        <ele>19.6</ele>
        <time>2012-03-29T17:56:23Z</time>
      </trkpt>
      <trkpt lat="59.9821918554" lon="23.4425615386">
        <ele>19.6</ele>
        <time>2012-03-29T17:56:26Z</time>
      </trkpt>
      <trkpt lat="59.9822172525" lon="23.4429918654">
        <ele>19.6</ele>
        <time>2012-03-29T17:56:29Z</time>
      </trkpt>
      <trkpt lat="59.9822402189" lon="23.4434397103">
        <ele>19.6</ele>
        <time>2012-03-29T17:56:32Z</time>
      </trkpt>
      <trkpt lat="59.9822669572" lon="23.443876072">
        <ele>19.6</ele>
        <time>2012-03-29T17:56:35Z</time>
      </trkpt>
      <trkpt lat="59.9822936955" lon="23.444312769">
        <ele>19.6</ele>
        <time>2012-03-29T17:56:38Z</time>
      </trkpt>
      <trkpt lat="59.9823142311" lon="23.4447420061">
        <ele>19.6</ele>
        <time>2012-03-29T17:56:41Z</time>
      </trkpt>
      <trkpt lat="59.9823357726" lon="23.445180128">
        <ele>19.6</ele>
        <time>2012-03-29T17:56:44Z</time>
      </trkpt>
      <trkpt lat="59.9823536261" lon="23.4456299846">
        <ele>19.6</ele>
        <time>2012-03-29T17:56:47Z</time>
      </trkpt>
      <trkpt lat="59.9823713957" lon="23.44607389">
        <ele>19.4</ele>
        <time>2012-03-29T17:56:50Z</time>
      </trkpt>
      <trkpt lat="59.9823858964" lon="23.4465188851">
        <ele>18.8</ele>
        <time>2012-03-29T17:56:53Z</time>
      </trkpt>
      <trkpt lat="59.9824004809" lon="23.4469572584">
        <ele>18.6</ele>
        <time>2012-03-29T17:56:56Z</time>
      </trkpt>
      <trkpt lat="59.9824105392" lon="23.4473838133">
        <ele>18.2</ele>
        <time>2012-03-29T17:56:59Z</time>
      </trkpt>
      <trkpt lat="59.982420346" lon="23.4478202589">
        <ele>18</ele>
        <time>2012-03-29T17:57:02Z</time>
      </trkpt>
      <trkpt lat="59.9824325836" lon="23.4482487416">
        <ele>17.8</ele>
        <time>2012-03-29T17:57:05Z</time>
      </trkpt>
      <trkpt lat="59.9824459946" lon="23.4486771405">
        <ele>17.8</ele>
        <time>2012-03-29T17:57:08Z</time>
      </trkpt>
      <trkpt lat="59.9824622555" lon="23.4490959002">
        <ele>17.8</ele>
        <time>2012-03-29T17:57:11Z</time>
      </trkpt>
      <trkpt lat="59.9824808633" lon="23.4494945434">
        <ele>17.6</ele>
        <time>2012-03-29T17:57:14Z</time>
      </trkpt>
      <trkpt lat="59.9825055061" lon="23.4499062623">
        <ele>17.6</ele>
        <time>2012-03-29T17:57:17Z</time>
      </trkpt>
      <trkpt lat="59.9825361838" lon="23.4503148799">
        <ele>17.6</ele>
        <time>2012-03-29T17:57:20Z</time>
      </trkpt>
      <trkpt lat="59.9825704658" lon="23.4507164568">
        <ele>17.6</ele>
        <time>2012-03-29T17:57:23Z</time>
      </trkpt>
      <trkpt lat="59.9826096093" lon="23.4511156028">
        <ele>17.6</ele>
        <time>2012-03-29T17:57:26Z</time>
      </trkpt>
      <trkpt lat="59.9826540334" lon="23.451497566">
        <ele>17.6</ele>
        <time>2012-03-29T17:57:29Z</time>
      </trkpt>
      <trkpt lat="59.9827017264" lon="23.4518791101">
        <ele>17.6</ele>
        <time>2012-03-29T17:57:32Z</time>
      </trkpt>
      <trkpt lat="59.9827518501" lon="23.4522501768">
        <ele>17.6</ele>
        <time>2012-03-29T17:57:35Z</time>
      </trkpt>
      <trkpt lat="59.9828038179" lon="23.452612694">
        <ele>17.6</ele>
        <time>2012-03-29T17:57:38Z</time>
      </trkpt>
      <trkpt lat="59.9828569592" lon="23.4529707688">
        <ele>17.6</ele>
        <time>2012-03-29T17:57:41Z</time>
      </trkpt>
      <trkpt lat="59.9829208292" lon="23.4533164383">
        <ele>17.6</ele>
        <time>2012-03-29T17:57:44Z</time>
      </trkpt>
      <trkpt lat="59.9830031395" lon="23.4537522133">
        <ele>17.6</ele>
        <time>2012-03-29T17:57:48Z</time>
      </trkpt>
      <trkpt lat="59.9830817617" lon="23.4541605795">
        <ele>17.6</ele>
        <time>2012-03-29T17:57:52Z</time>
      </trkpt>
      <trkpt lat="59.983164072" lon="23.4545494996">
        <ele>17.6</ele>
        <time>2012-03-29T17:57:56Z</time>
      </trkpt>
      <trkpt lat="59.9832517466" lon="23.4549293673">
        <ele>17.6</ele>
        <time>2012-03-29T17:58:00Z</time>
      </trkpt>
      <trkpt lat="59.9833386669" lon="23.4552997635">
        <ele>17.6</ele>
        <time>2012-03-29T17:58:04Z</time>
      </trkpt>
      <trkpt lat="59.9834345559" lon="23.4556855824">
        <ele>17.6</ele>
        <time>2012-03-29T17:58:08Z</time>
      </trkpt>
      <trkpt lat="59.9835407546" lon="23.4560670426">
        <ele>17.6</ele>
        <time>2012-03-29T17:58:12Z</time>
      </trkpt>
      <trkpt lat="59.9836463665" lon="23.4564400372">
        <ele>18.2</ele>
        <time>2012-03-29T17:58:16Z</time>
      </trkpt>
      <trkpt lat="59.9837585163" lon="23.4568266104">
        <ele>18.6</ele>
        <time>2012-03-29T17:58:20Z</time>
      </trkpt>
      <trkpt lat="59.9838616137" lon="23.4571779797">
        <ele>19</ele>
        <time>2012-03-29T17:58:24Z</time>
      </trkpt>
      <trkpt lat="59.9839655492" lon="23.4575549137">
        <ele>19.2</ele>
        <time>2012-03-29T17:58:28Z</time>
      </trkpt>
      <trkpt lat="59.984072167" lon="23.4579465999">
        <ele>19.2</ele>
        <time>2012-03-29T17:58:32Z</time>
      </trkpt>
      <trkpt lat="59.9841768569" lon="23.4583444049">
        <ele>19.4</ele>
        <time>2012-03-29T17:58:36Z</time>
      </trkpt>
      <trkpt lat="59.9842756795" lon="23.4587521843">
        <ele>20.2</ele>
        <time>2012-03-29T17:58:40Z</time>
      </trkpt>
      <trkpt lat="59.9843697245" lon="23.4591634003">
        <ele>20.6</ele>
        <time>2012-03-29T17:58:44Z</time>
      </trkpt>
      <trkpt lat="59.9844828801" lon="23.4597058769">
        <ele>21</ele>
        <time>2012-03-29T17:58:49Z</time>
      </trkpt>
      <trkpt lat="59.9845645198" lon="23.4601551467">
        <ele>21.2</ele>
        <time>2012-03-29T17:58:53Z</time>
      </trkpt>
      <trkpt lat="59.9846329161" lon="23.4605941906">
        <ele>21.4</ele>
        <time>2012-03-29T17:58:57Z</time>
      </trkpt>
      <trkpt lat="59.9846881528" lon="23.4609477392">
        <ele>21.4</ele>
        <time>2012-03-29T17:59:00Z</time>
      </trkpt>
      <trkpt lat="59.9847536993" lon="23.4614016191">
        <ele>21.4</ele>
        <time>2012-03-29T17:59:04Z</time>
      </trkpt>
      <trkpt lat="59.9848039069" lon="23.461770255">
        <ele>21.4</ele>
        <time>2012-03-29T17:59:07Z</time>
      </trkpt>
      <trkpt lat="59.9848488339" lon="23.4621315149">
        <ele>21.4</ele>
        <time>2012-03-29T17:59:10Z</time>
      </trkpt>
      <trkpt lat="59.9848926712" lon="23.4625115503">
        <ele>21.6</ele>
        <time>2012-03-29T17:59:13Z</time>
      </trkpt>
      <trkpt lat="59.9849069204" lon="23.462627891">
        <ele>21.6</ele>
        <time>2012-03-29T17:59:14Z</time>
      </trkpt>
      <trkpt lat="59.984949249" lon="23.4630137937">
        <ele>22</ele>
        <time>2012-03-29T17:59:17Z</time>
      </trkpt>
      <trkpt lat="59.9849840339" lon="23.4633957569">
        <ele>22.4</ele>
        <time>2012-03-29T17:59:20Z</time>
      </trkpt>
      <trkpt lat="59.985023345" lon="23.4637621297">
        <ele>22.8</ele>
        <time>2012-03-29T17:59:23Z</time>
      </trkpt>
      <trkpt lat="59.9850593872" lon="23.4641297599">
        <ele>23</ele>
        <time>2012-03-29T17:59:26Z</time>
      </trkpt>
      <trkpt lat="59.985080761" lon="23.4644874994">
        <ele>23.2</ele>
        <time>2012-03-29T17:59:29Z</time>
      </trkpt>
      <trkpt lat="59.9851002909" lon="23.4648603263">
        <ele>23.2</ele>
        <time>2012-03-29T17:59:32Z</time>
      </trkpt>
      <trkpt lat="59.9851168032" lon="23.4652246037">
        <ele>23.4</ele>
        <time>2012-03-29T17:59:35Z</time>
      </trkpt>
      <trkpt lat="59.9851284541" lon="23.4655887134">
        <ele>23.4</ele>
        <time>2012-03-29T17:59:38Z</time>
      </trkpt>
      <trkpt lat="59.9851378418" lon="23.4658100794">
        <ele>23.6</ele>
        <time>2012-03-29T17:59:40Z</time>
      </trkpt>
      <trkpt lat="59.985140524" lon="23.4664159231">
        <ele>24.4</ele>
        <time>2012-03-29T17:59:45Z</time>
      </trkpt>
      <trkpt lat="59.9851472295" lon="23.4667918513">
        <ele>24.8</ele>
        <time>2012-03-29T17:59:48Z</time>
      </trkpt>
      <trkpt lat="59.9851537674" lon="23.4672169813">
        <ele>25.4</ele>
        <time>2012-03-29T17:59:52Z</time>
      </trkpt>
      <trkpt lat="59.9851664241" lon="23.4676684304">
        <ele>26.2</ele>
        <time>2012-03-29T17:59:56Z</time>
      </trkpt>
      <trkpt lat="59.9851827688" lon="23.4680978352">
        <ele>26.8</ele>
        <time>2012-03-29T18:00:00Z</time>
      </trkpt>
      <trkpt lat="59.9852022148" lon="23.4684805527">
        <ele>27.6</ele>
        <time>2012-03-29T18:00:04Z</time>
      </trkpt>
      <trkpt lat="59.9852323058" lon="23.468871736">
        <ele>28.4</ele>
        <time>2012-03-29T18:00:08Z</time>
      </trkpt>
      <trkpt lat="59.985264157" lon="23.4692462393">
        <ele>29.4</ele>
        <time>2012-03-29T18:00:12Z</time>
      </trkpt>
      <trkpt lat="59.9852995286" lon="23.4695986982">
        <ele>30.2</ele>
        <time>2012-03-29T18:00:16Z</time>
      </trkpt>
      <trkpt lat="59.9853074914" lon="23.4696909829">
        <ele>30.4</ele>
        <time>2012-03-29T18:00:17Z</time>
      </trkpt>
      <trkpt lat="59.9853580343" lon="23.4701274284">
        <ele>31.6</ele>
        <time>2012-03-29T18:00:22Z</time>
      </trkpt>
      <trkpt lat="59.9854085771" lon="23.4705105651">
        <ele>32.4</ele>
        <time>2012-03-29T18:00:26Z</time>
      </trkpt>
      <trkpt lat="59.9854636462" lon="23.4709024189">
        <ele>33.2</ele>
        <time>2012-03-29T18:00:30Z</time>
      </trkpt>
      <trkpt lat="59.9855209784" lon="23.4712633435">
        <ele>34.4</ele>
        <time>2012-03-29T18:00:34Z</time>
      </trkpt>
      <trkpt lat="59.9855862734" lon="23.4716121144">
        <ele>35</ele>
        <time>2012-03-29T18:00:38Z</time>
      </trkpt>
      <trkpt lat="59.9856539992" lon="23.4719586221">
        <ele>35.6</ele>
        <time>2012-03-29T18:00:42Z</time>
      </trkpt>
      <trkpt lat="59.985739746" lon="23.4723600313">
        <ele>36.8</ele>
        <time>2012-03-29T18:00:47Z</time>
      </trkpt>
      <trkpt lat="59.985810154" lon="23.4726938824">
        <ele>37.2</ele>
        <time>2012-03-29T18:00:51Z</time>
      </trkpt>
      <trkpt lat="59.9858296" lon="23.4727711635">
        <ele>37.4</ele>
        <time>2012-03-29T18:00:52Z</time>
      </trkpt>
      <trkpt lat="59.9859144248" lon="23.4731022486">
        <ele>38.2</ele>
        <time>2012-03-29T18:00:56Z</time>
      </trkpt>
      <trkpt lat="59.9860026862" lon="23.4734480019">
        <ele>39</ele>
        <time>2012-03-29T18:01:00Z</time>
      </trkpt>
      <trkpt lat="59.9860919535" lon="23.4737771591">
        <ele>39.4</ele>
        <time>2012-03-29T18:01:04Z</time>
      </trkpt>
      <trkpt lat="59.9861892673" lon="23.4741110102">
        <ele>39.8</ele>
        <time>2012-03-29T18:01:08Z</time>
      </trkpt>
      <trkpt lat="59.9862888443" lon="23.4744536623">
        <ele>40</ele>
        <time>2012-03-29T18:01:12Z</time>
      </trkpt>
      <trkpt lat="59.9863973899" lon="23.4747958953">
        <ele>40.8</ele>
        <time>2012-03-29T18:01:16Z</time>
      </trkpt>
      <trkpt lat="59.986511719" lon="23.475163693">
        <ele>41.4</ele>
        <time>2012-03-29T18:01:20Z</time>
      </trkpt>
      <trkpt lat="59.9866207675" lon="23.4755327481">
        <ele>41.8</ele>
        <time>2012-03-29T18:01:24Z</time>
      </trkpt>
      <trkpt lat="59.9867387009" lon="23.4759105203">
        <ele>42</ele>
        <time>2012-03-29T18:01:28Z</time>
      </trkpt>
      <trkpt lat="59.9868534491" lon="23.4762980156">
        <ele>42.2</ele>
        <time>2012-03-29T18:01:32Z</time>
      </trkpt>
      <trkpt lat="59.9869662694" lon="23.4766945633">
        <ele>42.2</ele>
        <time>2012-03-29T18:01:36Z</time>
      </trkpt>
      <trkpt lat="59.9870790898" lon="23.4771023427">
        <ele>42.4</ele>
        <time>2012-03-29T18:01:40Z</time>
      </trkpt>
      <trkpt lat="59.9871890603" lon="23.4775184202">
        <ele>42.4</ele>
        <time>2012-03-29T18:01:44Z</time>
      </trkpt>
      <trkpt lat="59.9872707839" lon="23.4778419615">
        <ele>42.4</ele>
        <time>2012-03-29T18:01:47Z</time>
      </trkpt>
      <trkpt lat="59.9873617275" lon="23.4781953425">
        <ele>42.4</ele>
        <time>2012-03-29T18:01:50Z</time>
      </trkpt>
      <trkpt lat="59.9874408526" lon="23.4785177941">
        <ele>42.4</ele>
        <time>2012-03-29T18:01:53Z</time>
      </trkpt>
      <trkpt lat="59.9875228276" lon="23.4788512261">
        <ele>42.4</ele>
        <time>2012-03-29T18:01:56Z</time>
      </trkpt>
      <trkpt lat="59.9876024557" lon="23.4791844905">
        <ele>42.4</ele>
        <time>2012-03-29T18:01:59Z</time>
      </trkpt>
      <trkpt lat="59.9876793177" lon="23.4795237898">
        <ele>42.4</ele>
        <time>2012-03-29T18:02:02Z</time>
      </trkpt>
      <trkpt lat="59.9877535813" lon="23.4798681182">
        <ele>42.4</ele>
        <time>2012-03-29T18:02:05Z</time>
      </trkpt>
      <trkpt lat="59.987822732" lon="23.4802151289">
        <ele>42.4</ele>
        <time>2012-03-29T18:02:08Z</time>
      </trkpt>
      <trkpt lat="59.987893559" lon="23.4805612175">
        <ele>42.4</ele>
        <time>2012-03-29T18:02:11Z</time>
      </trkpt>
      <trkpt lat="59.9879654757" lon="23.4809026123">
        <ele>42.4</ele>
        <time>2012-03-29T18:02:14Z</time>
      </trkpt>
      <trkpt lat="59.9880337044" lon="23.4812495392">
        <ele>42.4</ele>
        <time>2012-03-29T18:02:17Z</time>
      </trkpt>
      <trkpt lat="59.988085756" lon="23.4814980625">
        <ele>42.4</ele>
        <time>2012-03-29T18:02:20Z</time>
      </trkpt>
      <trkpt lat="59.9880995023" lon="23.4815853181">
        <ele>42.4</ele>
        <time>2012-03-29T18:02:22Z</time>
      </trkpt>
      <trkpt lat="59.9881063755" lon="23.4819399563">
        <ele>42.4</ele>
        <time>2012-03-29T18:02:29Z</time>
      </trkpt>
      <trkpt lat="59.9881591815" lon="23.4822832789">
        <ele>42.4</ele>
        <time>2012-03-29T18:02:33Z</time>
      </trkpt>
      <trkpt lat="59.988188099" lon="23.4823668464">
        <ele>42.4</ele>
        <time>2012-03-29T18:02:34Z</time>
      </trkpt>
      <trkpt lat="59.988258507" lon="23.4825541819">
        <ele>42.4</ele>
        <time>2012-03-29T18:02:36Z</time>
      </trkpt>
      <trkpt lat="59.9883493668" lon="23.4830190421">
        <ele>42.4</ele>
        <time>2012-03-29T18:02:40Z</time>
      </trkpt>
      <trkpt lat="59.9884148294" lon="23.4833824813">
        <ele>42.4</ele>
        <time>2012-03-29T18:02:43Z</time>
      </trkpt>
      <trkpt lat="59.9884788671" lon="23.4837579066">
        <ele>42.4</ele>
        <time>2012-03-29T18:02:46Z</time>
      </trkpt>
      <trkpt lat="59.9885368699" lon="23.4841469944">
        <ele>42</ele>
        <time>2012-03-29T18:02:49Z</time>
      </trkpt>
      <trkpt lat="59.9885899273" lon="23.4845323941">
        <ele>41.6</ele>
        <time>2012-03-29T18:02:52Z</time>
      </trkpt>
      <trkpt lat="59.9886362792" lon="23.4849083223">
        <ele>41.2</ele>
        <time>2012-03-29T18:02:55Z</time>
      </trkpt>
      <trkpt lat="59.9886901748" lon="23.4852677382">
        <ele>41</ele>
        <time>2012-03-29T18:02:58Z</time>
      </trkpt>
      <trkpt lat="59.9887366944" lon="23.485649869">
        <ele>40.8</ele>
        <time>2012-03-29T18:03:01Z</time>
      </trkpt>
      <trkpt lat="59.9887811184" lon="23.4860273898">
        <ele>40.8</ele>
        <time>2012-03-29T18:03:04Z</time>
      </trkpt>
      <trkpt lat="59.9888229441" lon="23.4864219258">
        <ele>40.6</ele>
        <time>2012-03-29T18:03:07Z</time>
      </trkpt>
      <trkpt lat="59.9888583996" lon="23.4867961777">
        <ele>40.6</ele>
        <time>2012-03-29T18:03:10Z</time>
      </trkpt>
      <trkpt lat="59.9888899155" lon="23.4871669091">
        <ele>40.6</ele>
        <time>2012-03-29T18:03:13Z</time>
      </trkpt>
      <trkpt lat="59.9889192521" lon="23.4875312703">
        <ele>40.6</ele>
        <time>2012-03-29T18:03:16Z</time>
      </trkpt>
      <trkpt lat="59.9889441464" lon="23.4878971402">
        <ele>40.6</ele>
        <time>2012-03-29T18:03:19Z</time>
      </trkpt>
      <trkpt lat="59.9889701303" lon="23.4882549636">
        <ele>40.6</ele>
        <time>2012-03-29T18:03:22Z</time>
      </trkpt>
      <trkpt lat="59.9889998022" lon="23.4886160558">
        <ele>40.4</ele>
        <time>2012-03-29T18:03:25Z</time>
      </trkpt>
      <trkpt lat="59.9890338327" lon="23.4889742144">
        <ele>40.6</ele>
        <time>2012-03-29T18:03:28Z</time>
      </trkpt>
      <trkpt lat="59.9890706293" lon="23.489349975">
        <ele>41.2</ele>
        <time>2012-03-29T18:03:31Z</time>
      </trkpt>
      <trkpt lat="59.9891131255" lon="23.4897165155">
        <ele>41.6</ele>
        <time>2012-03-29T18:03:34Z</time>
      </trkpt>
      <trkpt lat="59.9891586392" lon="23.4900940362">
        <ele>41.8</ele>
        <time>2012-03-29T18:03:37Z</time>
      </trkpt>
      <trkpt lat="59.9892070028" lon="23.4904701321">
        <ele>42</ele>
        <time>2012-03-29T18:03:40Z</time>
      </trkpt>
      <trkpt lat="59.9892583838" lon="23.4908354153">
        <ele>42.2</ele>
        <time>2012-03-29T18:03:43Z</time>
      </trkpt>
      <trkpt lat="59.989314794" lon="23.4911982677">
        <ele>42.2</ele>
        <time>2012-03-29T18:03:46Z</time>
      </trkpt>
      <trkpt lat="59.9893756466" lon="23.4915784707">
        <ele>42.2</ele>
        <time>2012-03-29T18:03:49Z</time>
      </trkpt>
      <trkpt lat="59.9894391814" lon="23.491944173">
        <ele>42.4</ele>
        <time>2012-03-29T18:03:52Z</time>
      </trkpt>
      <trkpt lat="59.9895008722" lon="23.4923114679">
        <ele>42.4</ele>
        <time>2012-03-29T18:03:55Z</time>
      </trkpt>
      <trkpt lat="59.9895729565" lon="23.492671219">
        <ele>42.4</ele>
        <time>2012-03-29T18:03:58Z</time>
      </trkpt>
      <trkpt lat="59.9896494833" lon="23.4930339038">
        <ele>42.4</ele>
        <time>2012-03-29T18:04:01Z</time>
      </trkpt>
      <trkpt lat="59.989747803" lon="23.4935202217">
        <ele>42.4</ele>
        <time>2012-03-29T18:04:05Z</time>
      </trkpt>
      <trkpt lat="59.9898299456" lon="23.4938901987">
        <ele>42.4</ele>
        <time>2012-03-29T18:04:08Z</time>
      </trkpt>
      <trkpt lat="59.989914519" lon="23.4942463457">
        <ele>42.4</ele>
        <time>2012-03-29T18:04:11Z</time>
      </trkpt>
      <trkpt lat="59.9900018583" lon="23.4945966253">
        <ele>42.4</ele>
        <time>2012-03-29T18:04:14Z</time>
      </trkpt>
      <trkpt lat="59.9900956518" lon="23.4949624114">
        <ele>42.4</ele>
        <time>2012-03-29T18:04:17Z</time>
      </trkpt>
      <trkpt lat="59.9901983301" lon="23.4953292872">
        <ele>42.4</ele>
        <time>2012-03-29T18:04:20Z</time>
      </trkpt>
      <trkpt lat="59.9902984938" lon="23.495684093">
        <ele>42.4</ele>
        <time>2012-03-29T18:04:23Z</time>
      </trkpt>
      <trkpt lat="59.9904003339" lon="23.4960340373">
        <ele>42.4</ele>
        <time>2012-03-29T18:04:26Z</time>
      </trkpt>
      <trkpt lat="59.9905003299" lon="23.4963709059">
        <ele>42.4</ele>
        <time>2012-03-29T18:04:29Z</time>
      </trkpt>
      <trkpt lat="59.9906093785" lon="23.4967072715">
        <ele>42.4</ele>
        <time>2012-03-29T18:04:32Z</time>
      </trkpt>
      <trkpt lat="59.990721193" lon="23.4970365964">
        <ele>42.4</ele>
        <time>2012-03-29T18:04:35Z</time>
      </trkpt>
      <trkpt lat="59.9908361089" lon="23.4973620655">
        <ele>42.4</ele>
        <time>2012-03-29T18:04:38Z</time>
      </trkpt>
      <trkpt lat="59.9909561377" lon="23.4976926477">
        <ele>42.4</ele>
        <time>2012-03-29T18:04:41Z</time>
      </trkpt>
      <trkpt lat="59.9910765856" lon="23.4980129201">
        <ele>42.4</ele>
        <time>2012-03-29T18:04:44Z</time>
      </trkpt>
      <trkpt lat="59.9912045772" lon="23.4983373834">
        <ele>42.4</ele>
        <time>2012-03-29T18:04:47Z</time>
      </trkpt>
      <trkpt lat="59.991338017" lon="23.498660841">
        <ele>42.4</ele>
        <time>2012-03-29T18:04:50Z</time>
      </trkpt>
      <trkpt lat="59.9914705349" lon="23.4989765033">
        <ele>42.4</ele>
        <time>2012-03-29T18:04:53Z</time>
      </trkpt>
      <trkpt lat="59.9916066569" lon="23.4992847896">
        <ele>42.4</ele>
        <time>2012-03-29T18:04:56Z</time>
      </trkpt>
      <trkpt lat="59.9917498198" lon="23.49958746">
        <ele>42.4</ele>
        <time>2012-03-29T18:04:59Z</time>
      </trkpt>
      <trkpt lat="59.9918944076" lon="23.4998871129">
        <ele>42.4</ele>
        <time>2012-03-29T18:05:02Z</time>
      </trkpt>
      <trkpt lat="59.9920390791" lon="23.5001824911">
        <ele>42.4</ele>
        <time>2012-03-29T18:05:05Z</time>
      </trkpt>
      <trkpt lat="59.992185008" lon="23.5004700741">
        <ele>42.4</ele>
        <time>2012-03-29T18:05:08Z</time>
      </trkpt>
      <trkpt lat="59.9923306016" lon="23.5007543881">
        <ele>42.4</ele>
        <time>2012-03-29T18:05:11Z</time>
      </trkpt>
      <trkpt lat="59.9924817273" lon="23.5010401271">
        <ele>42.4</ele>
        <time>2012-03-29T18:05:14Z</time>
      </trkpt>
      <trkpt lat="59.9926347808" lon="23.5013344156">
        <ele>42.4</ele>
        <time>2012-03-29T18:05:17Z</time>
      </trkpt>
      <trkpt lat="59.9927829728" lon="23.5016168856">
        <ele>42.4</ele>
        <time>2012-03-29T18:05:20Z</time>
      </trkpt>
      <trkpt lat="59.9929253813" lon="23.5018851064">
        <ele>42.4</ele>
        <time>2012-03-29T18:05:23Z</time>
      </trkpt>
      <trkpt lat="59.9930708072" lon="23.5021510641">
        <ele>42.2</ele>
        <time>2012-03-29T18:05:26Z</time>
      </trkpt>
      <trkpt lat="59.9932136348" lon="23.5024157645">
        <ele>41.8</ele>
        <time>2012-03-29T18:05:29Z</time>
      </trkpt>
      <trkpt lat="59.9933673588" lon="23.5026978993">
        <ele>41.4</ele>
        <time>2012-03-29T18:05:32Z</time>
      </trkpt>
      <trkpt lat="59.9935142097" lon="23.5029609233">
        <ele>41.2</ele>
        <time>2012-03-29T18:05:35Z</time>
      </trkpt>
      <trkpt lat="59.993660893" lon="23.5032258751">
        <ele>41</ele>
        <time>2012-03-29T18:05:38Z</time>
      </trkpt>
      <trkpt lat="59.9938055646" lon="23.503489905">
        <ele>40.8</ele>
        <time>2012-03-29T18:05:41Z</time>
      </trkpt>
      <trkpt lat="59.9939473025" lon="23.5037352432">
        <ele>40.8</ele>
        <time>2012-03-29T18:05:44Z</time>
      </trkpt>
      <trkpt lat="59.994091555" lon="23.5039954174">
        <ele>40.6</ele>
        <time>2012-03-29T18:05:47Z</time>
      </trkpt>
      <trkpt lat="59.9942341311" lon="23.504244276">
        <ele>40.6</ele>
        <time>2012-03-29T18:05:50Z</time>
      </trkpt>
      <trkpt lat="59.9943743603" lon="23.5044962359">
        <ele>40.6</ele>
        <time>2012-03-29T18:05:53Z</time>
      </trkpt>
      <trkpt lat="59.9945129969" lon="23.5047519677">
        <ele>40.6</ele>
        <time>2012-03-29T18:05:56Z</time>
      </trkpt>
      <trkpt lat="59.9946538967" lon="23.5049845654">
        <ele>40.4</ele>
        <time>2012-03-29T18:05:59Z</time>
      </trkpt>
      <trkpt lat="59.9947994065" lon="23.5052390399">
        <ele>40.4</ele>
        <time>2012-03-29T18:06:02Z</time>
      </trkpt>
      <trkpt lat="59.9949370373" lon="23.5054875632">
        <ele>40.4</ele>
        <time>2012-03-29T18:06:05Z</time>
      </trkpt>
      <trkpt lat="59.9950784399" lon="23.505744217">
        <ele>40.4</ele>
        <time>2012-03-29T18:06:08Z</time>
      </trkpt>
      <trkpt lat="59.9952137238" lon="23.5059834364">
        <ele>40.4</ele>
        <time>2012-03-29T18:06:11Z</time>
      </trkpt>
      <trkpt lat="59.9953899951" lon="23.5062982606">
        <ele>40.4</ele>
        <time>2012-03-29T18:06:15Z</time>
      </trkpt>
      <trkpt lat="59.9955259495" lon="23.506539324">
        <ele>40.4</ele>
        <time>2012-03-29T18:06:18Z</time>
      </trkpt>
      <trkpt lat="59.9956645024" lon="23.5067849975">
        <ele>40.4</ele>
        <time>2012-03-29T18:06:21Z</time>
      </trkpt>
      <trkpt lat="59.995840187" lon="23.5071218661">
        <ele>40.4</ele>
        <time>2012-03-29T18:06:25Z</time>
      </trkpt>
      <trkpt lat="59.9960134408" lon="23.5074430605">
        <ele>40.4</ele>
        <time>2012-03-29T18:06:29Z</time>
      </trkpt>
      <trkpt lat="59.9961491438" lon="23.5076949366">
        <ele>40.4</ele>
        <time>2012-03-29T18:06:32Z</time>
      </trkpt>
      <trkpt lat="59.9963209728" lon="23.5080232556">
        <ele>40.4</ele>
        <time>2012-03-29T18:06:36Z</time>
      </trkpt>
      <trkpt lat="59.9964851742" lon="23.5083601242">
        <ele>40.4</ele>
        <time>2012-03-29T18:06:40Z</time>
      </trkpt>
      <trkpt lat="59.9966140878" lon="23.5086251599">
        <ele>40.4</ele>
        <time>2012-03-29T18:06:43Z</time>
      </trkpt>
      <trkpt lat="59.996746438" lon="23.508908971">
        <ele>40.4</ele>
        <time>2012-03-29T18:06:46Z</time>
      </trkpt>
      <trkpt lat="59.9968973122" lon="23.5091709054">
        <ele>40.4</ele>
        <time>2012-03-29T18:06:49Z</time>
      </trkpt>
      <trkpt lat="59.9970380443" lon="23.5094278106">
        <ele>40.4</ele>
        <time>2012-03-29T18:06:52Z</time>
      </trkpt>
      <trkpt lat="59.9971693887" lon="23.5096836262">
        <ele>40.4</ele>
        <time>2012-03-29T18:06:55Z</time>
      </trkpt>
      <trkpt lat="59.9973316623" lon="23.5100049882">
        <ele>40.4</ele>
        <time>2012-03-29T18:06:59Z</time>
      </trkpt>
      <trkpt lat="59.9974578099" lon="23.5102660844">
        <ele>40.4</ele>
        <time>2012-03-29T18:07:02Z</time>
      </trkpt>
      <trkpt lat="59.9975873102" lon="23.5105295275">
        <ele>40.4</ele>
        <time>2012-03-29T18:07:05Z</time>
      </trkpt>
      <trkpt lat="59.9977181517" lon="23.5107938927">
        <ele>40.4</ele>
        <time>2012-03-29T18:07:08Z</time>
      </trkpt>
      <trkpt lat="59.9978497475" lon="23.5110633707">
        <ele>40.4</ele>
        <time>2012-03-29T18:07:11Z</time>
      </trkpt>
      <trkpt lat="59.9979758113" lon="23.5113323459">
        <ele>40.4</ele>
        <time>2012-03-29T18:07:14Z</time>
      </trkpt>
      <trkpt lat="59.9981098379" lon="23.5116066017">
        <ele>40.4</ele>
        <time>2012-03-29T18:07:17Z</time>
      </trkpt>
      <trkpt lat="59.9982409308" lon="23.5118821147">
        <ele>41</ele>
        <time>2012-03-29T18:07:20Z</time>
      </trkpt>
      <trkpt lat="59.9984030367" lon="23.5122206597">
        <ele>41.4</ele>
        <time>2012-03-29T18:07:24Z</time>
      </trkpt>
      <trkpt lat="59.9985301901" lon="23.5124976815">
        <ele>41.8</ele>
        <time>2012-03-29T18:07:27Z</time>
      </trkpt>
      <trkpt lat="59.998653907" lon="23.5127679977">
        <ele>42</ele>
        <time>2012-03-29T18:07:30Z</time>
      </trkpt>
      <trkpt lat="59.9987770371" lon="23.5130331172">
        <ele>42</ele>
        <time>2012-03-29T18:07:33Z</time>
      </trkpt>
      <trkpt lat="59.9989009216" lon="23.5132954707">
        <ele>42.2</ele>
        <time>2012-03-29T18:07:36Z</time>
      </trkpt>
      <trkpt lat="59.9990616864" lon="23.5136553895">
        <ele>42.2</ele>
        <time>2012-03-29T18:07:40Z</time>
      </trkpt>
      <trkpt lat="59.9990911069" lon="23.5137206845">
        <ele>42.2</ele>
        <time>2012-03-29T18:07:41Z</time>
      </trkpt>
      <trkpt lat="59.9991879178" lon="23.5139296453">
        <ele>42.4</ele>
        <time>2012-03-29T18:07:43Z</time>
      </trkpt>
      <trkpt lat="59.9993097068" lon="23.5142007997">
        <ele>42.4</ele>
        <time>2012-03-29T18:07:46Z</time>
      </trkpt>
      <trkpt lat="59.9994330046" lon="23.5144793303">
        <ele>43</ele>
        <time>2012-03-29T18:07:49Z</time>
      </trkpt>
      <trkpt lat="59.9995536201" lon="23.5147680867">
        <ele>43.4</ele>
        <time>2012-03-29T18:07:52Z</time>
      </trkpt>
      <trkpt lat="59.9996806059" lon="23.5150549992">
        <ele>43.6</ele>
        <time>2012-03-29T18:07:55Z</time>
      </trkpt>
      <trkpt lat="59.9998030655" lon="23.5153353737">
        <ele>43.8</ele>
        <time>2012-03-29T18:07:58Z</time>
      </trkpt>
      <trkpt lat="59.9999273691" lon="23.5156211127">
        <ele>44</ele>
        <time>2012-03-29T18:08:01Z</time>
      </trkpt>
      <trkpt lat="60.0000863737" lon="23.5159867312">
        <ele>44.2</ele>
        <time>2012-03-29T18:08:05Z</time>
      </trkpt>
      <trkpt lat="60.0002064863" lon="23.5162661837">
        <ele>44.2</ele>
        <time>2012-03-29T18:08:08Z</time>
      </trkpt>
      <trkpt lat="60.0003234138" lon="23.5165451333">
        <ele>44.6</ele>
        <time>2012-03-29T18:08:11Z</time>
      </trkpt>
      <trkpt lat="60.0004764673" lon="23.5169080696">
        <ele>45.2</ele>
        <time>2012-03-29T18:08:15Z</time>
      </trkpt>
      <trkpt lat="60.0006244917" lon="23.5172618696">
        <ele>45.6</ele>
        <time>2012-03-29T18:08:19Z</time>
      </trkpt>
      <trkpt lat="60.0007726837" lon="23.517621956">
        <ele>46</ele>
        <time>2012-03-29T18:08:23Z</time>
      </trkpt>
      <trkpt lat="60.0009181096" lon="23.5179767619">
        <ele>46.2</ele>
        <time>2012-03-29T18:08:27Z</time>
      </trkpt>
      <trkpt lat="60.0010678104" lon="23.5183441405">
        <ele>46.6</ele>
        <time>2012-03-29T18:08:31Z</time>
      </trkpt>
      <trkpt lat="60.0012144098" lon="23.5187063224">
        <ele>47.2</ele>
        <time>2012-03-29T18:08:35Z</time>
      </trkpt>
      <trkpt lat="60.0013503642" lon="23.5190540037">
        <ele>47.6</ele>
        <time>2012-03-29T18:08:39Z</time>
      </trkpt>
      <trkpt lat="60.0014887494" lon="23.519416437">
        <ele>48</ele>
        <time>2012-03-29T18:08:43Z</time>
      </trkpt>
      <trkpt lat="60.0016240333" lon="23.5197543114">
        <ele>48.2</ele>
        <time>2012-03-29T18:08:47Z</time>
      </trkpt>
      <trkpt lat="60.0017554614" lon="23.5200900065">
        <ele>48.4</ele>
        <time>2012-03-29T18:08:51Z</time>
      </trkpt>
      <trkpt lat="60.0018834531" lon="23.5204240252">
        <ele>49.2</ele>
        <time>2012-03-29T18:08:55Z</time>
      </trkpt>
      <trkpt lat="60.0020070023" lon="23.520760307">
        <ele>49.6</ele>
        <time>2012-03-29T18:08:59Z</time>
      </trkpt>
      <trkpt lat="60.0021423699" lon="23.52110254">
        <ele>50</ele>
        <time>2012-03-29T18:09:03Z</time>
      </trkpt>
      <trkpt lat="60.0022769833" lon="23.5214577649">
        <ele>50.2</ele>
        <time>2012-03-29T18:09:07Z</time>
      </trkpt>
      <trkpt lat="60.0024095011" lon="23.5218265685">
        <ele>50.4</ele>
        <time>2012-03-29T18:09:11Z</time>
      </trkpt>
      <trkpt lat="60.002541516" lon="23.5221981382">
        <ele>51</ele>
        <time>2012-03-29T18:09:15Z</time>
      </trkpt>
      <trkpt lat="60.0026731119" lon="23.5225609906">
        <ele>51.6</ele>
        <time>2012-03-29T18:09:19Z</time>
      </trkpt>
      <trkpt lat="60.0028065517" lon="23.5229276149">
        <ele>51.8</ele>
        <time>2012-03-29T18:09:23Z</time>
      </trkpt>
      <trkpt lat="60.0029344595" lon="23.523279068">
        <ele>52.2</ele>
        <time>2012-03-29T18:09:27Z</time>
      </trkpt>
      <trkpt lat="60.0030590984" lon="23.5236300181">
        <ele>52.2</ele>
        <time>2012-03-29T18:09:31Z</time>
      </trkpt>
      <trkpt lat="60.0031817255" lon="23.5239791243">
        <ele>52.6</ele>
        <time>2012-03-29T18:09:35Z</time>
      </trkpt>
      <trkpt lat="60.0033025925" lon="23.5243229498">
        <ele>53.4</ele>
        <time>2012-03-29T18:09:39Z</time>
      </trkpt>
      <trkpt lat="60.0034298298" lon="23.5246759116">
        <ele>53.8</ele>
        <time>2012-03-29T18:09:43Z</time>
      </trkpt>
      <trkpt lat="60.0035516188" lon="23.5250263589">
        <ele>54</ele>
        <time>2012-03-29T18:09:47Z</time>
      </trkpt>
      <trkpt lat="60.0036713961" lon="23.5253765546">
        <ele>54.2</ele>
        <time>2012-03-29T18:09:51Z</time>
      </trkpt>
      <trkpt lat="60.0037823725" lon="23.5257213022">
        <ele>54.4</ele>
        <time>2012-03-29T18:09:55Z</time>
      </trkpt>
      <trkpt lat="60.0038086078" lon="23.5258095636">
        <ele>54.6</ele>
        <time>2012-03-29T18:09:56Z</time>
      </trkpt>
      <trkpt lat="60.0038249526" lon="23.5263075323">
        <ele>55.4</ele>
        <time>2012-03-29T18:10:01Z</time>
      </trkpt>
      <trkpt lat="60.0037532035" lon="23.5264649444">
        <ele>55.8</ele>
        <time>2012-03-29T18:10:03Z</time>
      </trkpt>
      <trkpt lat="60.0035289877" lon="23.5267964485">
        <ele>56.2</ele>
        <time>2012-03-29T18:10:08Z</time>
      </trkpt>
      <trkpt lat="60.0033424066" lon="23.5270745599">
        <ele>56.4</ele>
        <time>2012-03-29T18:10:12Z</time>
      </trkpt>
      <trkpt lat="60.0032035185" lon="23.5273043078">
        <ele>56.4</ele>
        <time>2012-03-29T18:10:15Z</time>
      </trkpt>
      <trkpt lat="60.0030518061" lon="23.5275471315">
        <ele>56.4</ele>
        <time>2012-03-29T18:10:18Z</time>
      </trkpt>
      <trkpt lat="60.0030041969" lon="23.5276304475">
        <ele>56.6</ele>
        <time>2012-03-29T18:10:19Z</time>
      </trkpt>
      <trkpt lat="60.0029029436" lon="23.5278228122">
        <ele>56.6</ele>
        <time>2012-03-29T18:10:21Z</time>
      </trkpt>
      <trkpt lat="60.0027595292" lon="23.528101678">
        <ele>56.6</ele>
        <time>2012-03-29T18:10:24Z</time>
      </trkpt>
      <trkpt lat="60.0026094094" lon="23.528398481">
        <ele>56.6</ele>
        <time>2012-03-29T18:10:27Z</time>
      </trkpt>
      <trkpt lat="60.0024754667" lon="23.528693943">
        <ele>56.6</ele>
        <time>2012-03-29T18:10:30Z</time>
      </trkpt>
      <trkpt lat="60.002352588" lon="23.5289872257">
        <ele>56</ele>
        <time>2012-03-29T18:10:33Z</time>
      </trkpt>
      <trkpt lat="60.0022383427" lon="23.5292781615">
        <ele>55.6</ele>
        <time>2012-03-29T18:10:36Z</time>
      </trkpt>
      <trkpt lat="60.0020913242" lon="23.5296402595">
        <ele>55.4</ele>
        <time>2012-03-29T18:10:40Z</time>
      </trkpt>
      <trkpt lat="60.0019473231" lon="23.5300136732">
        <ele>55.2</ele>
        <time>2012-03-29T18:10:44Z</time>
      </trkpt>
      <trkpt lat="60.0019091017" lon="23.5301139207">
        <ele>55</ele>
        <time>2012-03-29T18:10:45Z</time>
      </trkpt>
      <trkpt lat="60.0017622508" lon="23.5305707343">
        <ele>55</ele>
        <time>2012-03-29T18:10:49Z</time>
      </trkpt>
      <trkpt lat="60.0017258733" lon="23.5306891705">
        <ele>54.8</ele>
        <time>2012-03-29T18:10:50Z</time>
      </trkpt>
      <trkpt lat="60.0016951118" lon="23.5310530288">
        <ele>54.2</ele>
        <time>2012-03-29T18:10:53Z</time>
      </trkpt>
      <trkpt lat="60.0017587304" lon="23.5312527695">
        <ele>53.8</ele>
        <time>2012-03-29T18:10:55Z</time>
      </trkpt>
      <trkpt lat="60.0019117839" lon="23.5314895581">
        <ele>53.4</ele>
        <time>2012-03-29T18:10:58Z</time>
      </trkpt>
      <trkpt lat="60.0020617361" lon="23.5317221559">
        <ele>53.2</ele>
        <time>2012-03-29T18:11:01Z</time>
      </trkpt>
      <trkpt lat="60.0022421984" lon="23.5320049612">
        <ele>53</ele>
        <time>2012-03-29T18:11:05Z</time>
      </trkpt>
      <trkpt lat="60.0024038014" lon="23.5322696616">
        <ele>52.8</ele>
        <time>2012-03-29T18:11:09Z</time>
      </trkpt>
      <trkpt lat="60.0025315416" lon="23.5324621938">
        <ele>52.6</ele>
        <time>2012-03-29T18:11:12Z</time>
      </trkpt>
      <trkpt lat="60.0026063081" lon="23.5325881738">
        <ele>52.6</ele>
        <time>2012-03-29T18:11:14Z</time>
      </trkpt>
      <trkpt lat="60.0028249081" lon="23.5328412233">
        <ele>52.6</ele>
        <time>2012-03-29T18:11:19Z</time>
      </trkpt>
      <trkpt lat="60.0029597728" lon="23.5329749146">
        <ele>52.6</ele>
        <time>2012-03-29T18:11:22Z</time>
      </trkpt>
      <trkpt lat="60.0031936278" lon="23.5330930156">
        <ele>52.4</ele>
        <time>2012-03-29T18:11:27Z</time>
      </trkpt>
      <trkpt lat="60.0033973918" lon="23.5331600708">
        <ele>53.2</ele>
        <time>2012-03-29T18:11:31Z</time>
      </trkpt>
      <trkpt lat="60.0036119685" lon="23.5332125415">
        <ele>53.6</ele>
        <time>2012-03-29T18:11:35Z</time>
      </trkpt>
      <trkpt lat="60.0038033273" lon="23.5332633358">
        <ele>54.2</ele>
        <time>2012-03-29T18:11:39Z</time>
      </trkpt>
      <trkpt lat="60.0040065045" lon="23.5333492503">
        <ele>55</ele>
        <time>2012-03-29T18:11:43Z</time>
      </trkpt>
      <trkpt lat="60.0041033155" lon="23.5334067501">
        <ele>55.4</ele>
        <time>2012-03-29T18:11:45Z</time>
      </trkpt>
      <trkpt lat="60.0042789163" lon="23.5336572013">
        <ele>55.8</ele>
        <time>2012-03-29T18:11:49Z</time>
      </trkpt>
      <trkpt lat="60.0044749689" lon="23.534061125">
        <ele>56.2</ele>
        <time>2012-03-29T18:11:54Z</time>
      </trkpt>
      <trkpt lat="60.004630537" lon="23.5344073813">
        <ele>56.4</ele>
        <time>2012-03-29T18:11:58Z</time>
      </trkpt>
      <trkpt lat="60.0047595344" lon="23.5346661306">
        <ele>56.4</ele>
        <time>2012-03-29T18:12:01Z</time>
      </trkpt>
      <trkpt lat="60.0049082293" lon="23.5349926056">
        <ele>56.6</ele>
        <time>2012-03-29T18:12:05Z</time>
      </trkpt>
      <trkpt lat="60.0049714288" lon="23.5351466649">
        <ele>56.6</ele>
        <time>2012-03-29T18:12:07Z</time>
      </trkpt>
      <trkpt lat="60.0051591834" lon="23.5355071704">
        <ele>56.6</ele>
        <time>2012-03-29T18:12:12Z</time>
      </trkpt>
      <trkpt lat="60.0053096385" lon="23.5358241739">
        <ele>56.6</ele>
        <time>2012-03-29T18:12:16Z</time>
      </trkpt>
      <trkpt lat="60.0054490295" lon="23.5362078135">
        <ele>56.8</ele>
        <time>2012-03-29T18:12:20Z</time>
      </trkpt>
      <trkpt lat="60.005479372" lon="23.5362942308">
        <ele>56.8</ele>
        <time>2012-03-29T18:12:21Z</time>
      </trkpt>
      <trkpt lat="60.005596048" lon="23.5367219592">
        <ele>57.2</ele>
        <time>2012-03-29T18:12:26Z</time>
      </trkpt>
      <trkpt lat="60.0055688907" lon="23.5371454966">
        <ele>57.8</ele>
        <time>2012-03-29T18:12:30Z</time>
      </trkpt>
      <trkpt lat="60.0055327647" lon="23.5375546171">
        <ele>58.2</ele>
        <time>2012-03-29T18:12:34Z</time>
      </trkpt>
      <trkpt lat="60.0054953814" lon="23.5376494164">
        <ele>58.2</ele>
        <time>2012-03-29T18:12:35Z</time>
      </trkpt>
      <trkpt lat="60.0053305094" lon="23.5380034679">
        <ele>58.4</ele>
        <time>2012-03-29T18:12:39Z</time>
      </trkpt>
      <trkpt lat="60.0051736841" lon="23.5383619618">
        <ele>58.4</ele>
        <time>2012-03-29T18:12:42Z</time>
      </trkpt>
      <trkpt lat="60.0050161044" lon="23.5387211262">
        <ele>58.6</ele>
        <time>2012-03-29T18:12:45Z</time>
      </trkpt>
      <trkpt lat="60.0048816587" lon="23.5390032609">
        <ele>58.2</ele>
        <time>2012-03-29T18:12:48Z</time>
      </trkpt>
      <trkpt lat="60.00483472" lon="23.5390948751">
        <ele>58</ele>
        <time>2012-03-29T18:12:49Z</time>
      </trkpt>
      <trkpt lat="60.004751404" lon="23.5395102821">
        <ele>57.6</ele>
        <time>2012-03-29T18:12:53Z</time>
      </trkpt>
      <trkpt lat="60.0048452812" lon="23.5397685284">
        <ele>57</ele>
        <time>2012-03-29T18:12:56Z</time>
      </trkpt>
      <trkpt lat="60.0048915493" lon="23.5398308059">
        <ele>56.8</ele>
        <time>2012-03-29T18:12:57Z</time>
      </trkpt>
      <trkpt lat="60.0050796392" lon="23.5400646609">
        <ele>56</ele>
        <time>2012-03-29T18:13:01Z</time>
      </trkpt>
      <trkpt lat="60.0052587604" lon="23.5403065626">
        <ele>55.4</ele>
        <time>2012-03-29T18:13:05Z</time>
      </trkpt>
      <trkpt lat="60.005441402" lon="23.5405593607">
        <ele>55.2</ele>
        <time>2012-03-29T18:13:09Z</time>
      </trkpt>
      <trkpt lat="60.0056191821" lon="23.5408543197">
        <ele>55</ele>
        <time>2012-03-29T18:13:13Z</time>
      </trkpt>
      <trkpt lat="60.0057760074" lon="23.5411692277">
        <ele>54.8</ele>
        <time>2012-03-29T18:13:17Z</time>
      </trkpt>
      <trkpt lat="60.0059170748" lon="23.5415143943">
        <ele>54.8</ele>
        <time>2012-03-29T18:13:21Z</time>
      </trkpt>
      <trkpt lat="60.0060564658" lon="23.5418737264">
        <ele>54.6</ele>
        <time>2012-03-29T18:13:25Z</time>
      </trkpt>
      <trkpt lat="60.0061826972" lon="23.5422312983">
        <ele>54.6</ele>
        <time>2012-03-29T18:13:29Z</time>
      </trkpt>
      <trkpt lat="60.0063215015" lon="23.5425952404">
        <ele>54.6</ele>
        <time>2012-03-29T18:13:33Z</time>
      </trkpt>
      <trkpt lat="60.0064515047" lon="23.5429688216">
        <ele>54.6</ele>
        <time>2012-03-29T18:13:37Z</time>
      </trkpt>
      <trkpt lat="60.0064881336" lon="23.5430497908">
        <ele>54.6</ele>
        <time>2012-03-29T18:13:38Z</time>
      </trkpt>
      <trkpt lat="60.0066507425" lon="23.5434805366">
        <ele>54.6</ele>
        <time>2012-03-29T18:13:44Z</time>
      </trkpt>
      <trkpt lat="60.0067109245" lon="23.5437353464">
        <ele>54.6</ele>
        <time>2012-03-29T18:13:48Z</time>
      </trkpt>
      <trkpt lat="60.0067903011" lon="23.5436863961">
        <ele>54.6</ele>
        <time>2012-03-29T18:13:52Z</time>
      </trkpt>
      <trkpt lat="60.0067706037" lon="23.5436553831">
        <ele>54.6</ele>
        <time>2012-03-29T18:13:53Z</time>
      </trkpt>
      <trkpt lat="60.0066143651" lon="23.5434174209">
        <ele>54.6</ele>
        <time>2012-03-29T18:13:58Z</time>
      </trkpt>
      <trkpt lat="60.006487966" lon="23.5430930414">
        <ele>54.6</ele>
        <time>2012-03-29T18:14:02Z</time>
      </trkpt>
      <trkpt lat="60.0063976091" lon="23.5428299336">
        <ele>54.6</ele>
        <time>2012-03-29T18:14:05Z</time>
      </trkpt>
      <trkpt lat="60.0062566256" lon="23.542545368">
        <ele>54.6</ele>
        <time>2012-03-29T18:14:09Z</time>
      </trkpt>
      <trkpt lat="60.0060879817" lon="23.5426200508">
        <ele>54.6</ele>
        <time>2012-03-29T18:14:12Z</time>
      </trkpt>
      <trkpt lat="60.0059808611" lon="23.5427617049">
        <ele>54.6</ele>
        <time>2012-03-29T18:14:14Z</time>
      </trkpt>
      <trkpt lat="60.005748431" lon="23.5431155887">
        <ele>54.6</ele>
        <time>2012-03-29T18:14:18Z</time>
      </trkpt>
      <trkpt lat="60.0055625204" lon="23.5434037584">
        <ele>54.6</ele>
        <time>2012-03-29T18:14:21Z</time>
      </trkpt>
      <trkpt lat="60.0053749335" lon="23.5436991366">
        <ele>54.2</ele>
        <time>2012-03-29T18:14:24Z</time>
      </trkpt>
      <trkpt lat="60.0051980754" lon="23.543983283">
        <ele>53.8</ele>
        <time>2012-03-29T18:14:27Z</time>
      </trkpt>
      <trkpt lat="60.0050312756" lon="23.5442479834">
        <ele>53.4</ele>
        <time>2012-03-29T18:14:30Z</time>
      </trkpt>
      <trkpt lat="60.0048746179" lon="23.544499608">
        <ele>53.2</ele>
        <time>2012-03-29T18:14:33Z</time>
      </trkpt>
      <trkpt lat="60.0047282699" lon="23.5447307808">
        <ele>53</ele>
        <time>2012-03-29T18:14:36Z</time>
      </trkpt>
      <trkpt lat="60.0045767252" lon="23.5449503866">
        <ele>52.8</ele>
        <time>2012-03-29T18:14:39Z</time>
      </trkpt>
      <trkpt lat="60.0044149545" lon="23.5451980718">
        <ele>52.6</ele>
        <time>2012-03-29T18:14:42Z</time>
      </trkpt>
      <trkpt lat="60.0042740548" lon="23.5454348604">
        <ele>52</ele>
        <time>2012-03-29T18:14:45Z</time>
      </trkpt>
      <trkpt lat="60.0041175647" lon="23.5457009858">
        <ele>51.6</ele>
        <time>2012-03-29T18:14:48Z</time>
      </trkpt>
      <trkpt lat="60.0040738112" lon="23.5457707232">
        <ele>51.4</ele>
        <time>2012-03-29T18:14:49Z</time>
      </trkpt>
      <trkpt lat="60.003653878" lon="23.5454191025">
        <ele>50.8</ele>
        <time>2012-03-29T18:14:58Z</time>
      </trkpt>
      <trkpt lat="60.0035443265" lon="23.5451017637">
        <ele>50.2</ele>
        <time>2012-03-29T18:15:01Z</time>
      </trkpt>
      <trkpt lat="60.0034398881" lon="23.5447954891">
        <ele>49.6</ele>
        <time>2012-03-29T18:15:04Z</time>
      </trkpt>
      <trkpt lat="60.0033298337" lon="23.5444675892">
        <ele>49.2</ele>
        <time>2012-03-29T18:15:07Z</time>
      </trkpt>
      <trkpt lat="60.0032276584" lon="23.5441596382">
        <ele>49</ele>
        <time>2012-03-29T18:15:10Z</time>
      </trkpt>
      <trkpt lat="60.0031158438" lon="23.5438448978">
        <ele>48.8</ele>
        <time>2012-03-29T18:15:13Z</time>
      </trkpt>
      <trkpt lat="60.0030066277" lon="23.5435448258">
        <ele>48.6</ele>
        <time>2012-03-29T18:15:16Z</time>
      </trkpt>
      <trkpt lat="60.0028991717" lon="23.5432348631">
        <ele>48.6</ele>
        <time>2012-03-29T18:15:19Z</time>
      </trkpt>
      <trkpt lat="60.002790207" lon="23.54291677">
        <ele>48.6</ele>
        <time>2012-03-29T18:15:22Z</time>
      </trkpt>
      <trkpt lat="60.0026831701" lon="23.542586607">
        <ele>48.4</ele>
        <time>2012-03-29T18:15:25Z</time>
      </trkpt>
      <trkpt lat="60.002582755" lon="23.5422859482">
        <ele>48.4</ele>
        <time>2012-03-29T18:15:28Z</time>
      </trkpt>
      <trkpt lat="60.0025505685" lon="23.5421856169">
        <ele>48.4</ele>
        <time>2012-03-29T18:15:29Z</time>
      </trkpt>
      <trkpt lat="60.0024815016" lon="23.5419894804">
        <ele>48.4</ele>
        <time>2012-03-29T18:15:31Z</time>
      </trkpt>
      <trkpt lat="60.0023649094" lon="23.541595112">
        <ele>48.4</ele>
        <time>2012-03-29T18:15:35Z</time>
      </trkpt>
      <trkpt lat="60.0022448806" lon="23.5411794536">
        <ele>48.4</ele>
        <time>2012-03-29T18:15:39Z</time>
      </trkpt>
      <trkpt lat="60.0021533502" lon="23.5408382265">
        <ele>48.4</ele>
        <time>2012-03-29T18:15:42Z</time>
      </trkpt>
      <trkpt lat="60.0020437988" lon="23.5404120069">
        <ele>47.6</ele>
        <time>2012-03-29T18:15:46Z</time>
      </trkpt>
      <trkpt lat="60.0019514303" lon="23.5400568658">
        <ele>47.2</ele>
        <time>2012-03-29T18:15:49Z</time>
      </trkpt>
      <trkpt lat="60.0018564633" lon="23.5396861343">
        <ele>47</ele>
        <time>2012-03-29T18:15:52Z</time>
      </trkpt>
      <trkpt lat="60.0017502647" lon="23.5392860662">
        <ele>46.6</ele>
        <time>2012-03-29T18:15:55Z</time>
      </trkpt>
      <trkpt lat="60.0016394559" lon="23.53891106">
        <ele>46</ele>
        <time>2012-03-29T18:15:58Z</time>
      </trkpt>
      <trkpt lat="60.001528312" lon="23.5385414182">
        <ele>45.4</ele>
        <time>2012-03-29T18:16:01Z</time>
      </trkpt>
      <trkpt lat="60.0014221133" lon="23.538219218">
        <ele>45.2</ele>
        <time>2012-03-29T18:16:04Z</time>
      </trkpt>
      <trkpt lat="60.0013127295" lon="23.5378836067">
        <ele>44.8</ele>
        <time>2012-03-29T18:16:07Z</time>
      </trkpt>
      <trkpt lat="60.0012156671" lon="23.5375737279">
        <ele>44.6</ele>
        <time>2012-03-29T18:16:10Z</time>
      </trkpt>
      <trkpt lat="60.0011064509" lon="23.5372491807">
        <ele>44.6</ele>
        <time>2012-03-29T18:16:13Z</time>
      </trkpt>
      <trkpt lat="60.0009875956" lon="23.5369353624">
        <ele>44.4</ele>
        <time>2012-03-29T18:16:16Z</time>
      </trkpt>
      <trkpt lat="60.0008597716" lon="23.5366063728">
        <ele>43.8</ele>
        <time>2012-03-29T18:16:19Z</time>
      </trkpt>
      <trkpt lat="60.0007285949" lon="23.5362789758">
        <ele>43.4</ele>
        <time>2012-03-29T18:16:22Z</time>
      </trkpt>
      <trkpt lat="60.00060119" lon="23.5359462144">
        <ele>43</ele>
        <time>2012-03-29T18:16:25Z</time>
      </trkpt>
      <trkpt lat="60.0004788143" lon="23.5356452203">
        <ele>42.8</ele>
        <time>2012-03-29T18:16:28Z</time>
      </trkpt>
      <trkpt lat="60.0003554327" lon="23.5353395324">
        <ele>42.6</ele>
        <time>2012-03-29T18:16:31Z</time>
      </trkpt>
      <trkpt lat="60.0002432829" lon="23.5350655281">
        <ele>42.4</ele>
        <time>2012-03-29T18:16:34Z</time>
      </trkpt>
      <trkpt lat="60.0001788261" lon="23.5346211198">
        <ele>42.2</ele>
        <time>2012-03-29T18:16:38Z</time>
      </trkpt>
      <trkpt lat="60.0002910597" lon="23.534359856">
        <ele>41.6</ele>
        <time>2012-03-29T18:16:41Z</time>
      </trkpt>
      <trkpt lat="60.0003364896" lon="23.534281569">
        <ele>41.4</ele>
        <time>2012-03-29T18:16:42Z</time>
      </trkpt>
      <trkpt lat="60.000476635" lon="23.5340353088">
        <ele>41.2</ele>
        <time>2012-03-29T18:16:45Z</time>
      </trkpt>
      <trkpt lat="60.0006526549" lon="23.5337172157">
        <ele>40.8</ele>
        <time>2012-03-29T18:16:49Z</time>
      </trkpt>
      <trkpt lat="60.0007555008" lon="23.5334575444">
        <ele>40.6</ele>
        <time>2012-03-29T18:16:52Z</time>
      </trkpt>
      <trkpt lat="60.0007592726" lon="23.5330851366">
        <ele>40.4</ele>
        <time>2012-03-29T18:16:56Z</time>
      </trkpt>
      <trkpt lat="60.0007181175" lon="23.5330318277">
        <ele>40.4</ele>
        <time>2012-03-29T18:16:57Z</time>
      </trkpt>
      <trkpt lat="60.0006759565" lon="23.5329647725">
        <ele>40.4</ele>
        <time>2012-03-29T18:16:58Z</time>
      </trkpt>
      <trkpt lat="60.0004462925" lon="23.532670484">
        <ele>40.2</ele>
        <time>2012-03-29T18:17:03Z</time>
      </trkpt>
      <trkpt lat="60.0002650758" lon="23.5324055322">
        <ele>40.2</ele>
        <time>2012-03-29T18:17:07Z</time>
      </trkpt>
      <trkpt lat="60.0000655866" lon="23.5321276722">
        <ele>40.2</ele>
        <time>2012-03-29T18:17:11Z</time>
      </trkpt>
      <trkpt lat="59.9999055761" lon="23.5319006903">
        <ele>40.2</ele>
        <time>2012-03-29T18:17:14Z</time>
      </trkpt>
      <trkpt lat="59.9997253653" lon="23.5316176336">
        <ele>40.2</ele>
        <time>2012-03-29T18:17:17Z</time>
      </trkpt>
      <trkpt lat="59.9995518599" lon="23.5313222554">
        <ele>40.2</ele>
        <time>2012-03-29T18:17:20Z</time>
      </trkpt>
      <trkpt lat="59.9993904245" lon="23.5310464071">
        <ele>40.2</ele>
        <time>2012-03-29T18:17:23Z</time>
      </trkpt>
      <trkpt lat="59.9992191823" lon="23.5307702235">
        <ele>40.2</ele>
        <time>2012-03-29T18:17:26Z</time>
      </trkpt>
      <trkpt lat="59.9990570764" lon="23.5304948781">
        <ele>40.2</ele>
        <time>2012-03-29T18:17:29Z</time>
      </trkpt>
      <trkpt lat="59.9988844931" lon="23.5302058701">
        <ele>40.2</ele>
        <time>2012-03-29T18:17:32Z</time>
      </trkpt>
      <trkpt lat="59.9987171065" lon="23.5299264176">
        <ele>39.6</ele>
        <time>2012-03-29T18:17:35Z</time>
      </trkpt>
      <trkpt lat="59.9985541624" lon="23.5296469651">
        <ele>39.2</ele>
        <time>2012-03-29T18:17:38Z</time>
      </trkpt>
      <trkpt lat="59.9983904639" lon="23.529373296">
        <ele>38.8</ele>
        <time>2012-03-29T18:17:41Z</time>
      </trkpt>
      <trkpt lat="59.9981475564" lon="23.5289733956">
        <ele>38.4</ele>
        <time>2012-03-29T18:17:45Z</time>
      </trkpt>
      <trkpt lat="59.998037083" lon="23.5288152291">
        <ele>37.8</ele>
        <time>2012-03-29T18:17:47Z</time>
      </trkpt>
      <trkpt lat="59.9979757275" lon="23.5287301528">
        <ele>37.6</ele>
        <time>2012-03-29T18:17:48Z</time>
      </trkpt>
      <trkpt lat="59.9977812674" lon="23.5284599204">
        <ele>37.2</ele>
        <time>2012-03-29T18:17:51Z</time>
      </trkpt>
      <trkpt lat="59.9975890704" lon="23.5281881792">
        <ele>36.6</ele>
        <time>2012-03-29T18:17:54Z</time>
      </trkpt>
      <trkpt lat="59.9973793553" lon="23.5279042004">
        <ele>35.8</ele>
        <time>2012-03-29T18:17:57Z</time>
      </trkpt>
      <trkpt lat="59.9971754236" lon="23.5276235744">
        <ele>35.2</ele>
        <time>2012-03-29T18:18:00Z</time>
      </trkpt>
      <trkpt lat="59.9969869147" lon="23.5273609695">
        <ele>34.2</ele>
        <time>2012-03-29T18:18:03Z</time>
      </trkpt>
      <trkpt lat="59.9967956398" lon="23.5271073332">
        <ele>33.4</ele>
        <time>2012-03-29T18:18:06Z</time>
      </trkpt>
      <trkpt lat="59.9966133334" lon="23.526870796">
        <ele>32.8</ele>
        <time>2012-03-29T18:18:09Z</time>
      </trkpt>
      <trkpt lat="59.9964359724" lon="23.5266294811">
        <ele>31.8</ele>
        <time>2012-03-29T18:18:12Z</time>
      </trkpt>
      <trkpt lat="59.996266239" lon="23.5264014096">
        <ele>31.2</ele>
        <time>2012-03-29T18:18:15Z</time>
      </trkpt>
      <trkpt lat="59.9962191327" lon="23.5263284032">
        <ele>31</ele>
        <time>2012-03-29T18:18:16Z</time>
      </trkpt>
      <trkpt lat="59.9961647341" lon="23.5260262357">
        <ele>30.6</ele>
        <time>2012-03-29T18:18:19Z</time>
      </trkpt>
      <trkpt lat="59.9962135168" lon="23.5258479527">
        <ele>30.4</ele>
        <time>2012-03-29T18:18:21Z</time>
      </trkpt>
      <trkpt lat="59.9963089866" lon="23.5256424285">
        <ele>30</ele>
        <time>2012-03-29T18:18:24Z</time>
      </trkpt>
      <trkpt lat="59.9965141756" lon="23.5253928155">
        <ele>29.8</ele>
        <time>2012-03-29T18:18:29Z</time>
      </trkpt>
      <trkpt lat="59.9965627068" lon="23.5253469665">
        <ele>29.8</ele>
        <time>2012-03-29T18:18:30Z</time>
      </trkpt>
      <trkpt lat="59.9966567517" lon="23.5252824259">
        <ele>29.6</ele>
        <time>2012-03-29T18:18:32Z</time>
      </trkpt>
      <trkpt lat="59.9968270719" lon="23.5252377504">
        <ele>29.6</ele>
        <time>2012-03-29T18:18:35Z</time>
      </trkpt>
      <trkpt lat="59.9971287365" lon="23.5253185519">
        <ele>29.4</ele>
        <time>2012-03-29T18:18:40Z</time>
      </trkpt>
      <trkpt lat="59.9973050916" lon="23.5254049693">
        <ele>29.4</ele>
        <time>2012-03-29T18:18:43Z</time>
      </trkpt>
      <trkpt lat="59.9975340851" lon="23.5255151913">
        <ele>29.4</ele>
        <time>2012-03-29T18:18:47Z</time>
      </trkpt>
      <trkpt lat="59.9977111947" lon="23.5256059672">
        <ele>29.4</ele>
        <time>2012-03-29T18:18:50Z</time>
      </trkpt>
      <trkpt lat="59.9979302137" lon="23.5256882775">
        <ele>29.4</ele>
        <time>2012-03-29T18:18:54Z</time>
      </trkpt>
      <trkpt lat="59.9981494004" lon="23.5257824901">
        <ele>29.4</ele>
        <time>2012-03-29T18:18:58Z</time>
      </trkpt>
      <trkpt lat="59.9983669945" lon="23.5258289258">
        <ele>29.4</ele>
        <time>2012-03-29T18:19:02Z</time>
      </trkpt>
      <trkpt lat="59.998576542" lon="23.5258203762">
        <ele>29.4</ele>
        <time>2012-03-29T18:19:06Z</time>
      </trkpt>
      <trkpt lat="59.9987646319" lon="23.5257517285">
        <ele>30</ele>
        <time>2012-03-29T18:19:10Z</time>
      </trkpt>
      <trkpt lat="59.9989437531" lon="23.5256615392">
        <ele>30.6</ele>
        <time>2012-03-29T18:19:14Z</time>
      </trkpt>
      <trkpt lat="59.999122539" lon="23.5255527422">
        <ele>30.8</ele>
        <time>2012-03-29T18:19:18Z</time>
      </trkpt>
      <trkpt lat="59.9992523746" lon="23.5254661571">
        <ele>31.2</ele>
        <time>2012-03-29T18:19:21Z</time>
      </trkpt>
      <trkpt lat="59.9994870678" lon="23.5253802427">
        <ele>32.2</ele>
        <time>2012-03-29T18:19:26Z</time>
      </trkpt>
      <trkpt lat="59.99967038" lon="23.5252990221">
        <ele>32.6</ele>
        <time>2012-03-29T18:19:30Z</time>
      </trkpt>
      <trkpt lat="59.999891746" lon="23.525194835">
        <ele>33</ele>
        <time>2012-03-29T18:19:35Z</time>
      </trkpt>
      <trkpt lat="60.0001094239" lon="23.5250963477">
        <ele>33.8</ele>
        <time>2012-03-29T18:19:40Z</time>
      </trkpt>
      <trkpt lat="60.0002981005" lon="23.5250375068">
        <ele>34.4</ele>
        <time>2012-03-29T18:19:44Z</time>
      </trkpt>
      <trkpt lat="60.0005021159" lon="23.5249620697">
        <ele>34.8</ele>
        <time>2012-03-29T18:19:48Z</time>
      </trkpt>
      <trkpt lat="60.0007083945" lon="23.5248603972">
        <ele>35</ele>
        <time>2012-03-29T18:19:52Z</time>
      </trkpt>
      <trkpt lat="60.0008618671" lon="23.5247672743">
        <ele>35.8</ele>
        <time>2012-03-29T18:19:55Z</time>
      </trkpt>
      <trkpt lat="60.0010870049" lon="23.5245668631">
        <ele>36.6</ele>
        <time>2012-03-29T18:20:00Z</time>
      </trkpt>
      <trkpt lat="60.0011252264" lon="23.5245210141">
        <ele>36.6</ele>
        <time>2012-03-29T18:20:01Z</time>
      </trkpt>
      <trkpt lat="60.0012788666" lon="23.5242854827">
        <ele>37.2</ele>
        <time>2012-03-29T18:20:05Z</time>
      </trkpt>
      <trkpt lat="60.0014159945" lon="23.5240099697">
        <ele>38</ele>
        <time>2012-03-29T18:20:09Z</time>
      </trkpt>
      <trkpt lat="60.0015166611" lon="23.5237792998">
        <ele>38.6</ele>
        <time>2012-03-29T18:20:12Z</time>
      </trkpt>
      <trkpt lat="60.001658902" lon="23.5233676647">
        <ele>39.2</ele>
        <time>2012-03-29T18:20:17Z</time>
      </trkpt>
      <trkpt lat="60.0016808625" lon="23.5232842648">
        <ele>39.6</ele>
        <time>2012-03-29T18:20:18Z</time>
      </trkpt>
      <trkpt lat="60.0017286394" lon="23.5230138647">
        <ele>40.2</ele>
        <time>2012-03-29T18:20:21Z</time>
      </trkpt>
      <trkpt lat="60.0017664417" lon="23.5224948574">
        <ele>40.8</ele>
        <time>2012-03-29T18:20:26Z</time>
      </trkpt>
      <trkpt lat="60.0017642624" lon="23.5222902552">
        <ele>41</ele>
        <time>2012-03-29T18:20:28Z</time>
      </trkpt>
      <trkpt lat="60.0017529469" lon="23.5220817974">
        <ele>41.4</ele>
        <time>2012-03-29T18:20:30Z</time>
      </trkpt>
      <trkpt lat="60.0016994704" lon="23.5216650493">
        <ele>42.4</ele>
        <time>2012-03-29T18:20:34Z</time>
      </trkpt>
      <trkpt lat="60.0016801082" lon="23.5215472836">
        <ele>42.6</ele>
        <time>2012-03-29T18:20:35Z</time>
      </trkpt>
      <trkpt lat="60.0015252107" lon="23.5210560205">
        <ele>43.2</ele>
        <time>2012-03-29T18:20:40Z</time>
      </trkpt>
      <trkpt lat="60.0014835526" lon="23.520959461">
        <ele>43.2</ele>
        <time>2012-03-29T18:20:41Z</time>
      </trkpt>
      <trkpt lat="60.0013485202" lon="23.520716805">
        <ele>43.4</ele>
        <time>2012-03-29T18:20:44Z</time>
      </trkpt>
      <trkpt lat="60.0011883421" lon="23.5204952714">
        <ele>43.6</ele>
        <time>2012-03-29T18:20:47Z</time>
      </trkpt>
      <trkpt lat="60.0010222966" lon="23.5203341712">
        <ele>43.8</ele>
        <time>2012-03-29T18:20:50Z</time>
      </trkpt>
      <trkpt lat="60.0008473664" lon="23.5201971272">
        <ele>43.8</ele>
        <time>2012-03-29T18:20:53Z</time>
      </trkpt>
      <trkpt lat="60.0006750345" lon="23.520055054">
        <ele>43.8</ele>
        <time>2012-03-29T18:20:56Z</time>
      </trkpt>
      <trkpt lat="60.0005712666" lon="23.5199389647">
        <ele>44</ele>
        <time>2012-03-29T18:20:58Z</time>
      </trkpt>
      <trkpt lat="60.0003839311" lon="23.5196126573">
        <ele>44</ele>
        <time>2012-03-29T18:21:02Z</time>
      </trkpt>
      <trkpt lat="60.0002629803" lon="23.5193260801">
        <ele>44</ele>
        <time>2012-03-29T18:21:05Z</time>
      </trkpt>
      <trkpt lat="60.0002323864" lon="23.519226587">
        <ele>44</ele>
        <time>2012-03-29T18:21:06Z</time>
      </trkpt>
      <trkpt lat="60.000161727" lon="23.5188771456">
        <ele>44</ele>
        <time>2012-03-29T18:21:09Z</time>
      </trkpt>
      <trkpt lat="60.0000914028" lon="23.5184981999">
        <ele>44</ele>
        <time>2012-03-29T18:21:12Z</time>
      </trkpt>
      <trkpt lat="60.0000137864" lon="23.5181330005">
        <ele>44</ele>
        <time>2012-03-29T18:21:15Z</time>
      </trkpt>
      <trkpt lat="59.9999257765" lon="23.5177762668">
        <ele>44</ele>
        <time>2012-03-29T18:21:18Z</time>
      </trkpt>
      <trkpt lat="59.9998312287" lon="23.5174409908">
        <ele>44</ele>
        <time>2012-03-29T18:21:21Z</time>
      </trkpt>
      <trkpt lat="59.9997448113" lon="23.5171057986">
        <ele>44</ele>
        <time>2012-03-29T18:21:24Z</time>
      </trkpt>
      <trkpt lat="59.9996474136" lon="23.5167484782">
        <ele>44</ele>
        <time>2012-03-29T18:21:27Z</time>
      </trkpt>
      <trkpt lat="59.9995447353" lon="23.5164303851">
        <ele>44</ele>
        <time>2012-03-29T18:21:30Z</time>
      </trkpt>
      <trkpt lat="59.9994407998" lon="23.5161108671">
        <ele>44</ele>
        <time>2012-03-29T18:21:33Z</time>
      </trkpt>
      <trkpt lat="59.9993356907" lon="23.5157860685">
        <ele>44</ele>
        <time>2012-03-29T18:21:36Z</time>
      </trkpt>
      <trkpt lat="59.999226726" lon="23.5154589229">
        <ele>44</ele>
        <time>2012-03-29T18:21:39Z</time>
      </trkpt>
      <trkpt lat="59.9991038474" lon="23.5151395725">
        <ele>44</ele>
        <time>2012-03-29T18:21:42Z</time>
      </trkpt>
      <trkpt lat="59.9989868361" lon="23.5148359801">
        <ele>44</ele>
        <time>2012-03-29T18:21:45Z</time>
      </trkpt>
      <trkpt lat="59.9988594312" lon="23.5145356566">
        <ele>44</ele>
        <time>2012-03-29T18:21:48Z</time>
      </trkpt>
      <trkpt lat="59.9987269133" lon="23.5142135402">
        <ele>44</ele>
        <time>2012-03-29T18:21:51Z</time>
      </trkpt>
      <trkpt lat="59.9985892825" lon="23.5139194193">
        <ele>44</ele>
        <time>2012-03-29T18:21:54Z</time>
      </trkpt>
      <trkpt lat="59.9983463751" lon="23.5134305869">
        <ele>44</ele>
        <time>2012-03-29T18:21:59Z</time>
      </trkpt>
      <trkpt lat="59.9981837662" lon="23.5131474464">
        <ele>44</ele>
        <time>2012-03-29T18:22:02Z</time>
      </trkpt>
      <trkpt lat="59.9980408548" lon="23.5129016891">
        <ele>44</ele>
        <time>2012-03-29T18:22:05Z</time>
      </trkpt>
      <trkpt lat="59.9978898968" lon="23.5126346417">
        <ele>44</ele>
        <time>2012-03-29T18:22:08Z</time>
      </trkpt>
      <trkpt lat="59.9977410343" lon="23.5123856993">
        <ele>44</ele>
        <time>2012-03-29T18:22:11Z</time>
      </trkpt>
      <trkpt lat="59.9976010565" lon="23.5121472342">
        <ele>44</ele>
        <time>2012-03-29T18:22:14Z</time>
      </trkpt>
      <trkpt lat="59.9974427224" lon="23.5119223479">
        <ele>43.4</ele>
        <time>2012-03-29T18:22:17Z</time>
      </trkpt>
      <trkpt lat="59.9972790239" lon="23.5117169913">
        <ele>43</ele>
        <time>2012-03-29T18:22:20Z</time>
      </trkpt>
      <trkpt lat="59.9971242941" lon="23.5115107966">
        <ele>42.8</ele>
        <time>2012-03-29T18:22:23Z</time>
      </trkpt>
      <trkpt lat="59.9969679716" lon="23.5113126484">
        <ele>42.6</ele>
        <time>2012-03-29T18:22:26Z</time>
      </trkpt>
      <trkpt lat="59.9968082126" lon="23.5111201162">
        <ele>42.4</ele>
        <time>2012-03-29T18:22:29Z</time>
      </trkpt>
      <trkpt lat="59.9966430054" lon="23.5109371393">
        <ele>42.2</ele>
        <time>2012-03-29T18:22:32Z</time>
      </trkpt>
      <trkpt lat="59.9964481262" lon="23.5107379854">
        <ele>42</ele>
        <time>2012-03-29T18:22:36Z</time>
      </trkpt>
      <trkpt lat="59.9964114135" lon="23.5107042901">
        <ele>41.8</ele>
        <time>2012-03-29T18:22:37Z</time>
      </trkpt>
      <trkpt lat="59.9963247446" lon="23.5105520748">
        <ele>41.2</ele>
        <time>2012-03-29T18:22:41Z</time>
      </trkpt>
      <trkpt lat="59.9962005249" lon="23.510693729">
        <ele>40.8</ele>
        <time>2012-03-29T18:22:45Z</time>
      </trkpt>
      <trkpt lat="59.9961802407" lon="23.5107710939">
        <ele>40.6</ele>
        <time>2012-03-29T18:22:46Z</time>
      </trkpt>
      <trkpt lat="59.9960972598" lon="23.5111560746">
        <ele>40.4</ele>
        <time>2012-03-29T18:22:50Z</time>
      </trkpt>
      <trkpt lat="59.9960188891" lon="23.5114903447">
        <ele>40.2</ele>
        <time>2012-03-29T18:22:53Z</time>
      </trkpt>
      <trkpt lat="59.9959687653" lon="23.5117200926">
        <ele>40.2</ele>
        <time>2012-03-29T18:22:55Z</time>
      </trkpt>
      <trkpt lat="59.9959465533" lon="23.5118217651">
        <ele>40.2</ele>
        <time>2012-03-29T18:22:56Z</time>
      </trkpt>
      <trkpt lat="59.995862399" lon="23.512173721">
        <ele>40.2</ele>
        <time>2012-03-29T18:22:59Z</time>
      </trkpt>
      <trkpt lat="59.9957777418" lon="23.5125485596">
        <ele>39.6</ele>
        <time>2012-03-29T18:23:02Z</time>
      </trkpt>
      <trkpt lat="59.9956957668" lon="23.512918369">
        <ele>39.2</ele>
        <time>2012-03-29T18:23:05Z</time>
      </trkpt>
      <trkpt lat="59.9956148815" lon="23.513265715">
        <ele>38.8</ele>
        <time>2012-03-29T18:23:08Z</time>
      </trkpt>
      <trkpt lat="59.995539612" lon="23.5136158269">
        <ele>38.6</ele>
        <time>2012-03-29T18:23:11Z</time>
      </trkpt>
      <trkpt lat="59.9954699585" lon="23.5139484207">
        <ele>38.4</ele>
        <time>2012-03-29T18:23:14Z</time>
      </trkpt>
      <trkpt lat="59.9954083515" lon="23.5143017178">
        <ele>38.2</ele>
        <time>2012-03-29T18:23:17Z</time>
      </trkpt>
      <trkpt lat="59.9953638436" lon="23.514667923">
        <ele>38.2</ele>
        <time>2012-03-29T18:23:20Z</time>
      </trkpt>
      <trkpt lat="59.9953355128" lon="23.5150454438">
        <ele>38.2</ele>
        <time>2012-03-29T18:23:23Z</time>
      </trkpt>
      <trkpt lat="59.9953173241" lon="23.5154549834">
        <ele>38</ele>
        <time>2012-03-29T18:23:26Z</time>
      </trkpt>
      <trkpt lat="59.9953107024" lon="23.51587148">
        <ele>37.6</ele>
        <time>2012-03-29T18:23:29Z</time>
      </trkpt>
      <trkpt lat="59.9953051703" lon="23.5163086799">
        <ele>37.2</ele>
        <time>2012-03-29T18:23:32Z</time>
      </trkpt>
      <trkpt lat="59.995299303" lon="23.5167279426">
        <ele>36.8</ele>
        <time>2012-03-29T18:23:35Z</time>
      </trkpt>
      <trkpt lat="59.9952780129" lon="23.517266312">
        <ele>36.6</ele>
        <time>2012-03-29T18:23:39Z</time>
      </trkpt>
      <trkpt lat="59.9952469161" lon="23.5176864967">
        <ele>36.4</ele>
        <time>2012-03-29T18:23:42Z</time>
      </trkpt>
      <trkpt lat="59.9952001451" lon="23.5180902528">
        <ele>36</ele>
        <time>2012-03-29T18:23:45Z</time>
      </trkpt>
      <trkpt lat="59.9951374485" lon="23.5184883092">
        <ele>35.6</ele>
        <time>2012-03-29T18:23:48Z</time>
      </trkpt>
      <trkpt lat="59.995061257" lon="23.5188798278">
        <ele>35</ele>
        <time>2012-03-29T18:23:51Z</time>
      </trkpt>
      <trkpt lat="59.9949703972" lon="23.5192395789">
        <ele>34.8</ele>
        <time>2012-03-29T18:23:54Z</time>
      </trkpt>
      <trkpt lat="59.9948613487" lon="23.5196061194">
        <ele>34.4</ele>
        <time>2012-03-29T18:23:57Z</time>
      </trkpt>
      <trkpt lat="59.9947446726" lon="23.5199411439">
        <ele>34.2</ele>
        <time>2012-03-29T18:24:00Z</time>
      </trkpt>
      <trkpt lat="59.9946191118" lon="23.5202618354">
        <ele>34.2</ele>
        <time>2012-03-29T18:24:03Z</time>
      </trkpt>
      <trkpt lat="59.9944829059" lon="23.5205619913">
        <ele>34</ele>
        <time>2012-03-29T18:24:06Z</time>
      </trkpt>
      <trkpt lat="59.9943336243" lon="23.5208143703">
        <ele>33.4</ele>
        <time>2012-03-29T18:24:09Z</time>
      </trkpt>
      <trkpt lat="59.9941792297" lon="23.5210390052">
        <ele>33</ele>
        <time>2012-03-29T18:24:12Z</time>
      </trkpt>
      <trkpt lat="59.9940255056" lon="23.5212394164">
        <ele>32.6</ele>
        <time>2012-03-29T18:24:15Z</time>
      </trkpt>
      <trkpt lat="59.9938621424" lon="23.5214030311">
        <ele>32.4</ele>
        <time>2012-03-29T18:24:18Z</time>
      </trkpt>
      <trkpt lat="59.9936494098" lon="23.5215615329">
        <ele>32.2</ele>
        <time>2012-03-29T18:24:22Z</time>
      </trkpt>
      <trkpt lat="59.9934201648" lon="23.5216555778">
        <ele>32</ele>
        <time>2012-03-29T18:24:26Z</time>
      </trkpt>
      <trkpt lat="59.9931903331" lon="23.5216687374">
        <ele>32</ele>
        <time>2012-03-29T18:24:30Z</time>
      </trkpt>
      <trkpt lat="59.9929687995" lon="23.5216196194">
        <ele>31.8</ele>
        <time>2012-03-29T18:24:34Z</time>
      </trkpt>
      <trkpt lat="59.9927225393" lon="23.5215005964">
        <ele>31.8</ele>
        <time>2012-03-29T18:24:38Z</time>
      </trkpt>
      <trkpt lat="59.9924808891" lon="23.5212900431">
        <ele>31.8</ele>
        <time>2012-03-29T18:24:43Z</time>
      </trkpt>
      <trkpt lat="59.992263295" lon="23.5210895481">
        <ele>31.8</ele>
        <time>2012-03-29T18:24:47Z</time>
      </trkpt>
      <trkpt lat="59.9921007699" lon="23.5209229159">
        <ele>31.8</ele>
        <time>2012-03-29T18:24:50Z</time>
      </trkpt>
      <trkpt lat="59.9919351436" lon="23.5207673478">
        <ele>31.8</ele>
        <time>2012-03-29T18:24:53Z</time>
      </trkpt>
      <trkpt lat="59.9917634823" lon="23.520644553">
        <ele>31.8</ele>
        <time>2012-03-29T18:24:56Z</time>
      </trkpt>
      <trkpt lat="59.9915704471" lon="23.5205181539">
        <ele>31.8</ele>
        <time>2012-03-29T18:24:59Z</time>
      </trkpt>
      <trkpt lat="59.991394511" lon="23.520427378">
        <ele>31.6</ele>
        <time>2012-03-29T18:25:02Z</time>
      </trkpt>
      <trkpt lat="59.9913444711" lon="23.5204096083">
        <ele>31.4</ele>
        <time>2012-03-29T18:25:03Z</time>
      </trkpt>
      <trkpt lat="59.9913022263" lon="23.5204004721">
        <ele>31.2</ele>
        <time>2012-03-29T18:25:04Z</time>
      </trkpt>
      <trkpt lat="59.9911751567" lon="23.520181453">
        <ele>30.6</ele>
        <time>2012-03-29T18:25:08Z</time>
      </trkpt>
      <trkpt lat="59.9912113665" lon="23.5198283236">
        <ele>30.4</ele>
        <time>2012-03-29T18:25:11Z</time>
      </trkpt>
      <trkpt lat="59.991238021" lon="23.5197139945">
        <ele>30.2</ele>
        <time>2012-03-29T18:25:12Z</time>
      </trkpt>
      <trkpt lat="59.991384788" lon="23.5192285148">
        <ele>29.2</ele>
        <time>2012-03-29T18:25:17Z</time>
      </trkpt>
      <trkpt lat="59.9914109396" lon="23.5191389123">
        <ele>29</ele>
        <time>2012-03-29T18:25:18Z</time>
      </trkpt>
      <trkpt lat="59.991488556" lon="23.5188750501">
        <ele>28.6</ele>
        <time>2012-03-29T18:25:21Z</time>
      </trkpt>
      <trkpt lat="59.9915989456" lon="23.5185395226">
        <ele>28.2</ele>
        <time>2012-03-29T18:25:25Z</time>
      </trkpt>
      <trkpt lat="59.9916281146" lon="23.5184528538">
        <ele>28.2</ele>
        <time>2012-03-29T18:25:26Z</time>
      </trkpt>
      <trkpt lat="59.9917324692" lon="23.5180889117">
        <ele>28</ele>
        <time>2012-03-29T18:25:30Z</time>
      </trkpt>
      <trkpt lat="59.9918482233" lon="23.5177061941">
        <ele>27.8</ele>
        <time>2012-03-29T18:25:34Z</time>
      </trkpt>
      <trkpt lat="59.9919169549" lon="23.5175234687">
        <ele>27.8</ele>
        <time>2012-03-29T18:25:36Z</time>
      </trkpt>
      <trkpt lat="59.9920744508" lon="23.5172611152">
        <ele>27.6</ele>
        <time>2012-03-29T18:25:40Z</time>
      </trkpt>
      <trkpt lat="59.9921477924" lon="23.517144523">
        <ele>27.6</ele>
        <time>2012-03-29T18:25:42Z</time>
      </trkpt>
      <trkpt lat="59.9922757002" lon="23.5168172098">
        <ele>27.6</ele>
        <time>2012-03-29T18:25:46Z</time>
      </trkpt>
      <trkpt lat="59.9922980799" lon="23.516700869">
        <ele>27.6</ele>
        <time>2012-03-29T18:25:47Z</time>
      </trkpt>
      <trkpt lat="59.9923298473" lon="23.5164968536">
        <ele>27.8</ele>
        <time>2012-03-29T18:25:49Z</time>
      </trkpt>
      <trkpt lat="59.9923549091" lon="23.516272051">
        <ele>28</ele>
        <time>2012-03-29T18:25:51Z</time>
      </trkpt>
      <trkpt lat="59.9923921248" lon="23.5157479308">
        <ele>28.6</ele>
        <time>2012-03-29T18:25:56Z</time>
      </trkpt>
      <trkpt lat="59.9924038594" lon="23.5156391338">
        <ele>28.8</ele>
        <time>2012-03-29T18:25:57Z</time>
      </trkpt>
      <trkpt lat="59.9924232216" lon="23.5154952165">
        <ele>28.8</ele>
        <time>2012-03-29T18:25:58Z</time>
      </trkpt>
      <trkpt lat="59.992588848" lon="23.5149729404">
        <ele>29.2</ele>
        <time>2012-03-29T18:26:04Z</time>
      </trkpt>
      <trkpt lat="59.9926336073" lon="23.5148844275">
        <ele>29.2</ele>
        <time>2012-03-29T18:26:05Z</time>
      </trkpt>
      <trkpt lat="59.9927957971" lon="23.5146010355">
        <ele>29.4</ele>
        <time>2012-03-29T18:26:09Z</time>
      </trkpt>
      <trkpt lat="59.992977349" lon="23.5143167214">
        <ele>29.4</ele>
        <time>2012-03-29T18:26:13Z</time>
      </trkpt>
      <trkpt lat="59.9931597392" lon="23.5140566311">
        <ele>29.4</ele>
        <time>2012-03-29T18:26:17Z</time>
      </trkpt>
      <trkpt lat="59.9933240244" lon="23.5137646895">
        <ele>29.6</ele>
        <time>2012-03-29T18:26:21Z</time>
      </trkpt>
      <trkpt lat="59.9934795925" lon="23.5134552297">
        <ele>30.4</ele>
        <time>2012-03-29T18:26:25Z</time>
      </trkpt>
      <trkpt lat="59.9935830251" lon="23.5132201174">
        <ele>30.6</ele>
        <time>2012-03-29T18:26:28Z</time>
      </trkpt>
      <trkpt lat="59.9937091727" lon="23.5127755415">
        <ele>31</ele>
        <time>2012-03-29T18:26:33Z</time>
      </trkpt>
      <trkpt lat="59.9937840231" lon="23.5124230826">
        <ele>31.2</ele>
        <time>2012-03-29T18:26:37Z</time>
      </trkpt>
      <trkpt lat="59.9938421935" lon="23.5120396945">
        <ele>31.4</ele>
        <time>2012-03-29T18:26:41Z</time>
      </trkpt>
      <trkpt lat="59.9938996933" lon="23.5116675381">
        <ele>31.4</ele>
        <time>2012-03-29T18:26:45Z</time>
      </trkpt>
      <trkpt lat="59.9939615517" lon="23.5112865807">
        <ele>31.4</ele>
        <time>2012-03-29T18:26:49Z</time>
      </trkpt>
      <trkpt lat="59.9940356477" lon="23.510881735">
        <ele>31.8</ele>
        <time>2012-03-29T18:26:53Z</time>
      </trkpt>
      <trkpt lat="59.9941032058" lon="23.5104729497">
        <ele>32.4</ele>
        <time>2012-03-29T18:26:57Z</time>
      </trkpt>
      <trkpt lat="59.9941623821" lon="23.5100451375">
        <ele>32.8</ele>
        <time>2012-03-29T18:27:01Z</time>
      </trkpt>
      <trkpt lat="59.9941969993" lon="23.5096034114">
        <ele>33.2</ele>
        <time>2012-03-29T18:27:05Z</time>
      </trkpt>
      <trkpt lat="59.9942046268" lon="23.50949386">
        <ele>33.2</ele>
        <time>2012-03-29T18:27:06Z</time>
      </trkpt>
      <trkpt lat="59.9941910482" lon="23.5089414089">
        <ele>33.4</ele>
        <time>2012-03-29T18:27:11Z</time>
      </trkpt>
      <trkpt lat="59.9941566824" lon="23.5085134291">
        <ele>33.4</ele>
        <time>2012-03-29T18:27:15Z</time>
      </trkpt>
      <trkpt lat="59.9941172036" lon="23.5080799173">
        <ele>33.4</ele>
        <time>2012-03-29T18:27:19Z</time>
      </trkpt>
      <trkpt lat="59.9940762999" lon="23.5076301445">
        <ele>33.6</ele>
        <time>2012-03-29T18:27:23Z</time>
      </trkpt>
      <trkpt lat="59.9940381623" lon="23.5071909329">
        <ele>33.6</ele>
        <time>2012-03-29T18:27:27Z</time>
      </trkpt>
      <trkpt lat="59.9939915589" lon="23.5067629531">
        <ele>33.6</ele>
        <time>2012-03-29T18:27:31Z</time>
      </trkpt>
      <trkpt lat="59.9939568579" lon="23.5063467918">
        <ele>33.6</ele>
        <time>2012-03-29T18:27:35Z</time>
      </trkpt>
      <trkpt lat="59.993941519" lon="23.5059458017">
        <ele>33.6</ele>
        <time>2012-03-29T18:27:39Z</time>
      </trkpt>
      <trkpt lat="59.9939845181" lon="23.5051659497">
        <ele>33.8</ele>
        <time>2012-03-29T18:27:47Z</time>
      </trkpt>
      <trkpt lat="59.9939975939" lon="23.5050936139">
        <ele>34</ele>
        <time>2012-03-29T18:27:48Z</time>
      </trkpt>
      <trkpt lat="59.9940147768" lon="23.5050243794">
        <ele>34.2</ele>
        <time>2012-03-29T18:27:49Z</time>
      </trkpt>
      <trkpt lat="59.994029026" lon="23.5047582541">
        <ele>34.8</ele>
        <time>2012-03-29T18:27:54Z</time>
      </trkpt>
      <trkpt lat="59.9939330533" lon="23.5045068809">
        <ele>35</ele>
        <time>2012-03-29T18:27:58Z</time>
      </trkpt>
      <trkpt lat="59.9938927363" lon="23.504450806">
        <ele>35.2</ele>
        <time>2012-03-29T18:27:59Z</time>
      </trkpt>
      <trkpt lat="59.9936674309" lon="23.5041560984">
        <ele>35.4</ele>
        <time>2012-03-29T18:28:04Z</time>
      </trkpt>
      <trkpt lat="59.9935158023" lon="23.5039597105">
        <ele>35.4</ele>
        <time>2012-03-29T18:28:07Z</time>
      </trkpt>
      <trkpt lat="59.9934198295" lon="23.5038350716">
        <ele>35.4</ele>
        <time>2012-03-29T18:28:09Z</time>
      </trkpt>
      <trkpt lat="59.9933204202" lon="23.5036857062">
        <ele>35.4</ele>
        <time>2012-03-29T18:28:11Z</time>
      </trkpt>
      <trkpt lat="59.9931766706" lon="23.5034386916">
        <ele>35.6</ele>
        <time>2012-03-29T18:28:14Z</time>
      </trkpt>
      <trkpt lat="59.9930297359" lon="23.5031796909">
        <ele>35.6</ele>
        <time>2012-03-29T18:28:17Z</time>
      </trkpt>
      <trkpt lat="59.9928835556" lon="23.5029099613">
        <ele>35.6</ele>
        <time>2012-03-29T18:28:20Z</time>
      </trkpt>
      <trkpt lat="59.9927292448" lon="23.502632269">
        <ele>35.6</ele>
        <time>2012-03-29T18:28:23Z</time>
      </trkpt>
      <trkpt lat="59.9925594275" lon="23.5023161875">
        <ele>35</ele>
        <time>2012-03-29T18:28:26Z</time>
      </trkpt>
      <trkpt lat="59.9924039433" lon="23.50199273">
        <ele>34.6</ele>
        <time>2012-03-29T18:28:29Z</time>
      </trkpt>
      <trkpt lat="59.9922589364" lon="23.5016458032">
        <ele>33.8</ele>
        <time>2012-03-29T18:28:32Z</time>
      </trkpt>
      <trkpt lat="59.9921246583" lon="23.5013116168">
        <ele>33.2</ele>
        <time>2012-03-29T18:28:35Z</time>
      </trkpt>
      <trkpt lat="59.9919681683" lon="23.5008611735">
        <ele>32.4</ele>
        <time>2012-03-29T18:28:39Z</time>
      </trkpt>
      <trkpt lat="59.9918091636" lon="23.5004258176">
        <ele>32</ele>
        <time>2012-03-29T18:28:43Z</time>
      </trkpt>
      <trkpt lat="59.9916074113" lon="23.4999525756">
        <ele>31.8</ele>
        <time>2012-03-29T18:28:48Z</time>
      </trkpt>
      <trkpt lat="59.9914893103" lon="23.4996616398">
        <ele>31.6</ele>
        <time>2012-03-29T18:28:51Z</time>
      </trkpt>
      <trkpt lat="59.9913688624" lon="23.4993610649">
        <ele>31.4</ele>
        <time>2012-03-29T18:28:54Z</time>
      </trkpt>
      <trkpt lat="59.9913286293" lon="23.4992723844">
        <ele>31.4</ele>
        <time>2012-03-29T18:28:55Z</time>
      </trkpt>
      <trkpt lat="59.9911445628" lon="23.4988069375">
        <ele>31.4</ele>
        <time>2012-03-29T18:28:59Z</time>
      </trkpt>
      <trkpt lat="59.9910008132" lon="23.4984620223">
        <ele>31.4</ele>
        <time>2012-03-29T18:29:02Z</time>
      </trkpt>
      <trkpt lat="59.9908677086" lon="23.4981285903">
        <ele>31.4</ele>
        <time>2012-03-29T18:29:05Z</time>
      </trkpt>
      <trkpt lat="59.9907335982" lon="23.4977819149">
        <ele>31.2</ele>
        <time>2012-03-29T18:29:08Z</time>
      </trkpt>
      <trkpt lat="59.9906046846" lon="23.4974330602">
        <ele>31.2</ele>
        <time>2012-03-29T18:29:11Z</time>
      </trkpt>
      <trkpt lat="59.9904844882" lon="23.4970753207">
        <ele>31.2</ele>
        <time>2012-03-29T18:29:14Z</time>
      </trkpt>
      <trkpt lat="59.9903619448" lon="23.4967185033">
        <ele>31.2</ele>
        <time>2012-03-29T18:29:17Z</time>
      </trkpt>
      <trkpt lat="59.9902418321" lon="23.4963589198">
        <ele>31.2</ele>
        <time>2012-03-29T18:29:20Z</time>
      </trkpt>
      <trkpt lat="59.9902146748" lon="23.4962570797">
        <ele>31.2</ele>
        <time>2012-03-29T18:29:21Z</time>
      </trkpt>
      <trkpt lat="59.9901086438" lon="23.4958648906">
        <ele>31.2</ele>
        <time>2012-03-29T18:29:25Z</time>
      </trkpt>
      <trkpt lat="59.9900144312" lon="23.4955115935">
        <ele>31.4</ele>
        <time>2012-03-29T18:29:29Z</time>
      </trkpt>
      <trkpt lat="59.9899215597" lon="23.4951254393">
        <ele>32</ele>
        <time>2012-03-29T18:29:33Z</time>
      </trkpt>
      <trkpt lat="59.9898201388" lon="23.4947578092">
        <ele>32.4</ele>
        <time>2012-03-29T18:29:37Z</time>
      </trkpt>
      <trkpt lat="59.9897077375" lon="23.4943562324">
        <ele>32.8</ele>
        <time>2012-03-29T18:29:41Z</time>
      </trkpt>
      <trkpt lat="59.989611178" lon="23.4939832378">
        <ele>33</ele>
        <time>2012-03-29T18:29:45Z</time>
      </trkpt>
      <trkpt lat="59.989513948" lon="23.4935924737">
        <ele>33</ele>
        <time>2012-03-29T18:29:49Z</time>
      </trkpt>
      <trkpt lat="59.9894132813" lon="23.4932041402">
        <ele>33</ele>
        <time>2012-03-29T18:29:53Z</time>
      </trkpt>
      <trkpt lat="59.9893207452" lon="23.492831481">
        <ele>33.2</ele>
        <time>2012-03-29T18:29:57Z</time>
      </trkpt>
      <trkpt lat="59.9892978626" lon="23.4927486678">
        <ele>33.4</ele>
        <time>2012-03-29T18:29:58Z</time>
      </trkpt>
      <trkpt lat="59.9891903228" lon="23.492268804">
        <ele>34.2</ele>
        <time>2012-03-29T18:30:03Z</time>
      </trkpt>
      <trkpt lat="59.989155957" lon="23.4920762718">
        <ele>34.4</ele>
        <time>2012-03-29T18:30:05Z</time>
      </trkpt>
      <trkpt lat="59.9890609063" lon="23.4915710947">
        <ele>34.8</ele>
        <time>2012-03-29T18:30:11Z</time>
      </trkpt>
      <trkpt lat="59.9890034902" lon="23.4912279397">
        <ele>35</ele>
        <time>2012-03-29T18:30:15Z</time>
      </trkpt>
      <trkpt lat="59.9889442302" lon="23.4908695296">
        <ele>35.2</ele>
        <time>2012-03-29T18:30:19Z</time>
      </trkpt>
      <trkpt lat="59.9888729841" lon="23.4904860577">
        <ele>35.2</ele>
        <time>2012-03-29T18:30:23Z</time>
      </trkpt>
      <trkpt lat="59.9887698029" lon="23.4901217803">
        <ele>35.4</ele>
        <time>2012-03-29T18:30:27Z</time>
      </trkpt>
      <trkpt lat="59.9886519534" lon="23.4897708302">
        <ele>36.2</ele>
        <time>2012-03-29T18:30:31Z</time>
      </trkpt>
      <trkpt lat="59.9885308349" lon="23.4894291839">
        <ele>36.6</ele>
        <time>2012-03-29T18:30:35Z</time>
      </trkpt>
      <trkpt lat="59.9884433279" lon="23.4891805768">
        <ele>36.8</ele>
        <time>2012-03-29T18:30:38Z</time>
      </trkpt>
      <trkpt lat="59.9883244725" lon="23.4888290399">
        <ele>36.8</ele>
        <time>2012-03-29T18:30:42Z</time>
      </trkpt>
      <trkpt lat="59.9881902783" lon="23.4884596496">
        <ele>37</ele>
        <time>2012-03-29T18:30:46Z</time>
      </trkpt>
      <trkpt lat="59.9880680702" lon="23.4881226972">
        <ele>37.2</ele>
        <time>2012-03-29T18:30:50Z</time>
      </trkpt>
      <trkpt lat="59.9879313614" lon="23.4877686457">
        <ele>37.2</ele>
        <time>2012-03-29T18:30:54Z</time>
      </trkpt>
      <trkpt lat="59.9878057167" lon="23.4874130855">
        <ele>37.4</ele>
        <time>2012-03-29T18:30:58Z</time>
      </trkpt>
      <trkpt lat="59.9877722729" lon="23.487331362">
        <ele>37.4</ele>
        <time>2012-03-29T18:30:59Z</time>
      </trkpt>
      <trkpt lat="59.9876321276" lon="23.4869931523">
        <ele>37.4</ele>
        <time>2012-03-29T18:31:03Z</time>
      </trkpt>
      <trkpt lat="59.9874935748" lon="23.4866407773">
        <ele>37.4</ele>
        <time>2012-03-29T18:31:07Z</time>
      </trkpt>
      <trkpt lat="59.987426771" lon="23.4864614884">
        <ele>37.4</ele>
        <time>2012-03-29T18:31:09Z</time>
      </trkpt>
      <trkpt lat="59.9873077481" lon="23.4860402141">
        <ele>37.4</ele>
        <time>2012-03-29T18:31:13Z</time>
      </trkpt>
      <trkpt lat="59.9871981128" lon="23.4856210353">
        <ele>37.4</ele>
        <time>2012-03-29T18:31:17Z</time>
      </trkpt>
      <trkpt lat="59.9871030621" lon="23.4852020241">
        <ele>37.4</ele>
        <time>2012-03-29T18:31:21Z</time>
      </trkpt>
      <trkpt lat="59.9870104421" lon="23.4847768942">
        <ele>37.4</ele>
        <time>2012-03-29T18:31:25Z</time>
      </trkpt>
      <trkpt lat="59.9869223483" lon="23.4843753173">
        <ele>37.4</ele>
        <time>2012-03-29T18:31:29Z</time>
      </trkpt>
      <trkpt lat="59.9868233581" lon="23.4839526181">
        <ele>37.4</ele>
        <time>2012-03-29T18:31:33Z</time>
      </trkpt>
      <trkpt lat="59.9867504355" lon="23.4836197729">
        <ele>37.4</ele>
        <time>2012-03-29T18:31:36Z</time>
      </trkpt>
      <trkpt lat="59.9866806981" lon="23.4833207905">
        <ele>37.4</ele>
        <time>2012-03-29T18:31:39Z</time>
      </trkpt>
      <trkpt lat="59.98662982" lon="23.4828003583">
        <ele>37.4</ele>
        <time>2012-03-29T18:31:43Z</time>
      </trkpt>
      <trkpt lat="59.9866345977" lon="23.4826998593">
        <ele>37.4</ele>
        <time>2012-03-29T18:31:44Z</time>
      </trkpt>
      <trkpt lat="59.9866679576" lon="23.4823060777">
        <ele>37.4</ele>
        <time>2012-03-29T18:31:48Z</time>
      </trkpt>
      <trkpt lat="59.9867646847" lon="23.4818797742">
        <ele>37.4</ele>
        <time>2012-03-29T18:31:53Z</time>
      </trkpt>
      <trkpt lat="59.9868299798" lon="23.4815688057">
        <ele>37.4</ele>
        <time>2012-03-29T18:31:57Z</time>
      </trkpt>
      <trkpt lat="59.9868841268" lon="23.4812507126">
        <ele>37.4</ele>
        <time>2012-03-29T18:32:02Z</time>
      </trkpt>
      <trkpt lat="59.9868207597" lon="23.4810330347">
        <ele>37.4</ele>
        <time>2012-03-29T18:32:07Z</time>
      </trkpt>
      <trkpt lat="59.9867542912" lon="23.4807363154">
        <ele>37.4</ele>
        <time>2012-03-29T18:32:11Z</time>
      </trkpt>
      <trkpt lat="59.9867034131" lon="23.4805797415">
        <ele>37.4</ele>
        <time>2012-03-29T18:32:13Z</time>
      </trkpt>
      <trkpt lat="59.9865874076" lon="23.4802710362">
        <ele>37.4</ele>
        <time>2012-03-29T18:32:17Z</time>
      </trkpt>
      <trkpt lat="59.9864226194" lon="23.4799902425">
        <ele>37.4</ele>
        <time>2012-03-29T18:32:21Z</time>
      </trkpt>
      <trkpt lat="59.9862586694" lon="23.4796693834">
        <ele>37.4</ele>
        <time>2012-03-29T18:32:25Z</time>
      </trkpt>
      <trkpt lat="59.9861309293" lon="23.4794088739">
        <ele>37.4</ele>
        <time>2012-03-29T18:32:28Z</time>
      </trkpt>
      <trkpt lat="59.9859907001" lon="23.4791279965">
        <ele>37.4</ele>
        <time>2012-03-29T18:32:31Z</time>
      </trkpt>
      <trkpt lat="59.9858662289" lon="23.4788578478">
        <ele>37.2</ele>
        <time>2012-03-29T18:32:34Z</time>
      </trkpt>
      <trkpt lat="59.9857504749" lon="23.4785368211">
        <ele>36.8</ele>
        <time>2012-03-29T18:32:37Z</time>
      </trkpt>
      <trkpt lat="59.9856432703" lon="23.4782393474">
        <ele>36.4</ele>
        <time>2012-03-29T18:32:40Z</time>
      </trkpt>
      <trkpt lat="59.9855418494" lon="23.4779373476">
        <ele>36</ele>
        <time>2012-03-29T18:32:43Z</time>
      </trkpt>
      <trkpt lat="59.9853005345" lon="23.4773278158">
        <ele>35.6</ele>
        <time>2012-03-29T18:32:49Z</time>
      </trkpt>
      <trkpt lat="59.9851782425" lon="23.4770144166">
        <ele>35</ele>
        <time>2012-03-29T18:32:52Z</time>
      </trkpt>
      <trkpt lat="59.9850631591" lon="23.476706717">
        <ele>34.6</ele>
        <time>2012-03-29T18:32:55Z</time>
      </trkpt>
      <trkpt lat="59.9849379335" lon="23.4763804935">
        <ele>34.2</ele>
        <time>2012-03-29T18:32:58Z</time>
      </trkpt>
      <trkpt lat="59.9848150548" lon="23.4760338181">
        <ele>34</ele>
        <time>2012-03-29T18:33:01Z</time>
      </trkpt>
      <trkpt lat="59.9846987979" lon="23.4757187425">
        <ele>33.2</ele>
        <time>2012-03-29T18:33:04Z</time>
      </trkpt>
      <trkpt lat="59.9845666153" lon="23.475358656">
        <ele>32.8</ele>
        <time>2012-03-29T18:33:07Z</time>
      </trkpt>
      <trkpt lat="59.9844405515" lon="23.4750157525">
        <ele>32.4</ele>
        <time>2012-03-29T18:33:10Z</time>
      </trkpt>
      <trkpt lat="59.984311135" lon="23.4746683228">
        <ele>31.6</ele>
        <time>2012-03-29T18:33:13Z</time>
      </trkpt>
      <trkpt lat="59.9841899327" lon="23.4743336335">
        <ele>31</ele>
        <time>2012-03-29T18:33:16Z</time>
      </trkpt>
      <trkpt lat="59.9841464306" lon="23.4742225733">
        <ele>30.8</ele>
        <time>2012-03-29T18:33:17Z</time>
      </trkpt>
      <trkpt lat="59.9840622764" lon="23.4740077452">
        <ele>30.4</ele>
        <time>2012-03-29T18:33:19Z</time>
      </trkpt>
      <trkpt lat="59.9839322731" lon="23.473690155">
        <ele>29.4</ele>
        <time>2012-03-29T18:33:22Z</time>
      </trkpt>
      <trkpt lat="59.9838047006" lon="23.4733832937">
        <ele>28.8</ele>
        <time>2012-03-29T18:33:25Z</time>
      </trkpt>
      <trkpt lat="59.9836840012" lon="23.4731113848">
        <ele>28.4</ele>
        <time>2012-03-29T18:33:28Z</time>
      </trkpt>
      <trkpt lat="59.9835587756" lon="23.4728125701">
        <ele>28</ele>
        <time>2012-03-29T18:33:31Z</time>
      </trkpt>
      <trkpt lat="59.9834462067" lon="23.4725244004">
        <ele>27.6</ele>
        <time>2012-03-29T18:33:34Z</time>
      </trkpt>
      <trkpt lat="59.9834176244" lon="23.4724238176">
        <ele>27.6</ele>
        <time>2012-03-29T18:33:35Z</time>
      </trkpt>
      <trkpt lat="59.9833609628" lon="23.4722213947">
        <ele>27.4</ele>
        <time>2012-03-29T18:33:37Z</time>
      </trkpt>
      <trkpt lat="59.983253423" lon="23.47181789">
        <ele>27.2</ele>
        <time>2012-03-29T18:33:42Z</time>
      </trkpt>
      <trkpt lat="59.9832282773" lon="23.4717510863">
        <ele>27.2</ele>
        <time>2012-03-29T18:33:43Z</time>
      </trkpt>
      <trkpt lat="59.9831173848" lon="23.4716504197">
        <ele>27.2</ele>
        <time>2012-03-29T18:33:46Z</time>
      </trkpt>
      <trkpt lat="59.9830717872" lon="23.4716451391">
        <ele>27.2</ele>
        <time>2012-03-29T18:33:47Z</time>
      </trkpt>
      <trkpt lat="59.9828049076" lon="23.4712319114">
        <ele>27</ele>
        <time>2012-03-29T18:33:53Z</time>
      </trkpt>
      <trkpt lat="59.982658811" lon="23.4709223678">
        <ele>27</ele>
        <time>2012-03-29T18:33:57Z</time>
      </trkpt>
      <trkpt lat="59.9825005608" lon="23.4705974854">
        <ele>27</ele>
        <time>2012-03-29T18:34:01Z</time>
      </trkpt>
      <trkpt lat="59.9823407179" lon="23.470286936">
        <ele>27</ele>
        <time>2012-03-29T18:34:05Z</time>
      </trkpt>
      <trkpt lat="59.9821658715" lon="23.4699898814">
        <ele>27</ele>
        <time>2012-03-29T18:34:09Z</time>
      </trkpt>
      <trkpt lat="59.9820266481" lon="23.4697573675">
        <ele>27</ele>
        <time>2012-03-29T18:34:12Z</time>
      </trkpt>
      <trkpt lat="59.981884072" lon="23.4695340737">
        <ele>27</ele>
        <time>2012-03-29T18:34:15Z</time>
      </trkpt>
      <trkpt lat="59.9817365506" lon="23.4693264541">
        <ele>27</ele>
        <time>2012-03-29T18:34:18Z</time>
      </trkpt>
      <trkpt lat="59.9815832456" lon="23.4691392024">
        <ele>27</ele>
        <time>2012-03-29T18:34:21Z</time>
      </trkpt>
      <trkpt lat="59.9814814055" lon="23.4690133063">
        <ele>27</ele>
        <time>2012-03-29T18:34:23Z</time>
      </trkpt>
      <trkpt lat="59.9812726962" lon="23.4687883361">
        <ele>27</ele>
        <time>2012-03-29T18:34:27Z</time>
      </trkpt>
      <trkpt lat="59.9811161223" lon="23.4686321813">
        <ele>27</ele>
        <time>2012-03-29T18:34:30Z</time>
      </trkpt>
      <trkpt lat="59.980861564" lon="23.468369744">
        <ele>27</ele>
        <time>2012-03-29T18:34:35Z</time>
      </trkpt>
      <trkpt lat="59.9806661819" lon="23.4681657286">
        <ele>27</ele>
        <time>2012-03-29T18:34:39Z</time>
      </trkpt>
      <trkpt lat="59.9804750746" lon="23.467947883">
        <ele>27</ele>
        <time>2012-03-29T18:34:43Z</time>
      </trkpt>
      <trkpt lat="59.9802822909" lon="23.4677340607">
        <ele>27</ele>
        <time>2012-03-29T18:34:47Z</time>
      </trkpt>
      <trkpt lat="59.9800817121" lon="23.4674733836">
        <ele>27</ele>
        <time>2012-03-29T18:34:51Z</time>
      </trkpt>
      <trkpt lat="59.9799299159" lon="23.4672443901">
        <ele>27</ele>
        <time>2012-03-29T18:34:54Z</time>
      </trkpt>
      <trkpt lat="59.9797737611" lon="23.4670049192">
        <ele>27</ele>
        <time>2012-03-29T18:34:57Z</time>
      </trkpt>
      <trkpt lat="59.9796289218" lon="23.4667806196">
        <ele>27</ele>
        <time>2012-03-29T18:35:00Z</time>
      </trkpt>
      <trkpt lat="59.9794904528" lon="23.4665483571">
        <ele>27</ele>
        <time>2012-03-29T18:35:03Z</time>
      </trkpt>
      <trkpt lat="59.9793224796" lon="23.4662291744">
        <ele>27</ele>
        <time>2012-03-29T18:35:07Z</time>
      </trkpt>
      <trkpt lat="59.9791659895" lon="23.4659097402">
        <ele>27</ele>
        <time>2012-03-29T18:35:11Z</time>
      </trkpt>
      <trkpt lat="59.9790097509" lon="23.4655707761">
        <ele>27</ele>
        <time>2012-03-29T18:35:15Z</time>
      </trkpt>
      <trkpt lat="59.9788622294" lon="23.4652447202">
        <ele>27</ele>
        <time>2012-03-29T18:35:19Z</time>
      </trkpt>
      <trkpt lat="59.9787108523" lon="23.4649212627">
        <ele>27</ele>
        <time>2012-03-29T18:35:23Z</time>
      </trkpt>
      <trkpt lat="59.978533659" lon="23.4646296564">
        <ele>27</ele>
        <time>2012-03-29T18:35:27Z</time>
      </trkpt>
      <trkpt lat="59.9784921685" lon="23.464550196">
        <ele>27</ele>
        <time>2012-03-29T18:35:28Z</time>
      </trkpt>
      <trkpt lat="59.978451684" lon="23.4644639462">
        <ele>27</ele>
        <time>2012-03-29T18:35:29Z</time>
      </trkpt>
      <trkpt lat="59.9783366005" lon="23.4640000081">
        <ele>27</ele>
        <time>2012-03-29T18:35:34Z</time>
      </trkpt>
      <trkpt lat="59.9783226865" lon="23.4638855951">
        <ele>27</ele>
        <time>2012-03-29T18:35:35Z</time>
      </trkpt>
      <trkpt lat="59.9782717246" lon="23.4635093316">
        <ele>27.4</ele>
        <time>2012-03-29T18:35:39Z</time>
      </trkpt>
      <trkpt lat="59.978262253" lon="23.4634027139">
        <ele>27.6</ele>
        <time>2012-03-29T18:35:40Z</time>
      </trkpt>
      <trkpt lat="59.978201149" lon="23.4629026497">
        <ele>28</ele>
        <time>2012-03-29T18:35:45Z</time>
      </trkpt>
      <trkpt lat="59.9781521149" lon="23.4625377018">
        <ele>29</ele>
        <time>2012-03-29T18:35:49Z</time>
      </trkpt>
      <trkpt lat="59.9780963752" lon="23.4621190259">
        <ele>29.8</ele>
        <time>2012-03-29T18:35:54Z</time>
      </trkpt>
      <trkpt lat="59.9780858979" lon="23.4620295072">
        <ele>30</ele>
        <time>2012-03-29T18:35:55Z</time>
      </trkpt>
      <trkpt lat="59.9780759234" lon="23.4619377254">
        <ele>30</ele>
        <time>2012-03-29T18:35:56Z</time>
      </trkpt>
      <trkpt lat="59.9780343492" lon="23.4616586081">
        <ele>31</ele>
        <time>2012-03-29T18:35:59Z</time>
      </trkpt>
      <trkpt lat="59.9779832196" lon="23.4613116813">
        <ele>31.6</ele>
        <time>2012-03-29T18:36:03Z</time>
      </trkpt>
      <trkpt lat="59.9779178408" lon="23.4609183187">
        <ele>32.4</ele>
        <time>2012-03-29T18:36:09Z</time>
      </trkpt>
      <trkpt lat="59.9778826368" lon="23.4607205897">
        <ele>32.6</ele>
        <time>2012-03-29T18:36:14Z</time>
      </trkpt>
      <trkpt lat="59.9778657053" lon="23.4606817815">
        <ele>32.8</ele>
        <time>2012-03-29T18:36:16Z</time>
      </trkpt>
      <trkpt lat="59.9777111431" lon="23.4607267923">
        <ele>33</ele>
        <time>2012-03-29T18:36:21Z</time>
      </trkpt>
      <trkpt lat="59.9775110672" lon="23.4608192447">
        <ele>33</ele>
        <time>2012-03-29T18:36:25Z</time>
      </trkpt>
      <trkpt lat="59.9772894497" lon="23.4609288799">
        <ele>33</ele>
        <time>2012-03-29T18:36:29Z</time>
      </trkpt>
      <trkpt lat="59.9771058861" lon="23.4610101005">
        <ele>33</ele>
        <time>2012-03-29T18:36:32Z</time>
      </trkpt>
      <trkpt lat="59.9769206461" lon="23.4611012118">
        <ele>33.2</ele>
        <time>2012-03-29T18:36:35Z</time>
      </trkpt>
      <trkpt lat="59.9767421116" lon="23.4611908981">
        <ele>33.2</ele>
        <time>2012-03-29T18:36:38Z</time>
      </trkpt>
      <trkpt lat="59.9765530998" lon="23.4612889663">
        <ele>33.2</ele>
        <time>2012-03-29T18:36:41Z</time>
      </trkpt>
      <trkpt lat="59.9763546164" lon="23.4613809158">
        <ele>33.2</ele>
        <time>2012-03-29T18:36:44Z</time>
      </trkpt>
      <trkpt lat="59.9761757467" lon="23.4614670817">
        <ele>33.2</ele>
        <time>2012-03-29T18:36:47Z</time>
      </trkpt>
      <trkpt lat="59.9759827953" lon="23.4615619648">
        <ele>33.2</ele>
        <time>2012-03-29T18:36:50Z</time>
      </trkpt>
      <trkpt lat="59.9758052667" lon="23.4616436883">
        <ele>33.2</ele>
        <time>2012-03-29T18:36:53Z</time>
      </trkpt>
      <trkpt lat="59.9755264847" lon="23.4618066325">
        <ele>32.6</ele>
        <time>2012-03-29T18:36:58Z</time>
      </trkpt>
      <trkpt lat="59.975353147" lon="23.4619471131">
        <ele>32.2</ele>
        <time>2012-03-29T18:37:01Z</time>
      </trkpt>
      <trkpt lat="59.9752985808" lon="23.461990699">
        <ele>32</ele>
        <time>2012-03-29T18:37:02Z</time>
      </trkpt>
      <trkpt lat="59.9750808191" lon="23.4621751846">
        <ele>31.6</ele>
        <time>2012-03-29T18:37:06Z</time>
      </trkpt>
      <trkpt lat="59.974881246" lon="23.4623636936">
        <ele>31</ele>
        <time>2012-03-29T18:37:10Z</time>
      </trkpt>
      <trkpt lat="59.9746814215" lon="23.4625905916">
        <ele>30.4</ele>
        <time>2012-03-29T18:37:14Z</time>
      </trkpt>
      <trkpt lat="59.9745249315" lon="23.4627972054">
        <ele>30</ele>
        <time>2012-03-29T18:37:17Z</time>
      </trkpt>
      <trkpt lat="59.9744287072" lon="23.4629581379">
        <ele>29.8</ele>
        <time>2012-03-29T18:37:19Z</time>
      </trkpt>
      <trkpt lat="59.9743206646" lon="23.463097026">
        <ele>29.6</ele>
        <time>2012-03-29T18:37:21Z</time>
      </trkpt>
      <trkpt lat="59.9741410404" lon="23.4634256803">
        <ele>29.4</ele>
        <time>2012-03-29T18:37:25Z</time>
      </trkpt>
      <trkpt lat="59.9740106181" lon="23.4636802386">
        <ele>29.2</ele>
        <time>2012-03-29T18:37:28Z</time>
      </trkpt>
      <trkpt lat="59.9738838837" lon="23.4639502196">
        <ele>29.2</ele>
        <time>2012-03-29T18:37:31Z</time>
      </trkpt>
      <trkpt lat="59.9737133121" lon="23.4643060312">
        <ele>29.2</ele>
        <time>2012-03-29T18:37:35Z</time>
      </trkpt>
      <trkpt lat="59.9735740887" lon="23.464554806">
        <ele>29</ele>
        <time>2012-03-29T18:37:38Z</time>
      </trkpt>
      <trkpt lat="59.9734285789" lon="23.4647843863">
        <ele>29</ele>
        <time>2012-03-29T18:37:41Z</time>
      </trkpt>
      <trkpt lat="59.9732502959" lon="23.4650228513">
        <ele>29</ele>
        <time>2012-03-29T18:37:44Z</time>
      </trkpt>
      <trkpt lat="59.9730534051" lon="23.4652382662">
        <ele>29</ele>
        <time>2012-03-29T18:37:47Z</time>
      </trkpt>
      <trkpt lat="59.9728679975" lon="23.4653984443">
        <ele>29</ele>
        <time>2012-03-29T18:37:50Z</time>
      </trkpt>
      <trkpt lat="59.9726615513" lon="23.4655585386">
        <ele>29</ele>
        <time>2012-03-29T18:37:53Z</time>
      </trkpt>
      <trkpt lat="59.9724694381" lon="23.4656764719">
        <ele>29</ele>
        <time>2012-03-29T18:37:56Z</time>
      </trkpt>
      <trkpt lat="59.9722671829" lon="23.4657556808">
        <ele>29</ele>
        <time>2012-03-29T18:37:59Z</time>
      </trkpt>
      <trkpt lat="59.9720677775" lon="23.4657922259">
        <ele>28.4</ele>
        <time>2012-03-29T18:38:02Z</time>
      </trkpt>
      <trkpt lat="59.9718682883" lon="23.4658073133">
        <ele>28</ele>
        <time>2012-03-29T18:38:05Z</time>
      </trkpt>
      <trkpt lat="59.971658154" lon="23.465788957">
        <ele>27.8</ele>
        <time>2012-03-29T18:38:08Z</time>
      </trkpt>
      <trkpt lat="59.9714487742" lon="23.4657373245">
        <ele>27.2</ele>
        <time>2012-03-29T18:38:11Z</time>
      </trkpt>
      <trkpt lat="59.971241406" lon="23.4656501527">
        <ele>26.4</ele>
        <time>2012-03-29T18:38:14Z</time>
      </trkpt>
      <trkpt lat="59.9710304335" lon="23.4655427806">
        <ele>26</ele>
        <time>2012-03-29T18:38:17Z</time>
      </trkpt>
      <trkpt lat="59.9708123365" lon="23.4654198181">
        <ele>25.8</ele>
        <time>2012-03-29T18:38:20Z</time>
      </trkpt>
      <trkpt lat="59.9706041301" lon="23.4653132842">
        <ele>25.4</ele>
        <time>2012-03-29T18:38:23Z</time>
      </trkpt>
      <trkpt lat="59.970374466" lon="23.4652362545">
        <ele>25</ele>
        <time>2012-03-29T18:38:26Z</time>
      </trkpt>
      <trkpt lat="59.970296682" lon="23.4652152159">
        <ele>24.6</ele>
        <time>2012-03-29T18:38:27Z</time>
      </trkpt>
      <trkpt lat="59.9701470651" lon="23.4651830294">
        <ele>24.2</ele>
        <time>2012-03-29T18:38:29Z</time>
      </trkpt>
      <trkpt lat="59.9699029842" lon="23.4651501724">
        <ele>23.8</ele>
        <time>2012-03-29T18:38:32Z</time>
      </trkpt>
      <trkpt lat="59.9696651897" lon="23.4651780841">
        <ele>23</ele>
        <time>2012-03-29T18:38:35Z</time>
      </trkpt>
      <trkpt lat="59.9694497748" lon="23.4652650882">
        <ele>22.4</ele>
        <time>2012-03-29T18:38:38Z</time>
      </trkpt>
      <trkpt lat="59.9692059454" lon="23.4653530982">
        <ele>21.6</ele>
        <time>2012-03-29T18:38:41Z</time>
      </trkpt>
      <trkpt lat="59.9689783768" lon="23.465449993">
        <ele>20.8</ele>
        <time>2012-03-29T18:38:44Z</time>
      </trkpt>
      <trkpt lat="59.9687762053" lon="23.4655540123">
        <ele>20.2</ele>
        <time>2012-03-29T18:38:47Z</time>
      </trkpt>
      <trkpt lat="59.9685628022" lon="23.4656955826">
        <ele>19.8</ele>
        <time>2012-03-29T18:38:50Z</time>
      </trkpt>
      <trkpt lat="59.9683786518" lon="23.4658575209">
        <ele>19.4</ele>
        <time>2012-03-29T18:38:53Z</time>
      </trkpt>
      <trkpt lat="59.9682090022" lon="23.4660277573">
        <ele>19.2</ele>
        <time>2012-03-29T18:38:56Z</time>
      </trkpt>
      <trkpt lat="59.9680483211" lon="23.4661995863">
        <ele>19</ele>
        <time>2012-03-29T18:38:59Z</time>
      </trkpt>
      <trkpt lat="59.9678831977" lon="23.4663865026">
        <ele>18.8</ele>
        <time>2012-03-29T18:39:02Z</time>
      </trkpt>
      <trkpt lat="59.9677225167" lon="23.4665735866">
        <ele>18.8</ele>
        <time>2012-03-29T18:39:05Z</time>
      </trkpt>
      <trkpt lat="59.9675568065" lon="23.4667602516">
        <ele>18.2</ele>
        <time>2012-03-29T18:39:08Z</time>
      </trkpt>
      <trkpt lat="59.9673879112" lon="23.4669461621">
        <ele>17.8</ele>
        <time>2012-03-29T18:39:11Z</time>
      </trkpt>
      <trkpt lat="59.9672185969" lon="23.4671251157">
        <ele>17.4</ele>
        <time>2012-03-29T18:39:14Z</time>
      </trkpt>
      <trkpt lat="59.9670369611" lon="23.467321755">
        <ele>17.2</ele>
        <time>2012-03-29T18:39:17Z</time>
      </trkpt>
      <trkpt lat="59.9668437583" lon="23.4675341524">
        <ele>17</ele>
        <time>2012-03-29T18:39:20Z</time>
      </trkpt>
      <trkpt lat="59.9666513099" lon="23.4677462983">
        <ele>16.8</ele>
        <time>2012-03-29T18:39:23Z</time>
      </trkpt>
      <trkpt lat="59.9664532456" lon="23.467970095">
        <ele>16.8</ele>
        <time>2012-03-29T18:39:26Z</time>
      </trkpt>
      <trkpt lat="59.9662606295" lon="23.468188192">
        <ele>16.6</ele>
        <time>2012-03-29T18:39:29Z</time>
      </trkpt>
      <trkpt lat="59.9660643254" lon="23.4684083846">
        <ele>16.6</ele>
        <time>2012-03-29T18:39:32Z</time>
      </trkpt>
      <trkpt lat="59.9658753974" lon="23.468620279">
        <ele>16</ele>
        <time>2012-03-29T18:39:35Z</time>
      </trkpt>
      <trkpt lat="59.9657568773" lon="23.4687381285">
        <ele>15.8</ele>
        <time>2012-03-29T18:39:37Z</time>
      </trkpt>
      <trkpt lat="59.9655728108" lon="23.4689146513">
        <ele>15.4</ele>
        <time>2012-03-29T18:39:40Z</time>
      </trkpt>
      <trkpt lat="59.9653927676" lon="23.469119002">
        <ele>15.2</ele>
        <time>2012-03-29T18:39:43Z</time>
      </trkpt>
      <trkpt lat="59.9652190108" lon="23.4693069242">
        <ele>15</ele>
        <time>2012-03-29T18:39:46Z</time>
      </trkpt>
      <trkpt lat="59.9650440805" lon="23.469508928">
        <ele>14.8</ele>
        <time>2012-03-29T18:39:49Z</time>
      </trkpt>
      <trkpt lat="59.964881807" lon="23.4696883007">
        <ele>14.8</ele>
        <time>2012-03-29T18:39:52Z</time>
      </trkpt>
      <trkpt lat="59.9647225509" lon="23.4698468862">
        <ele>14.6</ele>
        <time>2012-03-29T18:39:55Z</time>
      </trkpt>
      <trkpt lat="59.9645831599" lon="23.4698677572">
        <ele>14.6</ele>
        <time>2012-03-29T18:39:58Z</time>
      </trkpt>
      <trkpt lat="59.9644695013" lon="23.4696295436">
        <ele>14.6</ele>
        <time>2012-03-29T18:40:01Z</time>
      </trkpt>
      <trkpt lat="59.9643568486" lon="23.4692927588">
        <ele>14.6</ele>
        <time>2012-03-29T18:40:05Z</time>
      </trkpt>
      <trkpt lat="59.9642361492" lon="23.4689642722">
        <ele>14.6</ele>
        <time>2012-03-29T18:40:10Z</time>
      </trkpt>
      <trkpt lat="59.9642105006" lon="23.4688899247">
        <ele>14.6</ele>
        <time>2012-03-29T18:40:11Z</time>
      </trkpt>
      <trkpt lat="59.9640863647" lon="23.4684813909">
        <ele>14.4</ele>
        <time>2012-03-29T18:40:16Z</time>
      </trkpt>
      <trkpt lat="59.9639763941" lon="23.4681144313">
        <ele>15</ele>
        <time>2012-03-29T18:40:20Z</time>
      </trkpt>
      <trkpt lat="59.9639481471" lon="23.4680408382">
        <ele>15.2</ele>
        <time>2012-03-29T18:40:21Z</time>
      </trkpt>
      <trkpt lat="59.9639208221" lon="23.4679711847">
        <ele>15.4</ele>
        <time>2012-03-29T18:40:22Z</time>
      </trkpt>
      <trkpt lat="59.9637691097" lon="23.4675474796">
        <ele>16.4</ele>
        <time>2012-03-29T18:40:28Z</time>
      </trkpt>
      <trkpt lat="59.96374212" lon="23.467482939">
        <ele>16.6</ele>
        <time>2012-03-29T18:40:29Z</time>
      </trkpt>
      <trkpt lat="59.9636283776" lon="23.4671329108">
        <ele>17.4</ele>
        <time>2012-03-29T18:40:34Z</time>
      </trkpt>
      <trkpt lat="59.9634820297" lon="23.4666956271">
        <ele>18.8</ele>
        <time>2012-03-29T18:40:40Z</time>
      </trkpt>
      <trkpt lat="59.9633780103" lon="23.4663746842">
        <ele>19.4</ele>
        <time>2012-03-29T18:40:45Z</time>
      </trkpt>
      <trkpt lat="59.963356385" lon="23.4663151727">
        <ele>19.6</ele>
        <time>2012-03-29T18:40:46Z</time>
      </trkpt>
      <trkpt lat="59.963261921" lon="23.4661624545">
        <ele>20</ele>
        <time>2012-03-29T18:40:49Z</time>
      </trkpt>
      <trkpt lat="59.9630528764" lon="23.4661180304">
        <ele>20.2</ele>
        <time>2012-03-29T18:40:54Z</time>
      </trkpt>
      <trkpt lat="59.9629298301" lon="23.4659187926">
        <ele>20.6</ele>
        <time>2012-03-29T18:40:58Z</time>
      </trkpt>
      <trkpt lat="59.9629096297" lon="23.4658493905">
        <ele>21</ele>
        <time>2012-03-29T18:40:59Z</time>
      </trkpt>
      <trkpt lat="59.9628924468" lon="23.465778312">
        <ele>21.2</ele>
        <time>2012-03-29T18:41:00Z</time>
      </trkpt>
      <trkpt lat="59.9628032634" lon="23.4654269427">
        <ele>21.8</ele>
        <time>2012-03-29T18:41:05Z</time>
      </trkpt>
      <trkpt lat="59.9627873378" lon="23.46535226">
        <ele>22</ele>
        <time>2012-03-29T18:41:06Z</time>
      </trkpt>
      <trkpt lat="59.9626704941" lon="23.4649492582">
        <ele>22.4</ele>
        <time>2012-03-29T18:41:11Z</time>
      </trkpt>
      <trkpt lat="59.962563122" lon="23.4646281477">
        <ele>23.4</ele>
        <time>2012-03-29T18:41:16Z</time>
      </trkpt>
      <trkpt lat="59.962543676" lon="23.46456872">
        <ele>23.6</ele>
        <time>2012-03-29T18:41:17Z</time>
      </trkpt>
      <trkpt lat="59.9624187018" lon="23.464178794">
        <ele>24.2</ele>
        <time>2012-03-29T18:41:23Z</time>
      </trkpt>
      <trkpt lat="59.9623491321" lon="23.4638387403">
        <ele>24.6</ele>
        <time>2012-03-29T18:41:27Z</time>
      </trkpt>
      <trkpt lat="59.9623262495" lon="23.463745785">
        <ele>24.6</ele>
        <time>2012-03-29T18:41:28Z</time>
      </trkpt>
      <trkpt lat="59.9621344716" lon="23.4633209065">
        <ele>24.8</ele>
        <time>2012-03-29T18:41:32Z</time>
      </trkpt>
      <trkpt lat="59.9620728646" lon="23.4632278674">
        <ele>24.8</ele>
        <time>2012-03-29T18:41:33Z</time>
      </trkpt>
      <trkpt lat="59.9620183823" lon="23.4631578786">
        <ele>24.8</ele>
        <time>2012-03-29T18:41:34Z</time>
      </trkpt>
      <trkpt lat="59.9618103435" lon="23.4630321501">
        <ele>24.8</ele>
        <time>2012-03-29T18:41:37Z</time>
      </trkpt>
      <trkpt lat="59.9616974393" lon="23.4630592236">
        <ele>24.8</ele>
        <time>2012-03-29T18:41:39Z</time>
      </trkpt>
      <trkpt lat="59.9613407057" lon="23.462945146">
        <ele>25</ele>
        <time>2012-03-29T18:41:45Z</time>
      </trkpt>
      <trkpt lat="59.9612454873" lon="23.462781196">
        <ele>25</ele>
        <time>2012-03-29T18:41:47Z</time>
      </trkpt>
      <trkpt lat="59.9610609178" lon="23.4624471773">
        <ele>25</ele>
        <time>2012-03-29T18:41:51Z</time>
      </trkpt>
      <trkpt lat="59.9608848979" lon="23.4621358735">
        <ele>25</ele>
        <time>2012-03-29T18:41:55Z</time>
      </trkpt>
      <trkpt lat="59.9608472632" lon="23.4620790442">
        <ele>25</ele>
        <time>2012-03-29T18:41:56Z</time>
      </trkpt>
      <trkpt lat="59.9604362987" lon="23.4619452691">
        <ele>25</ele>
        <time>2012-03-29T18:42:03Z</time>
      </trkpt>
      <trkpt lat="59.9601627134" lon="23.4620725902">
        <ele>25</ele>
        <time>2012-03-29T18:42:08Z</time>
      </trkpt>
      <trkpt lat="59.9600570177" lon="23.4621144158">
        <ele>25</ele>
        <time>2012-03-29T18:42:10Z</time>
      </trkpt>
      <trkpt lat="59.9597946642" lon="23.4620207062">
        <ele>25</ele>
        <time>2012-03-29T18:42:15Z</time>
      </trkpt>
      <trkpt lat="59.9597587059" lon="23.4619588478">
        <ele>25</ele>
        <time>2012-03-29T18:42:16Z</time>
      </trkpt>
      <trkpt lat="59.9596927403" lon="23.4618034474">
        <ele>25</ele>
        <time>2012-03-29T18:42:18Z</time>
      </trkpt>
      <trkpt lat="59.9595993659" lon="23.4614672493">
        <ele>25.2</ele>
        <time>2012-03-29T18:42:22Z</time>
      </trkpt>
      <trkpt lat="59.9595055725" lon="23.4610852023">
        <ele>25.8</ele>
        <time>2012-03-29T18:42:26Z</time>
      </trkpt>
      <trkpt lat="59.959456706" lon="23.4609079252">
        <ele>26.2</ele>
        <time>2012-03-29T18:42:28Z</time>
      </trkpt>
      <trkpt lat="59.9593935065" lon="23.4606318254">
        <ele>26.6</ele>
        <time>2012-03-29T18:42:31Z</time>
      </trkpt>
      <trkpt lat="59.9592878107" lon="23.4601964695">
        <ele>27.6</ele>
        <time>2012-03-29T18:42:37Z</time>
      </trkpt>
      <trkpt lat="59.9592452307" lon="23.4600468526">
        <ele>28</ele>
        <time>2012-03-29T18:42:39Z</time>
      </trkpt>
      <trkpt lat="59.959097793" lon="23.4597954794">
        <ele>29</ele>
        <time>2012-03-29T18:42:44Z</time>
      </trkpt>
      <trkpt lat="59.9588781873" lon="23.4597177792">
        <ele>30.2</ele>
        <time>2012-03-29T18:42:50Z</time>
      </trkpt>
      <trkpt lat="59.958702335" lon="23.4598124946">
        <ele>30.6</ele>
        <time>2012-03-29T18:42:54Z</time>
      </trkpt>
      <trkpt lat="59.9585072044" lon="23.4599247283">
        <ele>31.2</ele>
        <time>2012-03-29T18:42:58Z</time>
      </trkpt>
      <trkpt lat="59.9584697373" lon="23.459940151">
        <ele>31.4</ele>
        <time>2012-03-29T18:42:59Z</time>
      </trkpt>
      <trkpt lat="59.9581959844" lon="23.4599821443">
        <ele>32.4</ele>
        <time>2012-03-29T18:43:05Z</time>
      </trkpt>
      <trkpt lat="59.9581524824" lon="23.4599796297">
        <ele>32.4</ele>
        <time>2012-03-29T18:43:06Z</time>
      </trkpt>
      <trkpt lat="59.9580270053" lon="23.459897068">
        <ele>33.2</ele>
        <time>2012-03-29T18:43:09Z</time>
      </trkpt>
      <trkpt lat="59.957944276" lon="23.4597969881">
        <ele>33.6</ele>
        <time>2012-03-29T18:43:11Z</time>
      </trkpt>
      <trkpt lat="59.9577866963" lon="23.4595649771">
        <ele>34.4</ele>
        <time>2012-03-29T18:43:16Z</time>
      </trkpt>
      <trkpt lat="59.9577532525" lon="23.4594973352">
        <ele>34.6</ele>
        <time>2012-03-29T18:43:17Z</time>
      </trkpt>
      <trkpt lat="59.9576959203" lon="23.4593795695">
        <ele>34.8</ele>
        <time>2012-03-29T18:43:19Z</time>
      </trkpt>
      <trkpt lat="59.9575396817" lon="23.4590597162">
        <ele>36</ele>
        <time>2012-03-29T18:43:25Z</time>
      </trkpt>
      <trkpt lat="59.9574603051" lon="23.459095926">
        <ele>36.4</ele>
        <time>2012-03-29T18:43:29Z</time>
      </trkpt>
      <trkpt lat="59.9575142007" lon="23.4591824272">
        <ele>36.8</ele>
        <time>2012-03-29T18:43:32Z</time>
      </trkpt>
      <trkpt lat="59.9575994446" lon="23.4592410167">
        <ele>37</ele>
        <time>2012-03-29T18:43:35Z</time>
      </trkpt>
      <trkpt lat="59.9577743749" lon="23.4595130932">
        <ele>37.2</ele>
        <time>2012-03-29T18:43:41Z</time>
      </trkpt>
      <trkpt lat="59.9580305257" lon="23.4599005884">
        <ele>37.4</ele>
        <time>2012-03-29T18:43:48Z</time>
      </trkpt>
      <trkpt lat="59.9582296797" lon="23.4599914482">
        <ele>37.4</ele>
        <time>2012-03-29T18:43:52Z</time>
      </trkpt>
      <trkpt lat="59.9583988264" lon="23.4599741815">
        <ele>37.6</ele>
        <time>2012-03-29T18:43:55Z</time>
      </trkpt>
      <trkpt lat="59.9585649557" lon="23.4599139156">
        <ele>37.6</ele>
        <time>2012-03-29T18:43:58Z</time>
      </trkpt>
      <trkpt lat="59.9588375351" lon="23.4597823198">
        <ele>37.6</ele>
        <time>2012-03-29T18:44:02Z</time>
      </trkpt>
      <trkpt lat="59.9589081945" lon="23.4597718424">
        <ele>37.6</ele>
        <time>2012-03-29T18:44:03Z</time>
      </trkpt>
      <trkpt lat="59.9590402932" lon="23.4597964014">
        <ele>37.6</ele>
        <time>2012-03-29T18:44:05Z</time>
      </trkpt>
      <trkpt lat="59.9590971225" lon="23.4598251513">
        <ele>37.6</ele>
        <time>2012-03-29T18:44:06Z</time>
      </trkpt>
      <trkpt lat="59.9592490025" lon="23.4600471878">
        <ele>37.6</ele>
        <time>2012-03-29T18:44:09Z</time>
      </trkpt>
      <trkpt lat="59.9592832845" lon="23.4601499499">
        <ele>37.6</ele>
        <time>2012-03-29T18:44:10Z</time>
      </trkpt>
      <trkpt lat="59.959419658" lon="23.4606972042">
        <ele>37.6</ele>
        <time>2012-03-29T18:44:15Z</time>
      </trkpt>
      <trkpt lat="59.9595042314" lon="23.4610384313">
        <ele>37.6</ele>
        <time>2012-03-29T18:44:18Z</time>
      </trkpt>
      <trkpt lat="59.9595876313" lon="23.4613986016">
        <ele>37.4</ele>
        <time>2012-03-29T18:44:21Z</time>
      </trkpt>
      <trkpt lat="59.9596737134" lon="23.4617244899">
        <ele>36.8</ele>
        <time>2012-03-29T18:44:24Z</time>
      </trkpt>
      <trkpt lat="59.959744289" lon="23.4619189499">
        <ele>36.6</ele>
        <time>2012-03-29T18:44:26Z</time>
      </trkpt>
      <trkpt lat="59.9599591171" lon="23.4621696526">
        <ele>36</ele>
        <time>2012-03-29T18:44:30Z</time>
      </trkpt>
      <trkpt lat="59.9601779685" lon="23.4621191935">
        <ele>35.4</ele>
        <time>2012-03-29T18:44:33Z</time>
      </trkpt>
      <trkpt lat="59.9602427606" lon="23.4620885158">
        <ele>35.2</ele>
        <time>2012-03-29T18:44:34Z</time>
      </trkpt>
      <trkpt lat="59.9604658868" lon="23.4619824009">
        <ele>34.2</ele>
        <time>2012-03-29T18:44:37Z</time>
      </trkpt>
      <trkpt lat="59.9605888492" lon="23.4619375578">
        <ele>33.6</ele>
        <time>2012-03-29T18:44:39Z</time>
      </trkpt>
      <trkpt lat="59.9608384622" lon="23.4620479474">
        <ele>32.8</ele>
        <time>2012-03-29T18:44:43Z</time>
      </trkpt>
      <trkpt lat="59.9609384583" lon="23.4621958879">
        <ele>32.2</ele>
        <time>2012-03-29T18:44:45Z</time>
      </trkpt>
      <trkpt lat="59.9611817848" lon="23.4626365244">
        <ele>31.2</ele>
        <time>2012-03-29T18:44:50Z</time>
      </trkpt>
      <trkpt lat="59.9613195833" lon="23.462914552">
        <ele>30.6</ele>
        <time>2012-03-29T18:44:53Z</time>
      </trkpt>
      <trkpt lat="59.9613577209" lon="23.4630064176">
        <ele>30.4</ele>
        <time>2012-03-29T18:44:54Z</time>
      </trkpt>
      <trkpt lat="59.9614642549" lon="23.4634395104">
        <ele>30</ele>
        <time>2012-03-29T18:44:58Z</time>
      </trkpt>
      <trkpt lat="59.9615347467" lon="23.4639392393">
        <ele>29</ele>
        <time>2012-03-29T18:45:02Z</time>
      </trkpt>
      <trkpt lat="59.9615872173" lon="23.4642977332">
        <ele>28.6</ele>
        <time>2012-03-29T18:45:05Z</time>
      </trkpt>
      <trkpt lat="59.9616310547" lon="23.4646532095">
        <ele>28.2</ele>
        <time>2012-03-29T18:45:08Z</time>
      </trkpt>
      <trkpt lat="59.9616903985" lon="23.4650979532">
        <ele>27.8</ele>
        <time>2012-03-29T18:45:12Z</time>
      </trkpt>
      <trkpt lat="59.9617426178" lon="23.4655417748">
        <ele>27.6</ele>
        <time>2012-03-29T18:45:16Z</time>
      </trkpt>
      <trkpt lat="59.9617992794" lon="23.466004288">
        <ele>27.4</ele>
        <time>2012-03-29T18:45:20Z</time>
      </trkpt>
      <trkpt lat="59.9618200665" lon="23.4664559048">
        <ele>27.4</ele>
        <time>2012-03-29T18:45:24Z</time>
      </trkpt>
      <trkpt lat="59.9618368303" lon="23.466823032">
        <ele>27.4</ele>
        <time>2012-03-29T18:45:27Z</time>
      </trkpt>
      <trkpt lat="59.9618374171" lon="23.4671958589">
        <ele>27.2</ele>
        <time>2012-03-29T18:45:30Z</time>
      </trkpt>
      <trkpt lat="59.96182124" lon="23.4675873775">
        <ele>27.2</ele>
        <time>2012-03-29T18:45:33Z</time>
      </trkpt>
      <trkpt lat="59.9617877962" lon="23.4679873617">
        <ele>27.2</ele>
        <time>2012-03-29T18:45:36Z</time>
      </trkpt>
      <trkpt lat="59.9617591301" lon="23.4683713366">
        <ele>27.2</ele>
        <time>2012-03-29T18:45:39Z</time>
      </trkpt>
      <trkpt lat="59.9617362475" lon="23.4687506175">
        <ele>27.2</ele>
        <time>2012-03-29T18:45:42Z</time>
      </trkpt>
      <trkpt lat="59.9617209087" lon="23.4691577264">
        <ele>27.2</ele>
        <time>2012-03-29T18:45:45Z</time>
      </trkpt>
      <trkpt lat="59.9617261893" lon="23.4696915696">
        <ele>27.2</ele>
        <time>2012-03-29T18:45:50Z</time>
      </trkpt>
      <trkpt lat="59.9617336491" lon="23.4700752092">
        <ele>27.2</ele>
        <time>2012-03-29T18:45:53Z</time>
      </trkpt>
      <trkpt lat="59.9617302126" lon="23.470193394">
        <ele>27.2</ele>
        <time>2012-03-29T18:45:54Z</time>
      </trkpt>
      <trkpt lat="59.9616805079" lon="23.4705970663">
        <ele>27.2</ele>
        <time>2012-03-29T18:45:57Z</time>
      </trkpt>
      <trkpt lat="59.9616530153" lon="23.4707155025">
        <ele>27.2</ele>
        <time>2012-03-29T18:45:58Z</time>
      </trkpt>
      <trkpt lat="59.9615137919" lon="23.4711888284">
        <ele>27.2</ele>
        <time>2012-03-29T18:46:02Z</time>
      </trkpt>
      <trkpt lat="59.9613978702" lon="23.4715084303">
        <ele>26.6</ele>
        <time>2012-03-29T18:46:05Z</time>
      </trkpt>
      <trkpt lat="59.9612816971" lon="23.4718125256">
        <ele>26.2</ele>
        <time>2012-03-29T18:46:08Z</time>
      </trkpt>
      <trkpt lat="59.9611654401" lon="23.4721208119">
        <ele>26</ele>
        <time>2012-03-29T18:46:11Z</time>
      </trkpt>
      <trkpt lat="59.9610377838" lon="23.4724001806">
        <ele>25.6</ele>
        <time>2012-03-29T18:46:14Z</time>
      </trkpt>
      <trkpt lat="59.9608977223" lon="23.4726757775">
        <ele>25.6</ele>
        <time>2012-03-29T18:46:17Z</time>
      </trkpt>
      <trkpt lat="59.9607586665" lon="23.4729450041">
        <ele>25.4</ele>
        <time>2012-03-29T18:46:20Z</time>
      </trkpt>
      <trkpt lat="59.9606284956" lon="23.4732043401">
        <ele>25.4</ele>
        <time>2012-03-29T18:46:23Z</time>
      </trkpt>
      <trkpt lat="59.9604979056" lon="23.4734651848">
        <ele>25.2</ele>
        <time>2012-03-29T18:46:26Z</time>
      </trkpt>
      <trkpt lat="59.9604612767" lon="23.4735467407">
        <ele>25.2</ele>
        <time>2012-03-29T18:46:27Z</time>
      </trkpt>
      <trkpt lat="59.9603087261" lon="23.4738983614">
        <ele>25.2</ele>
        <time>2012-03-29T18:46:31Z</time>
      </trkpt>
      <trkpt lat="59.9601504759" lon="23.4742010318">
        <ele>25.2</ele>
        <time>2012-03-29T18:46:35Z</time>
      </trkpt>
      <trkpt lat="59.9601133441" lon="23.474260711">
        <ele>25.2</ele>
        <time>2012-03-29T18:46:36Z</time>
      </trkpt>
      <trkpt lat="59.9601539963" lon="23.4747482861">
        <ele>25.2</ele>
        <time>2012-03-29T18:46:42Z</time>
      </trkpt>
      <trkpt lat="59.9602853406" lon="23.4750935365">
        <ele>25.2</ele>
        <time>2012-03-29T18:46:47Z</time>
      </trkpt>
      <trkpt lat="59.9603090614" lon="23.4751605917">
        <ele>25.2</ele>
        <time>2012-03-29T18:46:48Z</time>
      </trkpt>
      <trkpt lat="59.9603895277" lon="23.4753917645">
        <ele>25.2</ele>
        <time>2012-03-29T18:46:52Z</time>
      </trkpt>
      <trkpt lat="59.9604803036" lon="23.4754743263">
        <ele>25.2</ele>
        <time>2012-03-29T18:46:55Z</time>
      </trkpt>
      <trkpt lat="59.9607239655" lon="23.4754465822">
        <ele>25.2</ele>
        <time>2012-03-29T18:47:00Z</time>
      </trkpt>
      <trkpt lat="59.960990929" lon="23.4751643636">
        <ele>25.2</ele>
        <time>2012-03-29T18:47:05Z</time>
      </trkpt>
      <trkpt lat="59.9611553819" lon="23.4749976476">
        <ele>25.2</ele>
        <time>2012-03-29T18:47:08Z</time>
      </trkpt>
      <trkpt lat="59.961322014" lon="23.4748445941">
        <ele>25.2</ele>
        <time>2012-03-29T18:47:11Z</time>
      </trkpt>
      <trkpt lat="59.9614873051" lon="23.4746924626">
        <ele>25.2</ele>
        <time>2012-03-29T18:47:14Z</time>
      </trkpt>
      <trkpt lat="59.9616625706" lon="23.4745294347">
        <ele>25.2</ele>
        <time>2012-03-29T18:47:17Z</time>
      </trkpt>
      <trkpt lat="59.9618410213" lon="23.4743674964">
        <ele>25.2</ele>
        <time>2012-03-29T18:47:20Z</time>
      </trkpt>
      <trkpt lat="59.9620166221" lon="23.4742052228">
        <ele>25.2</ele>
        <time>2012-03-29T18:47:23Z</time>
      </trkpt>
      <trkpt lat="59.962199096" lon="23.4740507444">
        <ele>25.2</ele>
        <time>2012-03-29T18:47:26Z</time>
      </trkpt>
      <trkpt lat="59.9623780496" lon="23.4738967689">
        <ele>25.2</ele>
        <time>2012-03-29T18:47:29Z</time>
      </trkpt>
      <trkpt lat="59.9625642954" lon="23.4737396921">
        <ele>25.2</ele>
        <time>2012-03-29T18:47:32Z</time>
      </trkpt>
      <trkpt lat="59.9627468532" lon="23.4735815256">
        <ele>25.2</ele>
        <time>2012-03-29T18:47:35Z</time>
      </trkpt>
      <trkpt lat="59.9629289081" lon="23.4734227724">
        <ele>25.2</ele>
        <time>2012-03-29T18:47:38Z</time>
      </trkpt>
      <trkpt lat="59.9631004856" lon="23.4732834652">
        <ele>25.2</ele>
        <time>2012-03-29T18:47:41Z</time>
      </trkpt>
      <trkpt lat="59.963288324" lon="23.4731175036">
        <ele>25.2</ele>
        <time>2012-03-29T18:47:44Z</time>
      </trkpt>
      <trkpt lat="59.9634573031" lon="23.4729195231">
        <ele>25.2</ele>
        <time>2012-03-29T18:47:47Z</time>
      </trkpt>
      <trkpt lat="59.9635153896" lon="23.472844086">
        <ele>25.2</ele>
        <time>2012-03-29T18:47:48Z</time>
      </trkpt>
      <trkpt lat="59.9637227578" lon="23.4724938903">
        <ele>25.2</ele>
        <time>2012-03-29T18:47:52Z</time>
      </trkpt>
      <trkpt lat="59.9638831036" lon="23.4721704327">
        <ele>25.2</ele>
        <time>2012-03-29T18:47:55Z</time>
      </trkpt>
      <trkpt lat="59.963934317" lon="23.4720558522">
        <ele>25.2</ele>
        <time>2012-03-29T18:47:56Z</time>
      </trkpt>
      <trkpt lat="59.9641649869" lon="23.4714284669">
        <ele>25.2</ele>
        <time>2012-03-29T18:48:01Z</time>
      </trkpt>
      <trkpt lat="59.9642975047" lon="23.4710540475">
        <ele>24.6</ele>
        <time>2012-03-29T18:48:04Z</time>
      </trkpt>
      <trkpt lat="59.9644503906" lon="23.4706626127">
        <ele>24.2</ele>
        <time>2012-03-29T18:48:07Z</time>
      </trkpt>
      <trkpt lat="59.9646120774" lon="23.470312417">
        <ele>23.6</ele>
        <time>2012-03-29T18:48:10Z</time>
      </trkpt>
      <trkpt lat="59.964789187" lon="23.4700026219">
        <ele>22.8</ele>
        <time>2012-03-29T18:48:13Z</time>
      </trkpt>
      <trkpt lat="59.96498415" lon="23.4697468902">
        <ele>22.2</ele>
        <time>2012-03-29T18:48:16Z</time>
      </trkpt>
      <trkpt lat="59.9651822981" lon="23.4695192378">
        <ele>21.2</ele>
        <time>2012-03-29T18:48:19Z</time>
      </trkpt>
      <trkpt lat="59.965377764" lon="23.46929871">
        <ele>20.4</ele>
        <time>2012-03-29T18:48:22Z</time>
      </trkpt>
      <trkpt lat="59.9655669435" lon="23.4690847201">
        <ele>20</ele>
        <time>2012-03-29T18:48:25Z</time>
      </trkpt>
      <trkpt lat="59.9657400297" lon="23.4688952053">
        <ele>19.4</ele>
        <time>2012-03-29T18:48:28Z</time>
      </trkpt>
      <trkpt lat="59.9659155467" lon="23.4687011643">
        <ele>18.6</ele>
        <time>2012-03-29T18:48:31Z</time>
      </trkpt>
      <trkpt lat="59.9661336437" lon="23.4684658006">
        <ele>17.8</ele>
        <time>2012-03-29T18:48:35Z</time>
      </trkpt>
      <trkpt lat="59.9663944885" lon="23.4681926345">
        <ele>17.2</ele>
        <time>2012-03-29T18:48:40Z</time>
      </trkpt>
      <trkpt lat="59.9665559239" lon="23.4680148544">
        <ele>17</ele>
        <time>2012-03-29T18:48:43Z</time>
      </trkpt>
      <trkpt lat="59.9667117434" lon="23.4678369904">
        <ele>16.8</ele>
        <time>2012-03-29T18:48:46Z</time>
      </trkpt>
      <trkpt lat="59.9668859193" lon="23.4676477271">
        <ele>16.6</ele>
        <time>2012-03-29T18:48:49Z</time>
      </trkpt>
      <trkpt lat="59.9669472748" lon="23.4675850305">
        <ele>16.6</ele>
        <time>2012-03-29T18:48:50Z</time>
      </trkpt>
      <trkpt lat="59.9670545631" lon="23.4674613137">
        <ele>16.6</ele>
        <time>2012-03-29T18:48:52Z</time>
      </trkpt>
      <trkpt lat="59.9672222849" lon="23.4672762413">
        <ele>16.6</ele>
        <time>2012-03-29T18:48:55Z</time>
      </trkpt>
      <trkpt lat="59.9674132246" lon="23.4670665262">
        <ele>16.4</ele>
        <time>2012-03-29T18:48:59Z</time>
      </trkpt>
      <trkpt lat="59.9675942736" lon="23.4668632651">
        <ele>16.4</ele>
        <time>2012-03-29T18:49:03Z</time>
      </trkpt>
      <trkpt lat="59.9677701259" lon="23.4666696432">
        <ele>16.4</ele>
        <time>2012-03-29T18:49:07Z</time>
      </trkpt>
      <trkpt lat="59.9679570423" lon="23.466463197">
        <ele>16.4</ele>
        <time>2012-03-29T18:49:11Z</time>
      </trkpt>
      <trkpt lat="59.9681599681" lon="23.4662466925">
        <ele>16.4</ele>
        <time>2012-03-29T18:49:15Z</time>
      </trkpt>
      <trkpt lat="59.9683633968" lon="23.4660377318">
        <ele>16.4</ele>
        <time>2012-03-29T18:49:19Z</time>
      </trkpt>
      <trkpt lat="59.9685325435" lon="23.465880655">
        <ele>16.4</ele>
        <time>2012-03-29T18:49:22Z</time>
      </trkpt>
      <trkpt lat="59.9687030314" lon="23.4657378274">
        <ele>16.4</ele>
        <time>2012-03-29T18:49:25Z</time>
      </trkpt>
      <trkpt lat="59.9689296779" lon="23.4655992746">
        <ele>16.4</ele>
        <time>2012-03-29T18:49:29Z</time>
      </trkpt>
      <trkpt lat="59.9691077095" lon="23.4655181378">
        <ele>16.4</ele>
        <time>2012-03-29T18:49:32Z</time>
      </trkpt>
      <trkpt lat="59.9693283211" lon="23.4654559441">
        <ele>16.4</ele>
        <time>2012-03-29T18:49:36Z</time>
      </trkpt>
      <trkpt lat="59.9694385431" lon="23.4654310499">
        <ele>16.4</ele>
        <time>2012-03-29T18:49:38Z</time>
      </trkpt>
      <trkpt lat="59.9700649225" lon="23.4654189799">
        <ele>16.4</ele>
        <time>2012-03-29T18:49:49Z</time>
      </trkpt>
      <trkpt lat="59.9702891383" lon="23.4654540163">
        <ele>16.4</ele>
        <time>2012-03-29T18:49:53Z</time>
      </trkpt>
      <trkpt lat="59.9705567724" lon="23.4655362427">
        <ele>16.4</ele>
        <time>2012-03-29T18:49:58Z</time>
      </trkpt>
      <trkpt lat="59.9706087401" lon="23.465560634">
        <ele>16.4</ele>
        <time>2012-03-29T18:49:59Z</time>
      </trkpt>
      <trkpt lat="59.9708175333" lon="23.4656535893">
        <ele>17</ele>
        <time>2012-03-29T18:50:03Z</time>
      </trkpt>
      <trkpt lat="59.9708565929" lon="23.4656767233">
        <ele>17.2</ele>
        <time>2012-03-29T18:50:04Z</time>
      </trkpt>
      <trkpt lat="59.9710954771" lon="23.4657964169">
        <ele>17.8</ele>
        <time>2012-03-29T18:50:09Z</time>
      </trkpt>
      <trkpt lat="59.9712735924" lon="23.4658765478">
        <ele>18</ele>
        <time>2012-03-29T18:50:13Z</time>
      </trkpt>
      <trkpt lat="59.9714804577" lon="23.4659545833">
        <ele>18.2</ele>
        <time>2012-03-29T18:50:18Z</time>
      </trkpt>
      <trkpt lat="59.9715650311" lon="23.4659849258">
        <ele>18.2</ele>
        <time>2012-03-29T18:50:20Z</time>
      </trkpt>
      <trkpt lat="59.9717867324" lon="23.4660125861">
        <ele>18.2</ele>
        <time>2012-03-29T18:50:25Z</time>
      </trkpt>
      <trkpt lat="59.9719342538" lon="23.4660115803">
        <ele>18.8</ele>
        <time>2012-03-29T18:50:28Z</time>
      </trkpt>
      <trkpt lat="59.9722075876" lon="23.465973275">
        <ele>19.6</ele>
        <time>2012-03-29T18:50:33Z</time>
      </trkpt>
      <trkpt lat="59.9724050651" lon="23.4659134282">
        <ele>19.8</ele>
        <time>2012-03-29T18:50:37Z</time>
      </trkpt>
      <trkpt lat="59.9726805782" lon="23.4657639789">
        <ele>20.6</ele>
        <time>2012-03-29T18:50:43Z</time>
      </trkpt>
      <trkpt lat="59.9728086536" lon="23.4656831774">
        <ele>21</ele>
        <time>2012-03-29T18:50:46Z</time>
      </trkpt>
      <trkpt lat="59.9731992502" lon="23.4652989511">
        <ele>22.4</ele>
        <time>2012-03-29T18:50:55Z</time>
      </trkpt>
      <trkpt lat="59.9733981526" lon="23.4650593126">
        <ele>23.4</ele>
        <time>2012-03-29T18:51:00Z</time>
      </trkpt>
      <trkpt lat="59.9735528825" lon="23.4648428919">
        <ele>24.2</ele>
        <time>2012-03-29T18:51:04Z</time>
      </trkpt>
      <trkpt lat="59.973591104" lon="23.4647786028">
        <ele>24.4</ele>
        <time>2012-03-29T18:51:05Z</time>
      </trkpt>
      <trkpt lat="59.9737366138" lon="23.4645061072">
        <ele>25.2</ele>
        <time>2012-03-29T18:51:09Z</time>
      </trkpt>
      <trkpt lat="59.9738518649" lon="23.4642216255">
        <ele>25.8</ele>
        <time>2012-03-29T18:51:13Z</time>
      </trkpt>
      <trkpt lat="59.9739103705" lon="23.4640922928">
        <ele>26.4</ele>
        <time>2012-03-29T18:51:15Z</time>
      </trkpt>
      <trkpt lat="59.9739558004" lon="23.4638188752">
        <ele>27.2</ele>
        <time>2012-03-29T18:51:19Z</time>
      </trkpt>
      <trkpt lat="59.9738529545" lon="23.4637098267">
        <ele>27.6</ele>
        <time>2012-03-29T18:51:22Z</time>
      </trkpt>
      <trkpt lat="59.9737736618" lon="23.4637902929">
        <ele>27.8</ele>
        <time>2012-03-29T18:51:24Z</time>
      </trkpt>
      <trkpt lat="59.9735715742" lon="23.4641703283">
        <ele>28.2</ele>
        <time>2012-03-29T18:51:30Z</time>
      </trkpt>
      <trkpt lat="59.973529497" lon="23.4642398142">
        <ele>28.2</ele>
        <time>2012-03-29T18:51:31Z</time>
      </trkpt>
      <trkpt lat="59.9733301754" lon="23.4644828055">
        <ele>28.4</ele>
        <time>2012-03-29T18:51:35Z</time>
      </trkpt>
      <trkpt lat="59.973167818" lon="23.4646724879">
        <ele>28.4</ele>
        <time>2012-03-29T18:51:38Z</time>
      </trkpt>
      <trkpt lat="59.9729705081" lon="23.4648557162">
        <ele>28.6</ele>
        <time>2012-03-29T18:51:41Z</time>
      </trkpt>
      <trkpt lat="59.97290295" lon="23.4649156468">
        <ele>28.6</ele>
        <time>2012-03-29T18:51:42Z</time>
      </trkpt>
      <trkpt lat="59.9727731144" lon="23.4650147209">
        <ele>28.6</ele>
        <time>2012-03-29T18:51:44Z</time>
      </trkpt>
      <trkpt lat="59.9723673466" lon="23.4652412836">
        <ele>28.6</ele>
        <time>2012-03-29T18:51:50Z</time>
      </trkpt>
      <trkpt lat="59.9721778318" lon="23.4653191515">
        <ele>28.2</ele>
        <time>2012-03-29T18:51:53Z</time>
      </trkpt>
      <trkpt lat="59.9719901611" lon="23.465360139">
        <ele>27.8</ele>
        <time>2012-03-29T18:51:56Z</time>
      </trkpt>
      <trkpt lat="59.97180358" lon="23.4653765675">
        <ele>27.4</ele>
        <time>2012-03-29T18:51:59Z</time>
      </trkpt>
      <trkpt lat="59.9716112992" lon="23.465376819">
        <ele>27.2</ele>
        <time>2012-03-29T18:52:02Z</time>
      </trkpt>
      <trkpt lat="59.9714228741" lon="23.4653616477">
        <ele>26.6</ele>
        <time>2012-03-29T18:52:05Z</time>
      </trkpt>
      <trkpt lat="59.9712337784" lon="23.4653158826">
        <ele>26.2</ele>
        <time>2012-03-29T18:52:08Z</time>
      </trkpt>
      <trkpt lat="59.9710502148" lon="23.4652497494">
        <ele>25.8</ele>
        <time>2012-03-29T18:52:11Z</time>
      </trkpt>
      <trkpt lat="59.9708752846" lon="23.4651612365">
        <ele>25.4</ele>
        <time>2012-03-29T18:52:14Z</time>
      </trkpt>
      <trkpt lat="59.9706918886" lon="23.4650414591">
        <ele>25.2</ele>
        <time>2012-03-29T18:52:17Z</time>
      </trkpt>
      <trkpt lat="59.9705053075" lon="23.4648692111">
        <ele>25</ele>
        <time>2012-03-29T18:52:20Z</time>
      </trkpt>
      <trkpt lat="59.9703292876" lon="23.4646545506">
        <ele>25</ele>
        <time>2012-03-29T18:52:23Z</time>
      </trkpt>
      <trkpt lat="59.9702775713" lon="23.464584478">
        <ele>24.8</ele>
        <time>2012-03-29T18:52:24Z</time>
      </trkpt>
      <trkpt lat="59.9700864639" lon="23.46419824">
        <ele>24.8</ele>
        <time>2012-03-29T18:52:28Z</time>
      </trkpt>
      <trkpt lat="59.9700510085" lon="23.4640840785">
        <ele>24.8</ele>
        <time>2012-03-29T18:52:29Z</time>
      </trkpt>
      <trkpt lat="59.9699934249" lon="23.463862042">
        <ele>24.8</ele>
        <time>2012-03-29T18:52:31Z</time>
      </trkpt>
      <trkpt lat="59.9699399483" lon="23.4633037236">
        <ele>24</ele>
        <time>2012-03-29T18:52:36Z</time>
      </trkpt>
      <trkpt lat="59.9701027248" lon="23.4623760149">
        <ele>23.2</ele>
        <time>2012-03-29T18:52:45Z</time>
      </trkpt>
      <trkpt lat="59.9702439599" lon="23.4621457642">
        <ele>23</ele>
        <time>2012-03-29T18:52:48Z</time>
      </trkpt>
      <trkpt lat="59.9703789923" lon="23.4619676488">
        <ele>23</ele>
        <time>2012-03-29T18:52:51Z</time>
      </trkpt>
      <trkpt lat="59.9705544254" lon="23.4618521462">
        <ele>22.8</ele>
        <time>2012-03-29T18:52:54Z</time>
      </trkpt>
      <trkpt lat="59.9709851713" lon="23.461655423">
        <ele>22.6</ele>
        <time>2012-03-29T18:53:02Z</time>
      </trkpt>
      <trkpt lat="59.9710797191" lon="23.4613877051">
        <ele>22.6</ele>
        <time>2012-03-29T18:53:05Z</time>
      </trkpt>
      <trkpt lat="59.9711021826" lon="23.4612725378">
        <ele>22.6</ele>
        <time>2012-03-29T18:53:06Z</time>
      </trkpt>
      <trkpt lat="59.9711877618" lon="23.4607929255">
        <ele>22.6</ele>
        <time>2012-03-29T18:53:10Z</time>
      </trkpt>
      <trkpt lat="59.9712655458" lon="23.4603916001">
        <ele>22.6</ele>
        <time>2012-03-29T18:53:13Z</time>
      </trkpt>
      <trkpt lat="59.9713391389" lon="23.4600175997">
        <ele>22.6</ele>
        <time>2012-03-29T18:53:16Z</time>
      </trkpt>
      <trkpt lat="59.9714254725" lon="23.459640079">
        <ele>22.6</ele>
        <time>2012-03-29T18:53:19Z</time>
      </trkpt>
      <trkpt lat="59.9715111355" lon="23.4592935712">
        <ele>22.6</ele>
        <time>2012-03-29T18:53:22Z</time>
      </trkpt>
      <trkpt lat="59.9715986425" lon="23.4589358317">
        <ele>22.6</ele>
        <time>2012-03-29T18:53:25Z</time>
      </trkpt>
      <trkpt lat="59.971680869" lon="23.4586137153">
        <ele>22.6</ele>
        <time>2012-03-29T18:53:28Z</time>
      </trkpt>
      <trkpt lat="59.9717650232" lon="23.4582745836">
        <ele>22.6</ele>
        <time>2012-03-29T18:53:31Z</time>
      </trkpt>
      <trkpt lat="59.971868875" lon="23.4578477773">
        <ele>22.6</ele>
        <time>2012-03-29T18:53:35Z</time>
      </trkpt>
      <trkpt lat="59.9719749898" lon="23.4574642215">
        <ele>22.6</ele>
        <time>2012-03-29T18:53:39Z</time>
      </trkpt>
      <trkpt lat="59.9717893308" lon="23.4566549491">
        <ele>21.6</ele>
        <time>2012-03-29T18:53:50Z</time>
      </trkpt>
      <trkpt lat="59.9716900891" lon="23.4565557912">
        <ele>21.4</ele>
        <time>2012-03-29T18:53:52Z</time>
      </trkpt>
      <trkpt lat="59.971414576" lon="23.4562573118">
        <ele>21</ele>
        <time>2012-03-29T18:53:57Z</time>
      </trkpt>
      <trkpt lat="59.971218691" lon="23.4560506979">
        <ele>21</ele>
        <time>2012-03-29T18:54:00Z</time>
      </trkpt>
      <trkpt lat="59.9710383125" lon="23.4558711576">
        <ele>20.4</ele>
        <time>2012-03-29T18:54:03Z</time>
      </trkpt>
      <trkpt lat="59.97087277" lon="23.4557048607">
        <ele>20</ele>
        <time>2012-03-29T18:54:06Z</time>
      </trkpt>
      <trkpt lat="59.9706925591" lon="23.4555263263">
        <ele>19.6</ele>
        <time>2012-03-29T18:54:09Z</time>
      </trkpt>
      <trkpt lat="59.9706343049" lon="23.4554740232">
        <ele>19.4</ele>
        <time>2012-03-29T18:54:10Z</time>
      </trkpt>
      <trkpt lat="59.9705744582" lon="23.4554308564">
        <ele>19.4</ele>
        <time>2012-03-29T18:54:11Z</time>
      </trkpt>
      <trkpt lat="59.9703909784" lon="23.4554140088">
        <ele>19.2</ele>
        <time>2012-03-29T18:54:14Z</time>
      </trkpt>
      <trkpt lat="59.9703320536" lon="23.4554478717">
        <ele>19</ele>
        <time>2012-03-29T18:54:15Z</time>
      </trkpt>
      <trkpt lat="59.9700573788" lon="23.455606122">
        <ele>18.8</ele>
        <time>2012-03-29T18:54:20Z</time>
      </trkpt>
      <trkpt lat="59.9698946023" lon="23.4556823972">
        <ele>18.8</ele>
        <time>2012-03-29T18:54:23Z</time>
      </trkpt>
      <trkpt lat="59.969654377" lon="23.4556676451">
        <ele>18</ele>
        <time>2012-03-29T18:54:27Z</time>
      </trkpt>
      <trkpt lat="59.9694986413" lon="23.4554692455">
        <ele>17.6</ele>
        <time>2012-03-29T18:54:30Z</time>
      </trkpt>
      <trkpt lat="59.9694532114" lon="23.4553830796">
        <ele>17.4</ele>
        <time>2012-03-29T18:54:31Z</time>
      </trkpt>
      <trkpt lat="59.9692910216" lon="23.4550291958">
        <ele>17.2</ele>
        <time>2012-03-29T18:54:35Z</time>
      </trkpt>
      <trkpt lat="59.9691635329" lon="23.454740607">
        <ele>17</ele>
        <time>2012-03-29T18:54:38Z</time>
      </trkpt>
      <trkpt lat="59.9690342002" lon="23.4544310634">
        <ele>16.8</ele>
        <time>2012-03-29T18:54:41Z</time>
      </trkpt>
      <trkpt lat="59.968915764" lon="23.4541357691">
        <ele>16.4</ele>
        <time>2012-03-29T18:54:44Z</time>
      </trkpt>
      <trkpt lat="59.9687887782" lon="23.4538289077">
        <ele>15.8</ele>
        <time>2012-03-29T18:54:47Z</time>
      </trkpt>
      <trkpt lat="59.9686721021" lon="23.45352498">
        <ele>15.4</ele>
        <time>2012-03-29T18:54:50Z</time>
      </trkpt>
      <trkpt lat="59.9685523248" lon="23.4532419232">
        <ele>15.2</ele>
        <time>2012-03-29T18:54:53Z</time>
      </trkpt>
      <trkpt lat="59.9684299491" lon="23.4529728642">
        <ele>15</ele>
        <time>2012-03-29T18:54:56Z</time>
      </trkpt>
      <trkpt lat="59.9682703577" lon="23.4526199024">
        <ele>14.8</ele>
        <time>2012-03-29T18:55:00Z</time>
      </trkpt>
      <trkpt lat="59.9682019614" lon="23.4524427929">
        <ele>14.6</ele>
        <time>2012-03-29T18:55:02Z</time>
      </trkpt>
      <trkpt lat="59.9680230916" lon="23.4520224406">
        <ele>14.2</ele>
        <time>2012-03-29T18:55:07Z</time>
      </trkpt>
      <trkpt lat="59.9678841197" lon="23.4516801238">
        <ele>13.6</ele>
        <time>2012-03-29T18:55:11Z</time>
      </trkpt>
      <trkpt lat="59.9678487481" lon="23.4515965563">
        <ele>13.4</ele>
        <time>2012-03-29T18:55:12Z</time>
      </trkpt>
      <trkpt lat="59.9676713871" lon="23.4511910399">
        <ele>13</ele>
        <time>2012-03-29T18:55:17Z</time>
      </trkpt>
      <trkpt lat="59.9675932678" lon="23.4510607852">
        <ele>12.8</ele>
        <time>2012-03-29T18:55:19Z</time>
      </trkpt>
      <trkpt lat="59.9675013184" lon="23.4509380742">
        <ele>12.8</ele>
        <time>2012-03-29T18:55:21Z</time>
      </trkpt>
      <trkpt lat="59.9672465086" lon="23.4507160377">
        <ele>12.6</ele>
        <time>2012-03-29T18:55:26Z</time>
      </trkpt>
      <trkpt lat="59.9670321834" lon="23.4505808376">
        <ele>12.6</ele>
        <time>2012-03-29T18:55:30Z</time>
      </trkpt>
      <trkpt lat="59.9668303473" lon="23.4504280356">
        <ele>12.4</ele>
        <time>2012-03-29T18:55:34Z</time>
      </trkpt>
      <trkpt lat="59.9665716818" lon="23.4502498364">
        <ele>12.4</ele>
        <time>2012-03-29T18:55:39Z</time>
      </trkpt>
      <trkpt lat="59.9663708515" lon="23.4500620818">
        <ele>12.4</ele>
        <time>2012-03-29T18:55:43Z</time>
      </trkpt>
      <trkpt lat="59.9663391679" lon="23.4499916739">
        <ele>12.4</ele>
        <time>2012-03-29T18:55:44Z</time>
      </trkpt>
      <trkpt lat="59.9663892917" lon="23.4495770213">
        <ele>12.4</ele>
        <time>2012-03-29T18:55:49Z</time>
      </trkpt>
      <trkpt lat="59.9665067221" lon="23.4492815593">
        <ele>12.4</ele>
        <time>2012-03-29T18:55:53Z</time>
      </trkpt>
      <trkpt lat="59.9665331251" lon="23.4492093073">
        <ele>12.4</ele>
        <time>2012-03-29T18:55:54Z</time>
      </trkpt>
      <trkpt lat="59.9666432632" lon="23.4489101573">
        <ele>12.4</ele>
        <time>2012-03-29T18:55:58Z</time>
      </trkpt>
      <trkpt lat="59.9667707519" lon="23.4486078222">
        <ele>12.4</ele>
        <time>2012-03-29T18:56:02Z</time>
      </trkpt>
      <trkpt lat="59.9668059559" lon="23.4485333909">
        <ele>12.4</ele>
        <time>2012-03-29T18:56:03Z</time>
      </trkpt>
      <trkpt lat="59.9669766952" lon="23.4481044891">
        <ele>12.4</ele>
        <time>2012-03-29T18:56:08Z</time>
      </trkpt>
      <trkpt lat="59.9671186846" lon="23.4477515273">
        <ele>12.4</ele>
        <time>2012-03-29T18:56:12Z</time>
      </trkpt>
      <trkpt lat="59.9672517892" lon="23.4474110545">
        <ele>12.4</ele>
        <time>2012-03-29T18:56:16Z</time>
      </trkpt>
      <trkpt lat="59.9673922698" lon="23.4470780416">
        <ele>12.4</ele>
        <time>2012-03-29T18:56:20Z</time>
      </trkpt>
      <trkpt lat="59.96752462" lon="23.4467223138">
        <ele>12.4</ele>
        <time>2012-03-29T18:56:24Z</time>
      </trkpt>
      <trkpt lat="59.9676607421" lon="23.4463745488">
        <ele>12.4</ele>
        <time>2012-03-29T18:56:28Z</time>
      </trkpt>
      <trkpt lat="59.9677870573" lon="23.4460107743">
        <ele>12.4</ele>
        <time>2012-03-29T18:56:32Z</time>
      </trkpt>
      <trkpt lat="59.9679639154" lon="23.4454634362">
        <ele>12.4</ele>
        <time>2012-03-29T18:56:38Z</time>
      </trkpt>
      <trkpt lat="59.9680648335" lon="23.4451264">
        <ele>13</ele>
        <time>2012-03-29T18:56:42Z</time>
      </trkpt>
      <trkpt lat="59.9683109261" lon="23.4446663175">
        <ele>13.6</ele>
        <time>2012-03-29T18:56:48Z</time>
      </trkpt>
      <trkpt lat="59.9683555178" lon="23.4446360589">
        <ele>13.6</ele>
        <time>2012-03-29T18:56:49Z</time>
      </trkpt>
      <trkpt lat="59.9684043004" lon="23.4446094882">
        <ele>13.8</ele>
        <time>2012-03-29T18:56:50Z</time>
      </trkpt>
      <trkpt lat="59.9685943181" lon="23.444533213">
        <ele>14</ele>
        <time>2012-03-29T18:56:54Z</time>
      </trkpt>
      <trkpt lat="59.968799507" lon="23.4444343904">
        <ele>14</ele>
        <time>2012-03-29T18:56:58Z</time>
      </trkpt>
      <trkpt lat="59.9689983257" lon="23.4443424409">
        <ele>14.8</ele>
        <time>2012-03-29T18:57:02Z</time>
      </trkpt>
      <trkpt lat="59.9691926181" lon="23.4442531737">
        <ele>15.4</ele>
        <time>2012-03-29T18:57:06Z</time>
      </trkpt>
      <trkpt lat="59.9693754274" lon="23.444122416">
        <ele>15.8</ele>
        <time>2012-03-29T18:57:10Z</time>
      </trkpt>
      <trkpt lat="59.9695480107" lon="23.4439427081">
        <ele>16</ele>
        <time>2012-03-29T18:57:14Z</time>
      </trkpt>
      <trkpt lat="59.9695921833" lon="23.443882107">
        <ele>16</ele>
        <time>2012-03-29T18:57:15Z</time>
      </trkpt>
      <trkpt lat="59.9697125474" lon="23.4437157263">
        <ele>16.2</ele>
        <time>2012-03-29T18:57:18Z</time>
      </trkpt>
      <trkpt lat="59.9698570513" lon="23.4434858946">
        <ele>16.4</ele>
        <time>2012-03-29T18:57:22Z</time>
      </trkpt>
      <trkpt lat="59.9699657646" lon="23.443279616">
        <ele>17</ele>
        <time>2012-03-29T18:57:25Z</time>
      </trkpt>
      <trkpt lat="59.9700903196" lon="23.4429115668">
        <ele>17.6</ele>
        <time>2012-03-29T18:57:30Z</time>
      </trkpt>
      <trkpt lat="59.9700759866" lon="23.4428185277">
        <ele>17.6</ele>
        <time>2012-03-29T18:57:31Z</time>
      </trkpt>
      <trkpt lat="59.969968363" lon="23.4423288571">
        <ele>18</ele>
        <time>2012-03-29T18:57:36Z</time>
      </trkpt>
      <trkpt lat="59.9698671096" lon="23.4419307168">
        <ele>18.2</ele>
        <time>2012-03-29T18:57:40Z</time>
      </trkpt>
      <trkpt lat="59.9697575582" lon="23.4415210096">
        <ele>18.2</ele>
        <time>2012-03-29T18:57:44Z</time>
      </trkpt>
      <trkpt lat="59.9696523653" lon="23.4411471768">
        <ele>18.4</ele>
        <time>2012-03-29T18:57:48Z</time>
      </trkpt>
      <trkpt lat="59.9695426463" lon="23.4407974839">
        <ele>18.4</ele>
        <time>2012-03-29T18:57:51Z</time>
      </trkpt>
      <trkpt lat="59.9694567318" lon="23.4404946459">
        <ele>18.4</ele>
        <time>2012-03-29T18:57:54Z</time>
      </trkpt>
      <trkpt lat="59.9694502777" lon="23.4400898001">
        <ele>18.4</ele>
        <time>2012-03-29T18:57:58Z</time>
      </trkpt>
      <trkpt lat="59.9694763454" lon="23.4399747166">
        <ele>18.4</ele>
        <time>2012-03-29T18:57:59Z</time>
      </trkpt>
      <trkpt lat="59.9696061811" lon="23.4394907457">
        <ele>18.4</ele>
        <time>2012-03-29T18:58:04Z</time>
      </trkpt>
      <trkpt lat="59.9696999745" lon="23.4391745805">
        <ele>18.4</ele>
        <time>2012-03-29T18:58:07Z</time>
      </trkpt>
      <trkpt lat="59.9698088554" lon="23.438759425">
        <ele>18.4</ele>
        <time>2012-03-29T18:58:11Z</time>
      </trkpt>
      <trkpt lat="59.9699242742" lon="23.4383493824">
        <ele>18.4</ele>
        <time>2012-03-29T18:58:15Z</time>
      </trkpt>
      <trkpt lat="59.9699448937" lon="23.4382502245">
        <ele>18.4</ele>
        <time>2012-03-29T18:58:16Z</time>
      </trkpt>
      <trkpt lat="59.9699145512" lon="23.4378499888">
        <ele>18.4</ele>
        <time>2012-03-29T18:58:20Z</time>
      </trkpt>
      <trkpt lat="59.9698252001" lon="23.4377376714">
        <ele>18.4</ele>
        <time>2012-03-29T18:58:22Z</time>
      </trkpt>
      <trkpt lat="59.9696664469" lon="23.4376112723">
        <ele>18</ele>
        <time>2012-03-29T18:58:25Z</time>
      </trkpt>
      <trkpt lat="59.9694605875" lon="23.4372502639">
        <ele>17.4</ele>
        <time>2012-03-29T18:58:30Z</time>
      </trkpt>
      <trkpt lat="59.9694257188" lon="23.4368075319">
        <ele>17</ele>
        <time>2012-03-29T18:58:34Z</time>
      </trkpt>
      <trkpt lat="59.9695392935" lon="23.4365031013">
        <ele>16.8</ele>
        <time>2012-03-29T18:58:37Z</time>
      </trkpt>
      <trkpt lat="59.9697617491" lon="23.4363280872">
        <ele>16.8</ele>
        <time>2012-03-29T18:58:41Z</time>
      </trkpt>
      <trkpt lat="59.9698328277" lon="23.4362922965">
        <ele>16.8</ele>
        <time>2012-03-29T18:58:42Z</time>
      </trkpt>
      <trkpt lat="59.9700190735" lon="23.4361986707">
        <ele>16.4</ele>
        <time>2012-03-29T18:58:45Z</time>
      </trkpt>
      <trkpt lat="59.9702042296" lon="23.4361213896">
        <ele>15.8</ele>
        <time>2012-03-29T18:58:48Z</time>
      </trkpt>
      <trkpt lat="59.9704316306" lon="23.4360316194">
        <ele>15.4</ele>
        <time>2012-03-29T18:58:52Z</time>
      </trkpt>
      <trkpt lat="59.9706198881" lon="23.4359899614">
        <ele>15</ele>
        <time>2012-03-29T18:58:55Z</time>
      </trkpt>
      <trkpt lat="59.9708441039" lon="23.4359689228">
        <ele>14.8</ele>
        <time>2012-03-29T18:58:59Z</time>
      </trkpt>
      <trkpt lat="59.9710280028" lon="23.4359871954">
        <ele>14.6</ele>
        <time>2012-03-29T18:59:02Z</time>
      </trkpt>
      <trkpt lat="59.9712133266" lon="23.4359962478">
        <ele>14</ele>
        <time>2012-03-29T18:59:05Z</time>
      </trkpt>
      <trkpt lat="59.9714019193" lon="23.4360135145">
        <ele>13.6</ele>
        <time>2012-03-29T18:59:08Z</time>
      </trkpt>
      <trkpt lat="59.9714625205" lon="23.4360346369">
        <ele>13.4</ele>
        <time>2012-03-29T18:59:09Z</time>
      </trkpt>
      <trkpt lat="59.9716353553" lon="23.4362354672">
        <ele>13</ele>
        <time>2012-03-29T18:59:12Z</time>
      </trkpt>
      <trkpt lat="59.9716721518" lon="23.4363442643">
        <ele>13</ele>
        <time>2012-03-29T18:59:13Z</time>
      </trkpt>
      <trkpt lat="59.9717721479" lon="23.4366471862">
        <ele>12.8</ele>
        <time>2012-03-29T18:59:16Z</time>
      </trkpt>
      <trkpt lat="59.9718350121" lon="23.4368472621">
        <ele>12.6</ele>
        <time>2012-03-29T18:59:18Z</time>
      </trkpt>
      <trkpt lat="59.9720095233" lon="23.4369501918">
        <ele>12.6</ele>
        <time>2012-03-29T18:59:22Z</time>
      </trkpt>
      <trkpt lat="59.9720597308" lon="23.4368970506">
        <ele>12.4</ele>
        <time>2012-03-29T18:59:23Z</time>
      </trkpt>
      <trkpt lat="59.9722985312" lon="23.436632434">
        <ele>12.4</ele>
        <time>2012-03-29T18:59:28Z</time>
      </trkpt>
      <trkpt lat="59.9724043108" lon="23.436534282">
        <ele>12.4</ele>
        <time>2012-03-29T18:59:30Z</time>
      </trkpt>
      <trkpt lat="59.972452339" lon="23.4364970663">
        <ele>12.4</ele>
        <time>2012-03-29T18:59:31Z</time>
      </trkpt>
      <trkpt lat="59.9727099148" lon="23.4362052086">
        <ele>12.2</ele>
        <time>2012-03-29T18:59:36Z</time>
      </trkpt>
      <trkpt lat="59.9727520758" lon="23.436138321">
        <ele>12.2</ele>
        <time>2012-03-29T18:59:37Z</time>
      </trkpt>
      <trkpt lat="59.9727628884" lon="23.435884098">
        <ele>12.2</ele>
        <time>2012-03-29T18:59:40Z</time>
      </trkpt>
      <trkpt lat="59.9726384172" lon="23.4356906437">
        <ele>12.2</ele>
        <time>2012-03-29T18:59:43Z</time>
      </trkpt>
      <trkpt lat="59.9725407681" lon="23.4355883846">
        <ele>12.2</ele>
        <time>2012-03-29T18:59:45Z</time>
      </trkpt>
      <trkpt lat="59.9724924045" lon="23.4344445905">
        <ele>12.2</ele>
        <time>2012-03-29T18:59:56Z</time>
      </trkpt>
      <trkpt lat="59.9723986111" lon="23.434050725">
        <ele>12.2</ele>
        <time>2012-03-29T19:00:00Z</time>
      </trkpt>
      <trkpt lat="59.972361144" lon="23.4339793112">
        <ele>12.2</ele>
        <time>2012-03-29T19:00:01Z</time>
      </trkpt>
      <trkpt lat="59.9721552007" lon="23.4335923189">
        <ele>12.2</ele>
        <time>2012-03-29T19:00:06Z</time>
      </trkpt>
      <trkpt lat="59.9721151352" lon="23.4335134452">
        <ele>12.2</ele>
        <time>2012-03-29T19:00:07Z</time>
      </trkpt>
      <trkpt lat="59.9719785941" lon="23.4331255309">
        <ele>12.2</ele>
        <time>2012-03-29T19:00:12Z</time>
      </trkpt>
      <trkpt lat="59.9720205874" lon="23.4329731479">
        <ele>12.2</ele>
        <time>2012-03-29T19:00:14Z</time>
      </trkpt>
      <trkpt lat="59.9722043186" lon="23.432620689">
        <ele>12.2</ele>
        <time>2012-03-29T19:00:19Z</time>
      </trkpt>
      <trkpt lat="59.9722812645" lon="23.4324837288">
        <ele>12.2</ele>
        <time>2012-03-29T19:00:21Z</time>
      </trkpt>
      <trkpt lat="59.9723533488" lon="23.4322075452">
        <ele>12.2</ele>
        <time>2012-03-29T19:00:25Z</time>
      </trkpt>
      <trkpt lat="59.9722859583" lon="23.4319876041">
        <ele>12.2</ele>
        <time>2012-03-29T19:00:28Z</time>
      </trkpt>
      <trkpt lat="59.9721000478" lon="23.4315731192">
        <ele>12.2</ele>
        <time>2012-03-29T19:00:33Z</time>
      </trkpt>
      <trkpt lat="59.9720313162" lon="23.4313883821">
        <ele>12.2</ele>
        <time>2012-03-29T19:00:35Z</time>
      </trkpt>
      <trkpt lat="59.9719865569" lon="23.4312080874">
        <ele>12.2</ele>
        <time>2012-03-29T19:00:37Z</time>
      </trkpt>
      <trkpt lat="59.9718298153" lon="23.4307004796">
        <ele>12.2</ele>
        <time>2012-03-29T19:00:42Z</time>
      </trkpt>
      <trkpt lat="59.9718000596" lon="23.430596544">
        <ele>12.2</ele>
        <time>2012-03-29T19:00:43Z</time>
      </trkpt>
      <trkpt lat="59.9716551365" lon="23.4300911154">
        <ele>12.2</ele>
        <time>2012-03-29T19:00:48Z</time>
      </trkpt>
      <trkpt lat="59.9715776878" lon="23.429766233">
        <ele>12.2</ele>
        <time>2012-03-29T19:00:51Z</time>
      </trkpt>
      <trkpt lat="59.9715051005" lon="23.4293639018">
        <ele>12.2</ele>
        <time>2012-03-29T19:00:55Z</time>
      </trkpt>
      <trkpt lat="59.9717257121" lon="23.4288722195">
        <ele>12.2</ele>
        <time>2012-03-29T19:01:02Z</time>
      </trkpt>
      <trkpt lat="59.971763263" lon="23.4288481635">
        <ele>12.2</ele>
        <time>2012-03-29T19:01:03Z</time>
      </trkpt>
      <trkpt lat="59.9722178135" lon="23.428725201">
        <ele>12.2</ele>
        <time>2012-03-29T19:01:11Z</time>
      </trkpt>
      <trkpt lat="59.9724444601" lon="23.4287095269">
        <ele>12.2</ele>
        <time>2012-03-29T19:01:15Z</time>
      </trkpt>
      <trkpt lat="59.9726702684" lon="23.4286313237">
        <ele>12.2</ele>
        <time>2012-03-29T19:01:19Z</time>
      </trkpt>
      <trkpt lat="59.9729002678" lon="23.4285159888">
        <ele>12.2</ele>
        <time>2012-03-29T19:01:23Z</time>
      </trkpt>
      <trkpt lat="59.973128004" lon="23.4284645239">
        <ele>12.2</ele>
        <time>2012-03-29T19:01:27Z</time>
      </trkpt>
      <trkpt lat="59.9733495376" lon="23.4285169946">
        <ele>12.2</ele>
        <time>2012-03-29T19:01:31Z</time>
      </trkpt>
      <trkpt lat="59.9734028465" lon="23.4285492649">
        <ele>12.2</ele>
        <time>2012-03-29T19:01:32Z</time>
      </trkpt>
      <trkpt lat="59.9735923613" lon="23.4287818627">
        <ele>12.2</ele>
        <time>2012-03-29T19:01:36Z</time>
      </trkpt>
      <trkpt lat="59.9736692233" lon="23.428907675">
        <ele>12.2</ele>
        <time>2012-03-29T19:01:38Z</time>
      </trkpt>
      <trkpt lat="59.9740573053" lon="23.429414277">
        <ele>12.2</ele>
        <time>2012-03-29T19:01:46Z</time>
      </trkpt>
      <trkpt lat="59.9742523521" lon="23.4296640576">
        <ele>12.2</ele>
        <time>2012-03-29T19:01:50Z</time>
      </trkpt>
      <trkpt lat="59.9744364186" lon="23.4299411632">
        <ele>12.2</ele>
        <time>2012-03-29T19:01:54Z</time>
      </trkpt>
      <trkpt lat="59.9745741332" lon="23.4301780357">
        <ele>12.2</ele>
        <time>2012-03-29T19:01:57Z</time>
      </trkpt>
      <trkpt lat="59.9746121032" lon="23.4302543949">
        <ele>12.2</ele>
        <time>2012-03-29T19:01:58Z</time>
      </trkpt>
      <trkpt lat="59.9747100038" lon="23.4307842986">
        <ele>12.2</ele>
        <time>2012-03-29T19:02:03Z</time>
      </trkpt>
      <trkpt lat="59.9747069863" lon="23.4308867254">
        <ele>12.2</ele>
        <time>2012-03-29T19:02:04Z</time>
      </trkpt>
      <trkpt lat="59.9746880432" lon="23.4312547746">
        <ele>12.2</ele>
        <time>2012-03-29T19:02:07Z</time>
      </trkpt>
      <trkpt lat="59.9746665856" lon="23.4314719496">
        <ele>12.2</ele>
        <time>2012-03-29T19:02:09Z</time>
      </trkpt>
      <trkpt lat="59.9746944135" lon="23.4319709242">
        <ele>12.2</ele>
        <time>2012-03-29T19:02:14Z</time>
      </trkpt>
      <trkpt lat="59.9747707726" lon="23.432108974">
        <ele>12.2</ele>
        <time>2012-03-29T19:02:16Z</time>
      </trkpt>
      <trkpt lat="59.9749028713" lon="23.4322929568">
        <ele>12.2</ele>
        <time>2012-03-29T19:02:19Z</time>
      </trkpt>
      <trkpt lat="59.9751499697" lon="23.4325369539">
        <ele>12.2</ele>
        <time>2012-03-29T19:02:24Z</time>
      </trkpt>
      <trkpt lat="59.9752928811" lon="23.4326865708">
        <ele>12.2</ele>
        <time>2012-03-29T19:02:27Z</time>
      </trkpt>
      <trkpt lat="59.9753893568" lon="23.4327518658">
        <ele>12.2</ele>
        <time>2012-03-29T19:02:29Z</time>
      </trkpt>
      <trkpt lat="59.9756508721" lon="23.4329894926">
        <ele>12.2</ele>
        <time>2012-03-29T19:02:34Z</time>
      </trkpt>
      <trkpt lat="59.9758064401" lon="23.4329702143">
        <ele>12.2</ele>
        <time>2012-03-29T19:02:37Z</time>
      </trkpt>
      <trkpt lat="59.9758559772" lon="23.4329360999">
        <ele>12.2</ele>
        <time>2012-03-29T19:02:38Z</time>
      </trkpt>
      <trkpt lat="59.9761179116" lon="23.4327373651">
        <ele>12.2</ele>
        <time>2012-03-29T19:02:43Z</time>
      </trkpt>
      <trkpt lat="59.9762832864" lon="23.4326057693">
        <ele>12.2</ele>
        <time>2012-03-29T19:02:46Z</time>
      </trkpt>
      <trkpt lat="59.976515046" lon="23.4326155761">
        <ele>12.2</ele>
        <time>2012-03-29T19:02:50Z</time>
      </trkpt>
      <trkpt lat="59.9766834383" lon="23.4327900034">
        <ele>12.2</ele>
        <time>2012-03-29T19:02:53Z</time>
      </trkpt>
      <trkpt lat="59.9767283653" lon="23.4328455754">
        <ele>12.2</ele>
        <time>2012-03-29T19:02:54Z</time>
      </trkpt>
      <trkpt lat="59.9771041259" lon="23.4333651694">
        <ele>12.2</ele>
        <time>2012-03-29T19:03:02Z</time>
      </trkpt>
      <trkpt lat="59.977292551" lon="23.43362702">
        <ele>12.2</ele>
        <time>2012-03-29T19:03:06Z</time>
      </trkpt>
      <trkpt lat="59.977483826" lon="23.4338850987">
        <ele>12.2</ele>
        <time>2012-03-29T19:03:10Z</time>
      </trkpt>
      <trkpt lat="59.9776372147" lon="23.4341080572">
        <ele>12.2</ele>
        <time>2012-03-29T19:03:13Z</time>
      </trkpt>
      <trkpt lat="59.9778113906" lon="23.4343743502">
        <ele>12.2</ele>
        <time>2012-03-29T19:03:17Z</time>
      </trkpt>
      <trkpt lat="59.9779914338" lon="23.4346021702">
        <ele>12.2</ele>
        <time>2012-03-29T19:03:21Z</time>
      </trkpt>
      <trkpt lat="59.9781847205" lon="23.4347860691">
        <ele>12.2</ele>
        <time>2012-03-29T19:03:25Z</time>
      </trkpt>
      <trkpt lat="59.9782279711" lon="23.4348425631">
        <ele>12.2</ele>
        <time>2012-03-29T19:03:26Z</time>
      </trkpt>
      <trkpt lat="59.9783969502" lon="23.4350911702">
        <ele>12.2</ele>
        <time>2012-03-29T19:03:30Z</time>
      </trkpt>
      <trkpt lat="59.9784884805" lon="23.4352245263">
        <ele>12.2</ele>
        <time>2012-03-29T19:03:32Z</time>
      </trkpt>
      <trkpt lat="59.978706829" lon="23.4355572877">
        <ele>12.2</ele>
        <time>2012-03-29T19:03:37Z</time>
      </trkpt>
      <trkpt lat="59.9787430388" lon="23.4355910668">
        <ele>12.2</ele>
        <time>2012-03-29T19:03:38Z</time>
      </trkpt>
      <trkpt lat="59.9788450465" lon="23.4356660009">
        <ele>12.2</ele>
        <time>2012-03-29T19:03:40Z</time>
      </trkpt>
      <trkpt lat="59.9791167039" lon="23.4357333914">
        <ele>12.2</ele>
        <time>2012-03-29T19:03:45Z</time>
      </trkpt>
      <trkpt lat="59.9793065539" lon="23.4357695174">
        <ele>12.2</ele>
        <time>2012-03-29T19:03:49Z</time>
      </trkpt>
      <trkpt lat="59.979363467" lon="23.4357633986">
        <ele>12.2</ele>
        <time>2012-03-29T19:03:50Z</time>
      </trkpt>
      <trkpt lat="59.9795671472" lon="23.4356239238">
        <ele>12.2</ele>
        <time>2012-03-29T19:03:54Z</time>
      </trkpt>
      <trkpt lat="59.9797389762" lon="23.4354575431">
        <ele>12.2</ele>
        <time>2012-03-29T19:03:57Z</time>
      </trkpt>
      <trkpt lat="59.9799185165" lon="23.4353071718">
        <ele>12.2</ele>
        <time>2012-03-29T19:04:00Z</time>
      </trkpt>
      <trkpt lat="59.9799794529" lon="23.4352897375">
        <ele>12.2</ele>
        <time>2012-03-29T19:04:01Z</time>
      </trkpt>
      <trkpt lat="59.9801536288" lon="23.4353675215">
        <ele>12.2</ele>
        <time>2012-03-29T19:04:04Z</time>
      </trkpt>
      <trkpt lat="59.9802132241" lon="23.4354155498">
        <ele>12.2</ele>
        <time>2012-03-29T19:04:05Z</time>
      </trkpt>
      <trkpt lat="59.980267455" lon="23.4354597224">
        <ele>12.2</ele>
        <time>2012-03-29T19:04:06Z</time>
      </trkpt>
      <trkpt lat="59.9804588976" lon="23.4353313955">
        <ele>12.2</ele>
        <time>2012-03-29T19:04:10Z</time>
      </trkpt>
      <trkpt lat="59.9804920061" lon="23.4352354227">
        <ele>12.2</ele>
        <time>2012-03-29T19:04:11Z</time>
      </trkpt>
      <trkpt lat="59.9806057484" lon="23.4348529566">
        <ele>12.2</ele>
        <time>2012-03-29T19:04:15Z</time>
      </trkpt>
      <trkpt lat="59.9807062474" lon="23.4344738433">
        <ele>12.2</ele>
        <time>2012-03-29T19:04:19Z</time>
      </trkpt>
      <trkpt lat="59.9808063273" lon="23.4340713445">
        <ele>12.2</ele>
        <time>2012-03-29T19:04:23Z</time>
      </trkpt>
      <trkpt lat="59.9809084189" lon="23.4336850227">
        <ele>12.2</ele>
        <time>2012-03-29T19:04:27Z</time>
      </trkpt>
      <trkpt lat="59.9810066547" lon="23.4333025566">
        <ele>12.2</ele>
        <time>2012-03-29T19:04:31Z</time>
      </trkpt>
      <trkpt lat="59.9811038848" lon="23.4329241138">
        <ele>12.2</ele>
        <time>2012-03-29T19:04:35Z</time>
      </trkpt>
      <trkpt lat="59.9811966724" lon="23.4325193519">
        <ele>12.2</ele>
        <time>2012-03-29T19:04:39Z</time>
      </trkpt>
      <trkpt lat="59.9812986801" lon="23.4321142546">
        <ele>12.2</ele>
        <time>2012-03-29T19:04:43Z</time>
      </trkpt>
      <trkpt lat="59.9813990115" lon="23.4317100794">
        <ele>12.2</ele>
        <time>2012-03-29T19:04:47Z</time>
      </trkpt>
      <trkpt lat="59.981495068" lon="23.4313297926">
        <ele>12.2</ele>
        <time>2012-03-29T19:04:51Z</time>
      </trkpt>
      <trkpt lat="59.9815846706" lon="23.4309826981">
        <ele>12.2</ele>
        <time>2012-03-29T19:04:55Z</time>
      </trkpt>
      <trkpt lat="59.9817043641" lon="23.4305975498">
        <ele>12.2</ele>
        <time>2012-03-29T19:04:59Z</time>
      </trkpt>
      <trkpt lat="59.9817482852" lon="23.4305132279">
        <ele>12.2</ele>
        <time>2012-03-29T19:05:00Z</time>
      </trkpt>
      <trkpt lat="59.9819051944" lon="23.4304246312">
        <ele>12.2</ele>
        <time>2012-03-29T19:05:03Z</time>
      </trkpt>
      <trkpt lat="59.9819533903" lon="23.4304139024">
        <ele>12.2</ele>
        <time>2012-03-29T19:05:04Z</time>
      </trkpt>
      <trkpt lat="59.9820725809" lon="23.430395127">
        <ele>12.2</ele>
        <time>2012-03-29T19:05:06Z</time>
      </trkpt>
      <trkpt lat="59.9823532908" lon="23.4304283193">
        <ele>12.2</ele>
        <time>2012-03-29T19:05:11Z</time>
      </trkpt>
      <trkpt lat="59.9824096171" lon="23.4304335999">
        <ele>12.2</ele>
        <time>2012-03-29T19:05:12Z</time>
      </trkpt>
      <trkpt lat="59.9825908338" lon="23.4302622738">
        <ele>12.2</ele>
        <time>2012-03-29T19:05:16Z</time>
      </trkpt>
      <trkpt lat="59.9826355094" lon="23.430189938">
        <ele>12.2</ele>
        <time>2012-03-29T19:05:17Z</time>
      </trkpt>
      <trkpt lat="59.9827122876" lon="23.4300570011">
        <ele>12.2</ele>
        <time>2012-03-29T19:05:19Z</time>
      </trkpt>
      <trkpt lat="59.9828140438" lon="23.4295539195">
        <ele>12.2</ele>
        <time>2012-03-29T19:05:24Z</time>
      </trkpt>
      <trkpt lat="59.9828868825" lon="23.4291480679">
        <ele>12.2</ele>
        <time>2012-03-29T19:05:28Z</time>
      </trkpt>
      <trkpt lat="59.9829554465" lon="23.4287533642">
        <ele>12.2</ele>
        <time>2012-03-29T19:05:32Z</time>
      </trkpt>
      <trkpt lat="59.9830226693" lon="23.4283705628">
        <ele>12.2</ele>
        <time>2012-03-29T19:05:36Z</time>
      </trkpt>
      <trkpt lat="59.9830862041" lon="23.4280026812">
        <ele>12.2</ele>
        <time>2012-03-29T19:05:40Z</time>
      </trkpt>
      <trkpt lat="59.9831554386" lon="23.427610576">
        <ele>12.2</ele>
        <time>2012-03-29T19:05:44Z</time>
      </trkpt>
      <trkpt lat="59.983218722" lon="23.4272446222">
        <ele>12.2</ele>
        <time>2012-03-29T19:05:48Z</time>
      </trkpt>
      <trkpt lat="59.9832917283" lon="23.4268491642">
        <ele>13</ele>
        <time>2012-03-29T19:05:52Z</time>
      </trkpt>
      <trkpt lat="59.9833584482" lon="23.4264800253">
        <ele>13.4</ele>
        <time>2012-03-29T19:05:56Z</time>
      </trkpt>
      <trkpt lat="59.9833920596" lon="23.4262808713">
        <ele>13.6</ele>
        <time>2012-03-29T19:05:58Z</time>
      </trkpt>
      <trkpt lat="59.983348809" lon="23.4258991596">
        <ele>13.8</ele>
        <time>2012-03-29T19:06:02Z</time>
      </trkpt>
      <trkpt lat="59.9833289439" lon="23.4257958108">
        <ele>13.8</ele>
        <time>2012-03-29T19:06:03Z</time>
      </trkpt>
      <trkpt lat="59.983378481" lon="23.4254575173">
        <ele>14</ele>
        <time>2012-03-29T19:06:06Z</time>
      </trkpt>
      <trkpt lat="59.9835126752" lon="23.4253579403">
        <ele>14</ele>
        <time>2012-03-29T19:06:08Z</time>
      </trkpt>
      <trkpt lat="59.9835840052" lon="23.4253554258">
        <ele>14</ele>
        <time>2012-03-29T19:06:09Z</time>
      </trkpt>
      <trkpt lat="59.9840273238" lon="23.4253368179">
        <ele>14.2</ele>
        <time>2012-03-29T19:06:15Z</time>
      </trkpt>
      <trkpt lat="59.9840910263" lon="23.4253389134">
        <ele>14.2</ele>
        <time>2012-03-29T19:06:16Z</time>
      </trkpt>
      <trkpt lat="59.9843202713" lon="23.425171946">
        <ele>14.2</ele>
        <time>2012-03-29T19:06:20Z</time>
      </trkpt>
      <trkpt lat="59.9845035834" lon="23.4251500692">
        <ele>14.2</ele>
        <time>2012-03-29T19:06:23Z</time>
      </trkpt>
      <trkpt lat="59.9845669506" lon="23.4251625582">
        <ele>14.2</ele>
        <time>2012-03-29T19:06:24Z</time>
      </trkpt>
      <trkpt lat="59.9847851314" lon="23.4251706887">
        <ele>14.2</ele>
        <time>2012-03-29T19:06:27Z</time>
      </trkpt>
      <trkpt lat="59.985005743" lon="23.4251697667">
        <ele>14.2</ele>
        <time>2012-03-29T19:06:30Z</time>
      </trkpt>
      <trkpt lat="59.9852207388" lon="23.4251618039">
        <ele>14.2</ele>
        <time>2012-03-29T19:06:33Z</time>
      </trkpt>
      <trkpt lat="59.9854166238" lon="23.4251547631">
        <ele>14.2</ele>
        <time>2012-03-29T19:06:36Z</time>
      </trkpt>
      <trkpt lat="59.9856323739" lon="23.4251457106">
        <ele>14.2</ele>
        <time>2012-03-29T19:06:39Z</time>
      </trkpt>
      <trkpt lat="59.9858372275" lon="23.4251406815">
        <ele>14.2</ele>
        <time>2012-03-29T19:06:42Z</time>
      </trkpt>
      <trkpt lat="59.9860758602" lon="23.4251382507">
        <ele>14.2</ele>
        <time>2012-03-29T19:06:45Z</time>
      </trkpt>
      <trkpt lat="59.9863082065" lon="23.4251309585">
        <ele>14.4</ele>
        <time>2012-03-29T19:06:48Z</time>
      </trkpt>
      <trkpt lat="59.9865140659" lon="23.4251393404">
        <ele>15</ele>
        <time>2012-03-29T19:06:51Z</time>
      </trkpt>
      <trkpt lat="59.9866934386" lon="23.425183513">
        <ele>15.2</ele>
        <time>2012-03-29T19:06:53Z</time>
      </trkpt>
      <trkpt lat="59.9869171515" lon="23.4252863589">
        <ele>15.4</ele>
        <time>2012-03-29T19:06:56Z</time>
      </trkpt>
      <trkpt lat="59.9871355838" lon="23.4254094052">
        <ele>15.6</ele>
        <time>2012-03-29T19:06:59Z</time>
      </trkpt>
      <trkpt lat="59.9873801677" lon="23.4255213036">
        <ele>15.8</ele>
        <time>2012-03-29T19:07:02Z</time>
      </trkpt>
      <trkpt lat="59.9876125978" lon="23.4255961539">
        <ele>16</ele>
        <time>2012-03-29T19:07:05Z</time>
      </trkpt>
      <trkpt lat="59.9878256657" lon="23.4256486246">
        <ele>16</ele>
        <time>2012-03-29T19:07:08Z</time>
      </trkpt>
      <trkpt lat="59.9880249034" lon="23.4256995866">
        <ele>16.6</ele>
        <time>2012-03-29T19:07:11Z</time>
      </trkpt>
      <trkpt lat="59.9882188606" lon="23.4257352935">
        <ele>17</ele>
        <time>2012-03-29T19:07:14Z</time>
      </trkpt>
      <trkpt lat="59.9884180145" lon="23.4257681505">
        <ele>17.4</ele>
        <time>2012-03-29T19:07:17Z</time>
      </trkpt>
      <trkpt lat="59.9885424019" lon="23.4257898596">
        <ele>17.6</ele>
        <time>2012-03-29T19:07:19Z</time>
      </trkpt>
      <trkpt lat="59.9886086189" lon="23.425799415">
        <ele>17.6</ele>
        <time>2012-03-29T19:07:20Z</time>
      </trkpt>
      <trkpt lat="59.9888133049" lon="23.4258237225">
        <ele>17.8</ele>
        <time>2012-03-29T19:07:23Z</time>
      </trkpt>
      <trkpt lat="59.9890347547" lon="23.425852221">
        <ele>18</ele>
        <time>2012-03-29T19:07:26Z</time>
      </trkpt>
      <trkpt lat="59.9892710405" lon="23.4258867544">
        <ele>18</ele>
        <time>2012-03-29T19:07:29Z</time>
      </trkpt>
      <trkpt lat="59.9895248444" lon="23.4259141632">
        <ele>18.2</ele>
        <time>2012-03-29T19:07:32Z</time>
      </trkpt>
      <trkpt lat="59.9897778102" lon="23.4259421588">
        <ele>18.2</ele>
        <time>2012-03-29T19:07:35Z</time>
      </trkpt>
      <trkpt lat="59.9900233998" lon="23.4259674721">
        <ele>18.8</ele>
        <time>2012-03-29T19:07:38Z</time>
      </trkpt>
      <trkpt lat="59.9902414131" lon="23.4259741776">
        <ele>19.2</ele>
        <time>2012-03-29T19:07:41Z</time>
      </trkpt>
      <trkpt lat="59.9904467696" lon="23.4260009997">
        <ele>19.4</ele>
        <time>2012-03-29T19:07:44Z</time>
      </trkpt>
      <trkpt lat="59.9907242105" lon="23.4260442503">
        <ele>19.6</ele>
        <time>2012-03-29T19:07:48Z</time>
      </trkpt>
      <trkpt lat="59.9909511085" lon="23.426097643">
        <ele>19.8</ele>
        <time>2012-03-29T19:07:51Z</time>
      </trkpt>
      <trkpt lat="59.9911600693" lon="23.4261641115">
        <ele>20</ele>
        <time>2012-03-29T19:07:54Z</time>
      </trkpt>
      <trkpt lat="59.9913649229" lon="23.4262754231">
        <ele>20</ele>
        <time>2012-03-29T19:07:57Z</time>
      </trkpt>
      <trkpt lat="59.9916035556" lon="23.4264531194">
        <ele>20.2</ele>
        <time>2012-03-29T19:08:00Z</time>
      </trkpt>
      <trkpt lat="59.9916700241" lon="23.4265210966">
        <ele>20.2</ele>
        <time>2012-03-29T19:08:01Z</time>
      </trkpt>
      <trkpt lat="59.9918575272" lon="23.4267637526">
        <ele>20.2</ele>
        <time>2012-03-29T19:08:04Z</time>
      </trkpt>
      <trkpt lat="59.9924062064" lon="23.4272816702">
        <ele>20.2</ele>
        <time>2012-03-29T19:08:12Z</time>
      </trkpt>
      <trkpt lat="59.9924854153" lon="23.4273018706">
        <ele>20.2</ele>
        <time>2012-03-29T19:08:13Z</time>
      </trkpt>
      <trkpt lat="59.9928292409" lon="23.4273355658">
        <ele>20.2</ele>
        <time>2012-03-29T19:08:17Z</time>
      </trkpt>
      <trkpt lat="59.9930913429" lon="23.4273484739">
        <ele>20.2</ele>
        <time>2012-03-29T19:08:20Z</time>
      </trkpt>
      <trkpt lat="59.9933375193" lon="23.4274136851">
        <ele>20.2</ele>
        <time>2012-03-29T19:08:23Z</time>
      </trkpt>
      <trkpt lat="59.9934113638" lon="23.4274384117">
        <ele>20.2</ele>
        <time>2012-03-29T19:08:24Z</time>
      </trkpt>
      <trkpt lat="59.9937202368" lon="23.4276393259">
        <ele>20.2</ele>
        <time>2012-03-29T19:08:28Z</time>
      </trkpt>
      <trkpt lat="59.9938906409" lon="23.4277835784">
        <ele>20.2</ele>
        <time>2012-03-29T19:08:30Z</time>
      </trkpt>
      <trkpt lat="59.9940625536" lon="23.4279362128">
        <ele>19.8</ele>
        <time>2012-03-29T19:08:32Z</time>
      </trkpt>
      <trkpt lat="59.9943264158" lon="23.4281683914">
        <ele>19.4</ele>
        <time>2012-03-29T19:08:35Z</time>
      </trkpt>
      <trkpt lat="59.9944978257" lon="23.4283253006">
        <ele>19.2</ele>
        <time>2012-03-29T19:08:37Z</time>
      </trkpt>
      <trkpt lat="59.9946629491" lon="23.4284756719">
        <ele>18.6</ele>
        <time>2012-03-29T19:08:39Z</time>
      </trkpt>
      <trkpt lat="59.994886662" lon="23.4286742391">
        <ele>18</ele>
        <time>2012-03-29T19:08:42Z</time>
      </trkpt>
      <trkpt lat="59.9950548029" lon="23.4288183239">
        <ele>17.6</ele>
        <time>2012-03-29T19:08:44Z</time>
      </trkpt>
      <trkpt lat="59.995260411" lon="23.4290052403">
        <ele>17.2</ele>
        <time>2012-03-29T19:08:47Z</time>
      </trkpt>
      <trkpt lat="59.9953247001" lon="23.4290581301">
        <ele>17</ele>
        <time>2012-03-29T19:08:48Z</time>
      </trkpt>
      <trkpt lat="59.9954903265" lon="23.4292115189">
        <ele>16.8</ele>
        <time>2012-03-29T19:08:51Z</time>
      </trkpt>
      <trkpt lat="59.9956802603" lon="23.4293696853">
        <ele>16.6</ele>
        <time>2012-03-29T19:08:54Z</time>
      </trkpt>
      <trkpt lat="59.9958575375" lon="23.4295261754">
        <ele>16.4</ele>
        <time>2012-03-29T19:08:57Z</time>
      </trkpt>
      <trkpt lat="59.9960330545" lon="23.4296850124">
        <ele>16.4</ele>
        <time>2012-03-29T19:09:00Z</time>
      </trkpt>
      <trkpt lat="59.9962410933" lon="23.4298585177">
        <ele>16.2</ele>
        <time>2012-03-29T19:09:04Z</time>
      </trkpt>
      <trkpt lat="59.9964505569" lon="23.430041746">
        <ele>16.2</ele>
        <time>2012-03-29T19:09:08Z</time>
      </trkpt>
      <trkpt lat="59.9965785485" lon="23.430150124">
        <ele>16.2</ele>
        <time>2012-03-29T19:09:11Z</time>
      </trkpt>
      <trkpt lat="59.9966845796" lon="23.4302595916">
        <ele>16.2</ele>
        <time>2012-03-29T19:09:15Z</time>
      </trkpt>
      <trkpt lat="59.996711234" lon="23.4304972185">
        <ele>16</ele>
        <time>2012-03-29T19:09:20Z</time>
      </trkpt>
      <trkpt lat="59.9966417481" lon="23.4307722286">
        <ele>16.2</ele>
        <time>2012-03-29T19:09:25Z</time>
      </trkpt>
      <trkpt lat="59.9965944742" lon="23.4309292216">
        <ele>16.8</ele>
        <time>2012-03-29T19:09:28Z</time>
      </trkpt>
      <trkpt lat="59.9965431769" lon="23.4309937623">
        <ele>17</ele>
        <time>2012-03-29T19:09:30Z</time>
      </trkpt>
      <trkpt lat="59.9964252436" lon="23.4309671916">
        <ele>17.4</ele>
        <time>2012-03-29T19:09:34Z</time>
      </trkpt>
      <trkpt lat="59.9964013552" lon="23.4309304789">
        <ele>17.6</ele>
        <time>2012-03-29T19:09:35Z</time>
      </trkpt>
      <trkpt lat="59.9963788079" lon="23.430761416">
        <ele>17.8</ele>
        <time>2012-03-29T19:09:39Z</time>
      </trkpt>
      <trkpt lat="59.9963697554" lon="23.4307464124">
        <ele>17.8</ele>
        <time>2012-03-29T19:09:40Z</time>
      </trkpt>
      <trkpt lat="59.9963612897" lon="23.4307206799">
        <ele>18.2</ele>
        <time>2012-03-29T19:09:52Z</time>
      </trkpt>
    </trkseg>
  </trk>
</gpx>